<?xml version="1.0" encoding="UTF-8" standalone="no" ?>
<gpx xmlns="http://www.topografix.com/GPX/1/1" xmlns:xsi="http://www.w3.org/2001/XMLSchema-instance" xsi:schemaLocation="http://www.topografix.com/GPX/1/1 http://www.topografix.com/GPX/1/1/gpx.xsd" version="1.1" creator="VisuGPX - https://www.visugpx.com">
  <metadata>
    <name>Monthermé, Roc la Tour.</name>
    <desc><![CDATA[Roc la tour ]]></desc>
  </metadata>
  <trk>
    <name><![CDATA[Monthermé, Roc la Tour._1]]></name>
    <trkseg>
      <trkpt lat="49.88617" lon="4.74929">
        <ele>173.3</ele>
        <time>2021-04-19T08:27:20Z</time>
      </trkpt>
      <trkpt lat="49.88614" lon="4.7494">
        <ele>137.6</ele>
        <time>2021-04-19T08:27:21Z</time>
      </trkpt>
      <trkpt lat="49.8862" lon="4.74938">
        <ele>148.2</ele>
        <time>2021-04-19T08:27:25Z</time>
      </trkpt>
      <trkpt lat="49.88623" lon="4.74945">
        <ele>168.7</ele>
        <time>2021-04-19T08:27:35Z</time>
      </trkpt>
      <trkpt lat="49.88628" lon="4.74949">
        <ele>165.8</ele>
        <time>2021-04-19T08:27:41Z</time>
      </trkpt>
      <trkpt lat="49.88633" lon="4.74952">
        <ele>161.4</ele>
        <time>2021-04-19T08:27:45Z</time>
      </trkpt>
      <trkpt lat="49.88637" lon="4.74956">
        <ele>161.1</ele>
        <time>2021-04-19T08:27:49Z</time>
      </trkpt>
      <trkpt lat="49.8864" lon="4.74962">
        <ele>161.1</ele>
        <time>2021-04-19T08:28:01Z</time>
      </trkpt>
      <trkpt lat="49.88649" lon="4.74971">
        <ele>161.2</ele>
        <time>2021-04-19T08:28:29Z</time>
      </trkpt>
      <trkpt lat="49.88654" lon="4.74974">
        <ele>162.5</ele>
        <time>2021-04-19T08:28:33Z</time>
      </trkpt>
      <trkpt lat="49.88659" lon="4.7498">
        <ele>164.1</ele>
        <time>2021-04-19T08:28:36Z</time>
      </trkpt>
      <trkpt lat="49.88664" lon="4.74985">
        <ele>164.4</ele>
        <time>2021-04-19T08:28:40Z</time>
      </trkpt>
      <trkpt lat="49.88669" lon="4.74988">
        <ele>163.5</ele>
        <time>2021-04-19T08:28:43Z</time>
      </trkpt>
      <trkpt lat="49.88673" lon="4.74992">
        <ele>164.9</ele>
        <time>2021-04-19T08:28:47Z</time>
      </trkpt>
      <trkpt lat="49.88678" lon="4.74994">
        <ele>166.2</ele>
        <time>2021-04-19T08:28:50Z</time>
      </trkpt>
      <trkpt lat="49.88685" lon="4.74996">
        <ele>168.4</ele>
        <time>2021-04-19T08:28:55Z</time>
      </trkpt>
      <trkpt lat="49.8869" lon="4.74995">
        <ele>166.4</ele>
        <time>2021-04-19T08:28:57Z</time>
      </trkpt>
      <trkpt lat="49.88695" lon="4.74994">
        <ele>167.8</ele>
        <time>2021-04-19T08:29:00Z</time>
      </trkpt>
      <trkpt lat="49.88701" lon="4.74995">
        <ele>168.7</ele>
        <time>2021-04-19T08:29:04Z</time>
      </trkpt>
      <trkpt lat="49.88707" lon="4.74998">
        <ele>169.8</ele>
        <time>2021-04-19T08:29:09Z</time>
      </trkpt>
      <trkpt lat="49.88711" lon="4.75002">
        <ele>170.7</ele>
        <time>2021-04-19T08:29:12Z</time>
      </trkpt>
      <trkpt lat="49.88715" lon="4.75007">
        <ele>171.8</ele>
        <time>2021-04-19T08:29:17Z</time>
      </trkpt>
      <trkpt lat="49.88718" lon="4.75013">
        <ele>169.2</ele>
        <time>2021-04-19T08:29:24Z</time>
      </trkpt>
      <trkpt lat="49.88717" lon="4.7502">
        <ele>166.2</ele>
        <time>2021-04-19T08:29:38Z</time>
      </trkpt>
      <trkpt lat="49.88722" lon="4.75025">
        <ele>167.3</ele>
        <time>2021-04-19T08:29:47Z</time>
      </trkpt>
      <trkpt lat="49.88727" lon="4.75025">
        <ele>168</ele>
        <time>2021-04-19T08:29:50Z</time>
      </trkpt>
      <trkpt lat="49.88733" lon="4.75025">
        <ele>167.9</ele>
        <time>2021-04-19T08:29:54Z</time>
      </trkpt>
      <trkpt lat="49.88738" lon="4.75026">
        <ele>166.7</ele>
        <time>2021-04-19T08:29:59Z</time>
      </trkpt>
      <trkpt lat="49.88743" lon="4.75028">
        <ele>165.5</ele>
        <time>2021-04-19T08:30:04Z</time>
      </trkpt>
      <trkpt lat="49.88748" lon="4.7503">
        <ele>166.3</ele>
        <time>2021-04-19T08:30:08Z</time>
      </trkpt>
      <trkpt lat="49.88752" lon="4.75033">
        <ele>167.5</ele>
        <time>2021-04-19T08:30:11Z</time>
      </trkpt>
      <trkpt lat="49.88756" lon="4.75037">
        <ele>168.4</ele>
        <time>2021-04-19T08:30:15Z</time>
      </trkpt>
      <trkpt lat="49.88761" lon="4.75042">
        <ele>169.6</ele>
        <time>2021-04-19T08:30:19Z</time>
      </trkpt>
      <trkpt lat="49.88765" lon="4.75046">
        <ele>169.8</ele>
        <time>2021-04-19T08:30:24Z</time>
      </trkpt>
      <trkpt lat="49.88769" lon="4.75049">
        <ele>171.3</ele>
        <time>2021-04-19T08:30:28Z</time>
      </trkpt>
      <trkpt lat="49.88774" lon="4.75053">
        <ele>168</ele>
        <time>2021-04-19T08:30:34Z</time>
      </trkpt>
      <trkpt lat="49.8878" lon="4.75055">
        <ele>170.3</ele>
        <time>2021-04-19T08:30:39Z</time>
      </trkpt>
      <trkpt lat="49.88785" lon="4.75059">
        <ele>170.2</ele>
        <time>2021-04-19T08:30:44Z</time>
      </trkpt>
      <trkpt lat="49.88789" lon="4.75062">
        <ele>170.2</ele>
        <time>2021-04-19T08:30:48Z</time>
      </trkpt>
      <trkpt lat="49.88793" lon="4.75067">
        <ele>170</ele>
        <time>2021-04-19T08:30:51Z</time>
      </trkpt>
      <trkpt lat="49.88796" lon="4.75072">
        <ele>168.7</ele>
        <time>2021-04-19T08:30:53Z</time>
      </trkpt>
      <trkpt lat="49.88801" lon="4.75075">
        <ele>169.4</ele>
        <time>2021-04-19T08:30:58Z</time>
      </trkpt>
      <trkpt lat="49.88806" lon="4.75078">
        <ele>169.6</ele>
        <time>2021-04-19T08:31:01Z</time>
      </trkpt>
      <trkpt lat="49.8881" lon="4.75083">
        <ele>169.3</ele>
        <time>2021-04-19T08:31:06Z</time>
      </trkpt>
      <trkpt lat="49.88815" lon="4.75086">
        <ele>171.3</ele>
        <time>2021-04-19T08:31:12Z</time>
      </trkpt>
      <trkpt lat="49.8882" lon="4.75086">
        <ele>168.1</ele>
        <time>2021-04-19T08:31:17Z</time>
      </trkpt>
      <trkpt lat="49.88825" lon="4.75087">
        <ele>168.5</ele>
        <time>2021-04-19T08:31:20Z</time>
      </trkpt>
      <trkpt lat="49.8883" lon="4.75087">
        <ele>172.8</ele>
        <time>2021-04-19T08:31:24Z</time>
      </trkpt>
      <trkpt lat="49.88835" lon="4.75088">
        <ele>171.6</ele>
        <time>2021-04-19T08:31:29Z</time>
      </trkpt>
      <trkpt lat="49.88841" lon="4.75088">
        <ele>172.3</ele>
        <time>2021-04-19T08:31:35Z</time>
      </trkpt>
      <trkpt lat="49.88845" lon="4.75086">
        <ele>169.3</ele>
        <time>2021-04-19T08:31:40Z</time>
      </trkpt>
      <trkpt lat="49.8885" lon="4.75087">
        <ele>170.7</ele>
        <time>2021-04-19T08:31:45Z</time>
      </trkpt>
      <trkpt lat="49.88855" lon="4.75091">
        <ele>172.3</ele>
        <time>2021-04-19T08:31:50Z</time>
      </trkpt>
      <trkpt lat="49.8886" lon="4.75095">
        <ele>169.7</ele>
        <time>2021-04-19T08:31:56Z</time>
      </trkpt>
      <trkpt lat="49.88865" lon="4.75098">
        <ele>170.1</ele>
        <time>2021-04-19T08:31:59Z</time>
      </trkpt>
      <trkpt lat="49.88869" lon="4.75102">
        <ele>168.3</ele>
        <time>2021-04-19T08:32:02Z</time>
      </trkpt>
      <trkpt lat="49.88874" lon="4.75104">
        <ele>168.1</ele>
        <time>2021-04-19T08:32:06Z</time>
      </trkpt>
      <trkpt lat="49.88879" lon="4.75106">
        <ele>168.1</ele>
        <time>2021-04-19T08:32:10Z</time>
      </trkpt>
      <trkpt lat="49.88884" lon="4.75107">
        <ele>168.6</ele>
        <time>2021-04-19T08:32:14Z</time>
      </trkpt>
      <trkpt lat="49.88888" lon="4.75107">
        <ele>171.6</ele>
        <time>2021-04-19T08:32:19Z</time>
      </trkpt>
      <trkpt lat="49.88893" lon="4.75111">
        <ele>171.8</ele>
        <time>2021-04-19T08:32:23Z</time>
      </trkpt>
      <trkpt lat="49.88896" lon="4.75117">
        <ele>176.3</ele>
        <time>2021-04-19T08:32:28Z</time>
      </trkpt>
      <trkpt lat="49.88898" lon="4.75125">
        <ele>174</ele>
        <time>2021-04-19T08:32:36Z</time>
      </trkpt>
      <trkpt lat="49.889" lon="4.75131">
        <ele>173.4</ele>
        <time>2021-04-19T08:32:40Z</time>
      </trkpt>
      <trkpt lat="49.88905" lon="4.75138">
        <ele>177.6</ele>
        <time>2021-04-19T08:32:43Z</time>
      </trkpt>
      <trkpt lat="49.88909" lon="4.75146">
        <ele>177.5</ele>
        <time>2021-04-19T08:32:49Z</time>
      </trkpt>
      <trkpt lat="49.8891" lon="4.75153">
        <ele>178.6</ele>
        <time>2021-04-19T08:32:51Z</time>
      </trkpt>
      <trkpt lat="49.8892" lon="4.75167">
        <ele>173.8</ele>
        <time>2021-04-19T08:32:59Z</time>
      </trkpt>
      <trkpt lat="49.88924" lon="4.75172">
        <ele>181.6</ele>
        <time>2021-04-19T08:33:05Z</time>
      </trkpt>
      <trkpt lat="49.88928" lon="4.75176">
        <ele>179.5</ele>
        <time>2021-04-19T08:33:14Z</time>
      </trkpt>
      <trkpt lat="49.88938" lon="4.75192">
        <ele>178.1</ele>
        <time>2021-04-19T08:33:24Z</time>
      </trkpt>
      <trkpt lat="49.88941" lon="4.75199">
        <ele>174.5</ele>
        <time>2021-04-19T08:33:28Z</time>
      </trkpt>
      <trkpt lat="49.88943" lon="4.75207">
        <ele>171.4</ele>
        <time>2021-04-19T08:33:32Z</time>
      </trkpt>
      <trkpt lat="49.88945" lon="4.75216">
        <ele>174</ele>
        <time>2021-04-19T08:33:36Z</time>
      </trkpt>
      <trkpt lat="49.88947" lon="4.75222">
        <ele>173</ele>
        <time>2021-04-19T08:33:39Z</time>
      </trkpt>
      <trkpt lat="49.88951" lon="4.7523">
        <ele>178.9</ele>
        <time>2021-04-19T08:33:46Z</time>
      </trkpt>
      <trkpt lat="49.88952" lon="4.75239">
        <ele>180.1</ele>
        <time>2021-04-19T08:33:51Z</time>
      </trkpt>
      <trkpt lat="49.88952" lon="4.75247">
        <ele>179.1</ele>
        <time>2021-04-19T08:33:55Z</time>
      </trkpt>
      <trkpt lat="49.88953" lon="4.75257">
        <ele>192</ele>
        <time>2021-04-19T08:34:01Z</time>
      </trkpt>
      <trkpt lat="49.88952" lon="4.75264">
        <ele>194.2</ele>
        <time>2021-04-19T08:34:06Z</time>
      </trkpt>
      <trkpt lat="49.88953" lon="4.75272">
        <ele>195.4</ele>
        <time>2021-04-19T08:34:10Z</time>
      </trkpt>
      <trkpt lat="49.88954" lon="4.7528">
        <ele>195.2</ele>
        <time>2021-04-19T08:34:15Z</time>
      </trkpt>
      <trkpt lat="49.88956" lon="4.75287">
        <ele>200.8</ele>
        <time>2021-04-19T08:34:20Z</time>
      </trkpt>
      <trkpt lat="49.88959" lon="4.75293">
        <ele>202.3</ele>
        <time>2021-04-19T08:34:25Z</time>
      </trkpt>
      <trkpt lat="49.88961" lon="4.75299">
        <ele>205.5</ele>
        <time>2021-04-19T08:34:33Z</time>
      </trkpt>
      <trkpt lat="49.88964" lon="4.75305">
        <ele>205.9</ele>
        <time>2021-04-19T08:34:39Z</time>
      </trkpt>
      <trkpt lat="49.88967" lon="4.75312">
        <ele>206.5</ele>
        <time>2021-04-19T08:34:45Z</time>
      </trkpt>
      <trkpt lat="49.8897" lon="4.75319">
        <ele>207</ele>
        <time>2021-04-19T08:34:50Z</time>
      </trkpt>
      <trkpt lat="49.88973" lon="4.75325">
        <ele>206.4</ele>
        <time>2021-04-19T08:34:55Z</time>
      </trkpt>
      <trkpt lat="49.88975" lon="4.75331">
        <ele>205.2</ele>
        <time>2021-04-19T08:35:01Z</time>
      </trkpt>
      <trkpt lat="49.88978" lon="4.75339">
        <ele>205.3</ele>
        <time>2021-04-19T08:35:06Z</time>
      </trkpt>
      <trkpt lat="49.8898" lon="4.75346">
        <ele>204.9</ele>
        <time>2021-04-19T08:35:10Z</time>
      </trkpt>
      <trkpt lat="49.88979" lon="4.75354">
        <ele>205.5</ele>
        <time>2021-04-19T08:35:15Z</time>
      </trkpt>
      <trkpt lat="49.88981" lon="4.75362">
        <ele>205</ele>
        <time>2021-04-19T08:35:20Z</time>
      </trkpt>
      <trkpt lat="49.88984" lon="4.75368">
        <ele>206</ele>
        <time>2021-04-19T08:35:24Z</time>
      </trkpt>
      <trkpt lat="49.88987" lon="4.75375">
        <ele>207.2</ele>
        <time>2021-04-19T08:35:30Z</time>
      </trkpt>
      <trkpt lat="49.8899" lon="4.75381">
        <ele>208</ele>
        <time>2021-04-19T08:35:37Z</time>
      </trkpt>
      <trkpt lat="49.88995" lon="4.75386">
        <ele>206.1</ele>
        <time>2021-04-19T08:35:42Z</time>
      </trkpt>
      <trkpt lat="49.88999" lon="4.75392">
        <ele>207.7</ele>
        <time>2021-04-19T08:35:47Z</time>
      </trkpt>
      <trkpt lat="49.89003" lon="4.75399">
        <ele>209.7</ele>
        <time>2021-04-19T08:35:52Z</time>
      </trkpt>
      <trkpt lat="49.89006" lon="4.75407">
        <ele>212.3</ele>
        <time>2021-04-19T08:35:58Z</time>
      </trkpt>
      <trkpt lat="49.89007" lon="4.75415">
        <ele>214.2</ele>
        <time>2021-04-19T08:36:03Z</time>
      </trkpt>
      <trkpt lat="49.89006" lon="4.75425">
        <ele>215</ele>
        <time>2021-04-19T08:36:07Z</time>
      </trkpt>
      <trkpt lat="49.89007" lon="4.75433">
        <ele>214.5</ele>
        <time>2021-04-19T08:36:12Z</time>
      </trkpt>
      <trkpt lat="49.8901" lon="4.75441">
        <ele>215.2</ele>
        <time>2021-04-19T08:36:16Z</time>
      </trkpt>
      <trkpt lat="49.89013" lon="4.75448">
        <ele>210.1</ele>
        <time>2021-04-19T08:36:20Z</time>
      </trkpt>
      <trkpt lat="49.89018" lon="4.75455">
        <ele>208.4</ele>
        <time>2021-04-19T08:36:23Z</time>
      </trkpt>
      <trkpt lat="49.8902" lon="4.75464">
        <ele>207.4</ele>
        <time>2021-04-19T08:36:27Z</time>
      </trkpt>
      <trkpt lat="49.89022" lon="4.7547">
        <ele>209.1</ele>
        <time>2021-04-19T08:36:30Z</time>
      </trkpt>
      <trkpt lat="49.89025" lon="4.75477">
        <ele>209.9</ele>
        <time>2021-04-19T08:36:34Z</time>
      </trkpt>
      <trkpt lat="49.89028" lon="4.75482">
        <ele>210.6</ele>
        <time>2021-04-19T08:36:39Z</time>
      </trkpt>
      <trkpt lat="49.89032" lon="4.75487">
        <ele>210.1</ele>
        <time>2021-04-19T08:36:44Z</time>
      </trkpt>
      <trkpt lat="49.89035" lon="4.75493">
        <ele>210.8</ele>
        <time>2021-04-19T08:36:49Z</time>
      </trkpt>
      <trkpt lat="49.89039" lon="4.75501">
        <ele>209.2</ele>
        <time>2021-04-19T08:36:55Z</time>
      </trkpt>
      <trkpt lat="49.89041" lon="4.75507">
        <ele>211.3</ele>
        <time>2021-04-19T08:36:59Z</time>
      </trkpt>
      <trkpt lat="49.89041" lon="4.75515">
        <ele>214</ele>
        <time>2021-04-19T08:37:03Z</time>
      </trkpt>
      <trkpt lat="49.89041" lon="4.75523">
        <ele>214.4</ele>
        <time>2021-04-19T08:37:08Z</time>
      </trkpt>
      <trkpt lat="49.89043" lon="4.75531">
        <ele>215.9</ele>
        <time>2021-04-19T08:37:14Z</time>
      </trkpt>
      <trkpt lat="49.89043" lon="4.75538">
        <ele>217.1</ele>
        <time>2021-04-19T08:37:18Z</time>
      </trkpt>
      <trkpt lat="49.89045" lon="4.75545">
        <ele>216.6</ele>
        <time>2021-04-19T08:37:23Z</time>
      </trkpt>
      <trkpt lat="49.89049" lon="4.75551">
        <ele>217.2</ele>
        <time>2021-04-19T08:37:29Z</time>
      </trkpt>
      <trkpt lat="49.89052" lon="4.75558">
        <ele>219</ele>
        <time>2021-04-19T08:37:33Z</time>
      </trkpt>
      <trkpt lat="49.89056" lon="4.75563">
        <ele>221.4</ele>
        <time>2021-04-19T08:37:38Z</time>
      </trkpt>
      <trkpt lat="49.89061" lon="4.75566">
        <ele>222.5</ele>
        <time>2021-04-19T08:37:43Z</time>
      </trkpt>
      <trkpt lat="49.89066" lon="4.7557">
        <ele>223.9</ele>
        <time>2021-04-19T08:37:49Z</time>
      </trkpt>
      <trkpt lat="49.89069" lon="4.75575">
        <ele>224.1</ele>
        <time>2021-04-19T08:37:53Z</time>
      </trkpt>
      <trkpt lat="49.89072" lon="4.75581">
        <ele>221.9</ele>
        <time>2021-04-19T08:37:58Z</time>
      </trkpt>
      <trkpt lat="49.89075" lon="4.75588">
        <ele>221.3</ele>
        <time>2021-04-19T08:38:03Z</time>
      </trkpt>
      <trkpt lat="49.89078" lon="4.75596">
        <ele>219.6</ele>
        <time>2021-04-19T08:38:07Z</time>
      </trkpt>
      <trkpt lat="49.8908" lon="4.75604">
        <ele>221.4</ele>
        <time>2021-04-19T08:38:12Z</time>
      </trkpt>
      <trkpt lat="49.89082" lon="4.75611">
        <ele>220.8</ele>
        <time>2021-04-19T08:38:16Z</time>
      </trkpt>
      <trkpt lat="49.89084" lon="4.75617">
        <ele>222.2</ele>
        <time>2021-04-19T08:38:20Z</time>
      </trkpt>
      <trkpt lat="49.89086" lon="4.75624">
        <ele>224.4</ele>
        <time>2021-04-19T08:38:25Z</time>
      </trkpt>
      <trkpt lat="49.89088" lon="4.7563">
        <ele>226.6</ele>
        <time>2021-04-19T08:38:32Z</time>
      </trkpt>
      <trkpt lat="49.8909" lon="4.75638">
        <ele>226</ele>
        <time>2021-04-19T08:38:39Z</time>
      </trkpt>
      <trkpt lat="49.89092" lon="4.75645">
        <ele>226.9</ele>
        <time>2021-04-19T08:38:43Z</time>
      </trkpt>
      <trkpt lat="49.89094" lon="4.75654">
        <ele>220.1</ele>
        <time>2021-04-19T08:38:48Z</time>
      </trkpt>
      <trkpt lat="49.89093" lon="4.75677">
        <ele>218.8</ele>
        <time>2021-04-19T08:38:56Z</time>
      </trkpt>
      <trkpt lat="49.89096" lon="4.75684">
        <ele>223.2</ele>
        <time>2021-04-19T08:39:00Z</time>
      </trkpt>
      <trkpt lat="49.89098" lon="4.75692">
        <ele>223.1</ele>
        <time>2021-04-19T08:39:05Z</time>
      </trkpt>
      <trkpt lat="49.89099" lon="4.757">
        <ele>223.5</ele>
        <time>2021-04-19T08:39:10Z</time>
      </trkpt>
      <trkpt lat="49.891" lon="4.75708">
        <ele>223.8</ele>
        <time>2021-04-19T08:39:14Z</time>
      </trkpt>
      <trkpt lat="49.891" lon="4.75715">
        <ele>223.9</ele>
        <time>2021-04-19T08:39:18Z</time>
      </trkpt>
      <trkpt lat="49.89099" lon="4.75723">
        <ele>223.8</ele>
        <time>2021-04-19T08:39:22Z</time>
      </trkpt>
      <trkpt lat="49.89099" lon="4.75731">
        <ele>223.3</ele>
        <time>2021-04-19T08:39:26Z</time>
      </trkpt>
      <trkpt lat="49.89098" lon="4.75741">
        <ele>224</ele>
        <time>2021-04-19T08:39:32Z</time>
      </trkpt>
      <trkpt lat="49.89097" lon="4.75751">
        <ele>225.8</ele>
        <time>2021-04-19T08:39:38Z</time>
      </trkpt>
      <trkpt lat="49.89098" lon="4.75758">
        <ele>227.1</ele>
        <time>2021-04-19T08:39:43Z</time>
      </trkpt>
      <trkpt lat="49.89097" lon="4.75766">
        <ele>227.9</ele>
        <time>2021-04-19T08:39:51Z</time>
      </trkpt>
      <trkpt lat="49.89095" lon="4.75773">
        <ele>228.6</ele>
        <time>2021-04-19T08:39:57Z</time>
      </trkpt>
      <trkpt lat="49.89094" lon="4.7578">
        <ele>224.3</ele>
        <time>2021-04-19T08:40:00Z</time>
      </trkpt>
      <trkpt lat="49.89095" lon="4.75789">
        <ele>220.8</ele>
        <time>2021-04-19T08:40:04Z</time>
      </trkpt>
      <trkpt lat="49.89096" lon="4.75796">
        <ele>221.1</ele>
        <time>2021-04-19T08:40:07Z</time>
      </trkpt>
      <trkpt lat="49.89098" lon="4.75806">
        <ele>222.7</ele>
        <time>2021-04-19T08:40:11Z</time>
      </trkpt>
      <trkpt lat="49.89098" lon="4.75814">
        <ele>224</ele>
        <time>2021-04-19T08:40:14Z</time>
      </trkpt>
      <trkpt lat="49.89097" lon="4.75822">
        <ele>225.8</ele>
        <time>2021-04-19T08:40:17Z</time>
      </trkpt>
      <trkpt lat="49.89097" lon="4.7583">
        <ele>227</ele>
        <time>2021-04-19T08:40:22Z</time>
      </trkpt>
      <trkpt lat="49.89099" lon="4.75837">
        <ele>227.9</ele>
        <time>2021-04-19T08:40:26Z</time>
      </trkpt>
      <trkpt lat="49.89099" lon="4.75845">
        <ele>223.8</ele>
        <time>2021-04-19T08:40:30Z</time>
      </trkpt>
      <trkpt lat="49.89097" lon="4.75865">
        <ele>223.6</ele>
        <time>2021-04-19T08:40:37Z</time>
      </trkpt>
      <trkpt lat="49.89097" lon="4.75872">
        <ele>224.7</ele>
        <time>2021-04-19T08:40:41Z</time>
      </trkpt>
      <trkpt lat="49.89099" lon="4.7588">
        <ele>225.3</ele>
        <time>2021-04-19T08:40:46Z</time>
      </trkpt>
      <trkpt lat="49.891" lon="4.75887">
        <ele>225.7</ele>
        <time>2021-04-19T08:40:51Z</time>
      </trkpt>
      <trkpt lat="49.89102" lon="4.75893">
        <ele>228.5</ele>
        <time>2021-04-19T08:40:57Z</time>
      </trkpt>
      <trkpt lat="49.89105" lon="4.75899">
        <ele>228.9</ele>
        <time>2021-04-19T08:41:03Z</time>
      </trkpt>
      <trkpt lat="49.89105" lon="4.75907">
        <ele>227.5</ele>
        <time>2021-04-19T08:41:09Z</time>
      </trkpt>
      <trkpt lat="49.89106" lon="4.75914">
        <ele>227.2</ele>
        <time>2021-04-19T08:41:14Z</time>
      </trkpt>
      <trkpt lat="49.89107" lon="4.75921">
        <ele>227.6</ele>
        <time>2021-04-19T08:41:18Z</time>
      </trkpt>
      <trkpt lat="49.89109" lon="4.75928">
        <ele>228.1</ele>
        <time>2021-04-19T08:41:21Z</time>
      </trkpt>
      <trkpt lat="49.89112" lon="4.75935">
        <ele>228.4</ele>
        <time>2021-04-19T08:41:26Z</time>
      </trkpt>
      <trkpt lat="49.89114" lon="4.75941">
        <ele>225.4</ele>
        <time>2021-04-19T08:41:30Z</time>
      </trkpt>
      <trkpt lat="49.89114" lon="4.75949">
        <ele>226.4</ele>
        <time>2021-04-19T08:41:34Z</time>
      </trkpt>
      <trkpt lat="49.89116" lon="4.75958">
        <ele>228.5</ele>
        <time>2021-04-19T08:41:39Z</time>
      </trkpt>
      <trkpt lat="49.89117" lon="4.75967">
        <ele>226.3</ele>
        <time>2021-04-19T08:41:44Z</time>
      </trkpt>
      <trkpt lat="49.89119" lon="4.75975">
        <ele>228.1</ele>
        <time>2021-04-19T08:41:48Z</time>
      </trkpt>
      <trkpt lat="49.89123" lon="4.75982">
        <ele>227.7</ele>
        <time>2021-04-19T08:41:53Z</time>
      </trkpt>
      <trkpt lat="49.89126" lon="4.75989">
        <ele>225.3</ele>
        <time>2021-04-19T08:41:57Z</time>
      </trkpt>
      <trkpt lat="49.89129" lon="4.75995">
        <ele>231.3</ele>
        <time>2021-04-19T08:42:02Z</time>
      </trkpt>
      <trkpt lat="49.89129" lon="4.76004">
        <ele>228.9</ele>
        <time>2021-04-19T08:42:08Z</time>
      </trkpt>
      <trkpt lat="49.89129" lon="4.76014">
        <ele>228</ele>
        <time>2021-04-19T08:42:14Z</time>
      </trkpt>
      <trkpt lat="49.89128" lon="4.76022">
        <ele>227.9</ele>
        <time>2021-04-19T08:42:18Z</time>
      </trkpt>
      <trkpt lat="49.89128" lon="4.76029">
        <ele>227.4</ele>
        <time>2021-04-19T08:42:22Z</time>
      </trkpt>
      <trkpt lat="49.8913" lon="4.76037">
        <ele>228.9</ele>
        <time>2021-04-19T08:42:27Z</time>
      </trkpt>
      <trkpt lat="49.89132" lon="4.76043">
        <ele>226.5</ele>
        <time>2021-04-19T08:42:31Z</time>
      </trkpt>
      <trkpt lat="49.89135" lon="4.7605">
        <ele>224.7</ele>
        <time>2021-04-19T08:42:34Z</time>
      </trkpt>
      <trkpt lat="49.89137" lon="4.76059">
        <ele>223.4</ele>
        <time>2021-04-19T08:42:38Z</time>
      </trkpt>
      <trkpt lat="49.89138" lon="4.76068">
        <ele>222.5</ele>
        <time>2021-04-19T08:42:41Z</time>
      </trkpt>
      <trkpt lat="49.89132" lon="4.76093">
        <ele>228.5</ele>
        <time>2021-04-19T08:42:51Z</time>
      </trkpt>
      <trkpt lat="49.89133" lon="4.76099">
        <ele>229.4</ele>
        <time>2021-04-19T08:42:56Z</time>
      </trkpt>
      <trkpt lat="49.89137" lon="4.76105">
        <ele>231.7</ele>
        <time>2021-04-19T08:43:00Z</time>
      </trkpt>
      <trkpt lat="49.89139" lon="4.76112">
        <ele>230.5</ele>
        <time>2021-04-19T08:43:05Z</time>
      </trkpt>
      <trkpt lat="49.89142" lon="4.76119">
        <ele>229.7</ele>
        <time>2021-04-19T08:43:09Z</time>
      </trkpt>
      <trkpt lat="49.89144" lon="4.76125">
        <ele>229.3</ele>
        <time>2021-04-19T08:43:13Z</time>
      </trkpt>
      <trkpt lat="49.89147" lon="4.76131">
        <ele>228.5</ele>
        <time>2021-04-19T08:43:16Z</time>
      </trkpt>
      <trkpt lat="49.89148" lon="4.76139">
        <ele>229.6</ele>
        <time>2021-04-19T08:43:20Z</time>
      </trkpt>
      <trkpt lat="49.89151" lon="4.76148">
        <ele>230.2</ele>
        <time>2021-04-19T08:43:25Z</time>
      </trkpt>
      <trkpt lat="49.89161" lon="4.76155">
        <ele>232.9</ele>
        <time>2021-04-19T08:43:33Z</time>
      </trkpt>
      <trkpt lat="49.89165" lon="4.7616">
        <ele>231.8</ele>
        <time>2021-04-19T08:43:37Z</time>
      </trkpt>
      <trkpt lat="49.8917" lon="4.76184">
        <ele>231.9</ele>
        <time>2021-04-19T08:43:49Z</time>
      </trkpt>
      <trkpt lat="49.89171" lon="4.76191">
        <ele>232.4</ele>
        <time>2021-04-19T08:43:53Z</time>
      </trkpt>
      <trkpt lat="49.89174" lon="4.76201">
        <ele>230.6</ele>
        <time>2021-04-19T08:43:58Z</time>
      </trkpt>
      <trkpt lat="49.89177" lon="4.76208">
        <ele>227.7</ele>
        <time>2021-04-19T08:44:02Z</time>
      </trkpt>
      <trkpt lat="49.89179" lon="4.76214">
        <ele>225.2</ele>
        <time>2021-04-19T08:44:06Z</time>
      </trkpt>
      <trkpt lat="49.89185" lon="4.76218">
        <ele>223.5</ele>
        <time>2021-04-19T08:44:09Z</time>
      </trkpt>
      <trkpt lat="49.8919" lon="4.76218">
        <ele>222.6</ele>
        <time>2021-04-19T08:44:11Z</time>
      </trkpt>
      <trkpt lat="49.89196" lon="4.76217">
        <ele>222.2</ele>
        <time>2021-04-19T08:44:14Z</time>
      </trkpt>
      <trkpt lat="49.89202" lon="4.76216">
        <ele>222.2</ele>
        <time>2021-04-19T08:44:17Z</time>
      </trkpt>
      <trkpt lat="49.89207" lon="4.76215">
        <ele>229.3</ele>
        <time>2021-04-19T08:44:21Z</time>
      </trkpt>
      <trkpt lat="49.89203" lon="4.76219">
        <ele>223.7</ele>
        <time>2021-04-19T08:44:37Z</time>
      </trkpt>
      <trkpt lat="49.89198" lon="4.76225">
        <ele>223.3</ele>
        <time>2021-04-19T08:44:42Z</time>
      </trkpt>
      <trkpt lat="49.89193" lon="4.76225">
        <ele>227.2</ele>
        <time>2021-04-19T08:45:07Z</time>
      </trkpt>
      <trkpt lat="49.89189" lon="4.76228">
        <ele>226.6</ele>
        <time>2021-04-19T08:45:10Z</time>
      </trkpt>
      <trkpt lat="49.89184" lon="4.76235">
        <ele>230</ele>
        <time>2021-04-19T08:45:15Z</time>
      </trkpt>
      <trkpt lat="49.89185" lon="4.76244">
        <ele>228.8</ele>
        <time>2021-04-19T08:45:19Z</time>
      </trkpt>
      <trkpt lat="49.89188" lon="4.76249">
        <ele>230.6</ele>
        <time>2021-04-19T08:45:22Z</time>
      </trkpt>
      <trkpt lat="49.89195" lon="4.76247">
        <ele>241.7</ele>
        <time>2021-04-19T08:45:36Z</time>
      </trkpt>
      <trkpt lat="49.89202" lon="4.76243">
        <ele>241</ele>
        <time>2021-04-19T08:45:38Z</time>
      </trkpt>
      <trkpt lat="49.89204" lon="4.76236">
        <ele>240.8</ele>
        <time>2021-04-19T08:45:41Z</time>
      </trkpt>
      <trkpt lat="49.89205" lon="4.76226">
        <ele>238.2</ele>
        <time>2021-04-19T08:45:45Z</time>
      </trkpt>
      <trkpt lat="49.89206" lon="4.76216">
        <ele>240.4</ele>
        <time>2021-04-19T08:45:47Z</time>
      </trkpt>
      <trkpt lat="49.89207" lon="4.76208">
        <ele>241.1</ele>
        <time>2021-04-19T08:45:50Z</time>
      </trkpt>
      <trkpt lat="49.89209" lon="4.76202">
        <ele>241.3</ele>
        <time>2021-04-19T08:45:52Z</time>
      </trkpt>
      <trkpt lat="49.8921" lon="4.76195">
        <ele>241.1</ele>
        <time>2021-04-19T08:45:55Z</time>
      </trkpt>
      <trkpt lat="49.8921" lon="4.76186">
        <ele>246.7</ele>
        <time>2021-04-19T08:45:59Z</time>
      </trkpt>
      <trkpt lat="49.89211" lon="4.76179">
        <ele>246.8</ele>
        <time>2021-04-19T08:46:03Z</time>
      </trkpt>
      <trkpt lat="49.89211" lon="4.76171">
        <ele>244.3</ele>
        <time>2021-04-19T08:46:08Z</time>
      </trkpt>
      <trkpt lat="49.89213" lon="4.76162">
        <ele>243.6</ele>
        <time>2021-04-19T08:46:14Z</time>
      </trkpt>
      <trkpt lat="49.89215" lon="4.76155">
        <ele>246.9</ele>
        <time>2021-04-19T08:46:17Z</time>
      </trkpt>
      <trkpt lat="49.89217" lon="4.76147">
        <ele>242</ele>
        <time>2021-04-19T08:46:22Z</time>
      </trkpt>
      <trkpt lat="49.89216" lon="4.76139">
        <ele>265</ele>
        <time>2021-04-19T08:46:27Z</time>
      </trkpt>
      <trkpt lat="49.89216" lon="4.76131">
        <ele>271.4</ele>
        <time>2021-04-19T08:46:33Z</time>
      </trkpt>
      <trkpt lat="49.89216" lon="4.76123">
        <ele>271</ele>
        <time>2021-04-19T08:46:39Z</time>
      </trkpt>
      <trkpt lat="49.89217" lon="4.76115">
        <ele>270.5</ele>
        <time>2021-04-19T08:46:45Z</time>
      </trkpt>
      <trkpt lat="49.89217" lon="4.76108">
        <ele>268.9</ele>
        <time>2021-04-19T08:46:54Z</time>
      </trkpt>
      <trkpt lat="49.89216" lon="4.76101">
        <ele>271.2</ele>
        <time>2021-04-19T08:46:59Z</time>
      </trkpt>
      <trkpt lat="49.89217" lon="4.76092">
        <ele>268.8</ele>
        <time>2021-04-19T08:47:04Z</time>
      </trkpt>
      <trkpt lat="49.89219" lon="4.76083">
        <ele>270.5</ele>
        <time>2021-04-19T08:47:10Z</time>
      </trkpt>
      <trkpt lat="49.8922" lon="4.76075">
        <ele>270.7</ele>
        <time>2021-04-19T08:47:14Z</time>
      </trkpt>
      <trkpt lat="49.89223" lon="4.76067">
        <ele>270.8</ele>
        <time>2021-04-19T08:47:20Z</time>
      </trkpt>
      <trkpt lat="49.89226" lon="4.76061">
        <ele>272.3</ele>
        <time>2021-04-19T08:47:25Z</time>
      </trkpt>
      <trkpt lat="49.89228" lon="4.76054">
        <ele>272.6</ele>
        <time>2021-04-19T08:47:30Z</time>
      </trkpt>
      <trkpt lat="49.8923" lon="4.76048">
        <ele>272.2</ele>
        <time>2021-04-19T08:47:34Z</time>
      </trkpt>
      <trkpt lat="49.89233" lon="4.7604">
        <ele>275.6</ele>
        <time>2021-04-19T08:47:41Z</time>
      </trkpt>
      <trkpt lat="49.89235" lon="4.76033">
        <ele>275.5</ele>
        <time>2021-04-19T08:47:47Z</time>
      </trkpt>
      <trkpt lat="49.89238" lon="4.76027">
        <ele>279.1</ele>
        <time>2021-04-19T08:47:51Z</time>
      </trkpt>
      <trkpt lat="49.89242" lon="4.76021">
        <ele>281.2</ele>
        <time>2021-04-19T08:47:58Z</time>
      </trkpt>
      <trkpt lat="49.89246" lon="4.76015">
        <ele>280.8</ele>
        <time>2021-04-19T08:48:03Z</time>
      </trkpt>
      <trkpt lat="49.89249" lon="4.76009">
        <ele>286.8</ele>
        <time>2021-04-19T08:48:08Z</time>
      </trkpt>
      <trkpt lat="49.89252" lon="4.76004">
        <ele>285.7</ele>
        <time>2021-04-19T08:48:13Z</time>
      </trkpt>
      <trkpt lat="49.89256" lon="4.75998">
        <ele>285.4</ele>
        <time>2021-04-19T08:48:18Z</time>
      </trkpt>
      <trkpt lat="49.8926" lon="4.75991">
        <ele>286.2</ele>
        <time>2021-04-19T08:48:23Z</time>
      </trkpt>
      <trkpt lat="49.89265" lon="4.75987">
        <ele>286.6</ele>
        <time>2021-04-19T08:48:28Z</time>
      </trkpt>
      <trkpt lat="49.89269" lon="4.75982">
        <ele>236</ele>
        <time>2021-04-19T08:48:33Z</time>
      </trkpt>
      <trkpt lat="49.8927" lon="4.75974">
        <ele>287.4</ele>
        <time>2021-04-19T08:48:47Z</time>
      </trkpt>
      <trkpt lat="49.89272" lon="4.75967">
        <ele>287.8</ele>
        <time>2021-04-19T08:48:50Z</time>
      </trkpt>
      <trkpt lat="49.89275" lon="4.75962">
        <ele>285.5</ele>
        <time>2021-04-19T08:49:12Z</time>
      </trkpt>
      <trkpt lat="49.89277" lon="4.75956">
        <ele>285.4</ele>
        <time>2021-04-19T08:50:53Z</time>
      </trkpt>
      <trkpt lat="49.89281" lon="4.75963">
        <ele>285.4</ele>
        <time>2021-04-19T08:51:50Z</time>
      </trkpt>
      <trkpt lat="49.8928" lon="4.75974">
        <ele>287.8</ele>
        <time>2021-04-19T08:51:55Z</time>
      </trkpt>
      <trkpt lat="49.89282" lon="4.7598">
        <ele>287.7</ele>
        <time>2021-04-19T08:51:59Z</time>
      </trkpt>
      <trkpt lat="49.89285" lon="4.75988">
        <ele>288.7</ele>
        <time>2021-04-19T08:52:03Z</time>
      </trkpt>
      <trkpt lat="49.8929" lon="4.75994">
        <ele>288.9</ele>
        <time>2021-04-19T08:52:09Z</time>
      </trkpt>
      <trkpt lat="49.89293" lon="4.76">
        <ele>289.4</ele>
        <time>2021-04-19T08:52:13Z</time>
      </trkpt>
      <trkpt lat="49.89297" lon="4.76004">
        <ele>289.9</ele>
        <time>2021-04-19T08:52:17Z</time>
      </trkpt>
      <trkpt lat="49.89301" lon="4.7601">
        <ele>290.1</ele>
        <time>2021-04-19T08:52:21Z</time>
      </trkpt>
      <trkpt lat="49.89305" lon="4.76015">
        <ele>292.9</ele>
        <time>2021-04-19T08:52:25Z</time>
      </trkpt>
      <trkpt lat="49.89307" lon="4.76023">
        <ele>294.3</ele>
        <time>2021-04-19T08:52:29Z</time>
      </trkpt>
      <trkpt lat="49.89306" lon="4.7603">
        <ele>294.2</ele>
        <time>2021-04-19T08:52:32Z</time>
      </trkpt>
      <trkpt lat="49.89302" lon="4.76036">
        <ele>295.3</ele>
        <time>2021-04-19T08:52:36Z</time>
      </trkpt>
      <trkpt lat="49.89305" lon="4.76042">
        <ele>295.8</ele>
        <time>2021-04-19T08:52:40Z</time>
      </trkpt>
      <trkpt lat="49.89309" lon="4.76043">
        <ele>293.5</ele>
        <time>2021-04-19T08:52:44Z</time>
      </trkpt>
      <trkpt lat="49.89312" lon="4.76051">
        <ele>295.3</ele>
        <time>2021-04-19T08:52:48Z</time>
      </trkpt>
      <trkpt lat="49.89315" lon="4.76058">
        <ele>297.3</ele>
        <time>2021-04-19T08:52:52Z</time>
      </trkpt>
      <trkpt lat="49.89317" lon="4.76066">
        <ele>297</ele>
        <time>2021-04-19T08:52:55Z</time>
      </trkpt>
      <trkpt lat="49.89319" lon="4.76074">
        <ele>297.3</ele>
        <time>2021-04-19T08:52:59Z</time>
      </trkpt>
      <trkpt lat="49.89322" lon="4.7608">
        <ele>294.9</ele>
        <time>2021-04-19T08:53:04Z</time>
      </trkpt>
      <trkpt lat="49.89325" lon="4.76087">
        <ele>296</ele>
        <time>2021-04-19T08:53:10Z</time>
      </trkpt>
      <trkpt lat="49.89328" lon="4.76092">
        <ele>296.1</ele>
        <time>2021-04-19T08:53:16Z</time>
      </trkpt>
      <trkpt lat="49.89333" lon="4.76097">
        <ele>296.2</ele>
        <time>2021-04-19T08:53:21Z</time>
      </trkpt>
      <trkpt lat="49.89336" lon="4.76103">
        <ele>299.8</ele>
        <time>2021-04-19T08:53:25Z</time>
      </trkpt>
      <trkpt lat="49.89339" lon="4.76109">
        <ele>299.6</ele>
        <time>2021-04-19T08:53:30Z</time>
      </trkpt>
      <trkpt lat="49.89342" lon="4.76114">
        <ele>298.9</ele>
        <time>2021-04-19T08:53:36Z</time>
      </trkpt>
      <trkpt lat="49.89345" lon="4.7612">
        <ele>299.4</ele>
        <time>2021-04-19T08:53:42Z</time>
      </trkpt>
      <trkpt lat="49.89347" lon="4.76127">
        <ele>299.5</ele>
        <time>2021-04-19T08:53:46Z</time>
      </trkpt>
      <trkpt lat="49.8935" lon="4.76133">
        <ele>300.1</ele>
        <time>2021-04-19T08:53:49Z</time>
      </trkpt>
      <trkpt lat="49.89353" lon="4.76139">
        <ele>300.8</ele>
        <time>2021-04-19T08:53:53Z</time>
      </trkpt>
      <trkpt lat="49.89355" lon="4.76146">
        <ele>302</ele>
        <time>2021-04-19T08:53:56Z</time>
      </trkpt>
      <trkpt lat="49.89359" lon="4.76153">
        <ele>301.5</ele>
        <time>2021-04-19T08:53:59Z</time>
      </trkpt>
      <trkpt lat="49.89362" lon="4.76159">
        <ele>300.1</ele>
        <time>2021-04-19T08:54:03Z</time>
      </trkpt>
      <trkpt lat="49.89366" lon="4.76164">
        <ele>301.4</ele>
        <time>2021-04-19T08:54:06Z</time>
      </trkpt>
      <trkpt lat="49.89377" lon="4.76171">
        <ele>302.7</ele>
        <time>2021-04-19T08:54:13Z</time>
      </trkpt>
      <trkpt lat="49.89381" lon="4.76177">
        <ele>301.5</ele>
        <time>2021-04-19T08:54:16Z</time>
      </trkpt>
      <trkpt lat="49.89384" lon="4.76184">
        <ele>303</ele>
        <time>2021-04-19T08:54:19Z</time>
      </trkpt>
      <trkpt lat="49.89387" lon="4.76189">
        <ele>299.5</ele>
        <time>2021-04-19T08:54:23Z</time>
      </trkpt>
      <trkpt lat="49.89392" lon="4.76193">
        <ele>299.6</ele>
        <time>2021-04-19T08:54:26Z</time>
      </trkpt>
      <trkpt lat="49.89396" lon="4.76198">
        <ele>297.6</ele>
        <time>2021-04-19T08:54:31Z</time>
      </trkpt>
      <trkpt lat="49.89399" lon="4.76205">
        <ele>298.1</ele>
        <time>2021-04-19T08:54:41Z</time>
      </trkpt>
      <trkpt lat="49.89403" lon="4.76213">
        <ele>300</ele>
        <time>2021-04-19T08:54:45Z</time>
      </trkpt>
      <trkpt lat="49.89404" lon="4.76221">
        <ele>300.1</ele>
        <time>2021-04-19T08:54:49Z</time>
      </trkpt>
      <trkpt lat="49.89406" lon="4.76232">
        <ele>300.9</ele>
        <time>2021-04-19T08:54:54Z</time>
      </trkpt>
      <trkpt lat="49.89408" lon="4.76239">
        <ele>300.6</ele>
        <time>2021-04-19T08:54:59Z</time>
      </trkpt>
      <trkpt lat="49.89411" lon="4.76245">
        <ele>297.2</ele>
        <time>2021-04-19T08:55:04Z</time>
      </trkpt>
      <trkpt lat="49.89414" lon="4.76251">
        <ele>301.6</ele>
        <time>2021-04-19T08:55:10Z</time>
      </trkpt>
      <trkpt lat="49.89417" lon="4.76256">
        <ele>300.3</ele>
        <time>2021-04-19T08:55:15Z</time>
      </trkpt>
      <trkpt lat="49.89421" lon="4.76264">
        <ele>302.9</ele>
        <time>2021-04-19T08:55:21Z</time>
      </trkpt>
      <trkpt lat="49.89425" lon="4.76268">
        <ele>296.7</ele>
        <time>2021-04-19T08:55:28Z</time>
      </trkpt>
      <trkpt lat="49.89427" lon="4.76275">
        <ele>298.8</ele>
        <time>2021-04-19T08:55:33Z</time>
      </trkpt>
      <trkpt lat="49.89431" lon="4.7628">
        <ele>305.6</ele>
        <time>2021-04-19T08:55:37Z</time>
      </trkpt>
      <trkpt lat="49.89433" lon="4.76286">
        <ele>303.8</ele>
        <time>2021-04-19T08:55:42Z</time>
      </trkpt>
      <trkpt lat="49.89433" lon="4.76294">
        <ele>302.6</ele>
        <time>2021-04-19T08:55:47Z</time>
      </trkpt>
      <trkpt lat="49.89433" lon="4.76302">
        <ele>304.4</ele>
        <time>2021-04-19T08:55:50Z</time>
      </trkpt>
      <trkpt lat="49.89435" lon="4.76311">
        <ele>305</ele>
        <time>2021-04-19T08:55:55Z</time>
      </trkpt>
      <trkpt lat="49.89438" lon="4.76317">
        <ele>309.2</ele>
        <time>2021-04-19T08:55:58Z</time>
      </trkpt>
      <trkpt lat="49.8944" lon="4.76324">
        <ele>307.7</ele>
        <time>2021-04-19T08:56:03Z</time>
      </trkpt>
      <trkpt lat="49.89443" lon="4.7633">
        <ele>307.7</ele>
        <time>2021-04-19T08:56:07Z</time>
      </trkpt>
      <trkpt lat="49.89446" lon="4.76337">
        <ele>307.8</ele>
        <time>2021-04-19T08:56:12Z</time>
      </trkpt>
      <trkpt lat="49.89448" lon="4.76344">
        <ele>311.2</ele>
        <time>2021-04-19T08:56:17Z</time>
      </trkpt>
      <trkpt lat="49.8945" lon="4.76351">
        <ele>311.9</ele>
        <time>2021-04-19T08:56:22Z</time>
      </trkpt>
      <trkpt lat="49.89453" lon="4.76358">
        <ele>307.7</ele>
        <time>2021-04-19T08:56:27Z</time>
      </trkpt>
      <trkpt lat="49.89458" lon="4.76361">
        <ele>308.4</ele>
        <time>2021-04-19T08:56:31Z</time>
      </trkpt>
      <trkpt lat="49.89462" lon="4.76365">
        <ele>303.3</ele>
        <time>2021-04-19T08:56:34Z</time>
      </trkpt>
      <trkpt lat="49.89465" lon="4.76372">
        <ele>305.1</ele>
        <time>2021-04-19T08:56:38Z</time>
      </trkpt>
      <trkpt lat="49.89466" lon="4.76382">
        <ele>313.8</ele>
        <time>2021-04-19T08:56:43Z</time>
      </trkpt>
      <trkpt lat="49.89468" lon="4.7639">
        <ele>310.3</ele>
        <time>2021-04-19T08:56:48Z</time>
      </trkpt>
      <trkpt lat="49.89469" lon="4.76398">
        <ele>305.4</ele>
        <time>2021-04-19T08:56:54Z</time>
      </trkpt>
      <trkpt lat="49.89473" lon="4.76403">
        <ele>309.4</ele>
        <time>2021-04-19T08:57:07Z</time>
      </trkpt>
      <trkpt lat="49.89477" lon="4.76408">
        <ele>309</ele>
        <time>2021-04-19T08:57:13Z</time>
      </trkpt>
      <trkpt lat="49.89482" lon="4.76428">
        <ele>302.5</ele>
        <time>2021-04-19T08:57:20Z</time>
      </trkpt>
      <trkpt lat="49.89484" lon="4.76436">
        <ele>301.5</ele>
        <time>2021-04-19T08:57:23Z</time>
      </trkpt>
      <trkpt lat="49.89487" lon="4.76444">
        <ele>302.1</ele>
        <time>2021-04-19T08:57:27Z</time>
      </trkpt>
      <trkpt lat="49.89489" lon="4.76452">
        <ele>302.7</ele>
        <time>2021-04-19T08:57:30Z</time>
      </trkpt>
      <trkpt lat="49.89492" lon="4.76458">
        <ele>308.2</ele>
        <time>2021-04-19T08:57:34Z</time>
      </trkpt>
      <trkpt lat="49.89495" lon="4.76465">
        <ele>315.8</ele>
        <time>2021-04-19T08:57:38Z</time>
      </trkpt>
      <trkpt lat="49.89498" lon="4.76471">
        <ele>313.1</ele>
        <time>2021-04-19T08:57:43Z</time>
      </trkpt>
      <trkpt lat="49.895" lon="4.76478">
        <ele>312.5</ele>
        <time>2021-04-19T08:57:48Z</time>
      </trkpt>
      <trkpt lat="49.89502" lon="4.76493">
        <ele>304.9</ele>
        <time>2021-04-19T08:57:55Z</time>
      </trkpt>
      <trkpt lat="49.89503" lon="4.765">
        <ele>303.4</ele>
        <time>2021-04-19T08:58:00Z</time>
      </trkpt>
      <trkpt lat="49.89502" lon="4.7651">
        <ele>300.5</ele>
        <time>2021-04-19T08:58:06Z</time>
      </trkpt>
      <trkpt lat="49.89503" lon="4.76517">
        <ele>300</ele>
        <time>2021-04-19T08:58:11Z</time>
      </trkpt>
      <trkpt lat="49.89506" lon="4.76523">
        <ele>297</ele>
        <time>2021-04-19T08:58:15Z</time>
      </trkpt>
      <trkpt lat="49.89509" lon="4.76531">
        <ele>298.2</ele>
        <time>2021-04-19T08:58:20Z</time>
      </trkpt>
      <trkpt lat="49.89508" lon="4.7654">
        <ele>306.7</ele>
        <time>2021-04-19T08:58:24Z</time>
      </trkpt>
      <trkpt lat="49.8951" lon="4.76548">
        <ele>307.6</ele>
        <time>2021-04-19T08:58:29Z</time>
      </trkpt>
      <trkpt lat="49.89515" lon="4.76551">
        <ele>310</ele>
        <time>2021-04-19T08:58:33Z</time>
      </trkpt>
      <trkpt lat="49.89506" lon="4.76566">
        <ele>302.4</ele>
        <time>2021-04-19T08:59:23Z</time>
      </trkpt>
      <trkpt lat="49.89502" lon="4.76572">
        <ele>303.8</ele>
        <time>2021-04-19T08:59:27Z</time>
      </trkpt>
      <trkpt lat="49.89499" lon="4.76577">
        <ele>308.1</ele>
        <time>2021-04-19T08:59:32Z</time>
      </trkpt>
      <trkpt lat="49.89496" lon="4.76584">
        <ele>310</ele>
        <time>2021-04-19T08:59:41Z</time>
      </trkpt>
      <trkpt lat="49.89492" lon="4.7659">
        <ele>311.1</ele>
        <time>2021-04-19T08:59:46Z</time>
      </trkpt>
      <trkpt lat="49.89492" lon="4.76598">
        <ele>310.1</ele>
        <time>2021-04-19T08:59:55Z</time>
      </trkpt>
      <trkpt lat="49.89491" lon="4.76606">
        <ele>307</ele>
        <time>2021-04-19T08:59:59Z</time>
      </trkpt>
      <trkpt lat="49.89491" lon="4.76635">
        <ele>299.8</ele>
        <time>2021-04-19T09:00:07Z</time>
      </trkpt>
      <trkpt lat="49.89492" lon="4.76643">
        <ele>298.2</ele>
        <time>2021-04-19T09:00:12Z</time>
      </trkpt>
      <trkpt lat="49.89488" lon="4.76643">
        <ele>302.5</ele>
        <time>2021-04-19T09:00:26Z</time>
      </trkpt>
      <trkpt lat="49.89484" lon="4.76649">
        <ele>299.2</ele>
        <time>2021-04-19T09:00:37Z</time>
      </trkpt>
      <trkpt lat="49.8948" lon="4.76656">
        <ele>299.6</ele>
        <time>2021-04-19T09:00:42Z</time>
      </trkpt>
      <trkpt lat="49.89478" lon="4.76664">
        <ele>299.5</ele>
        <time>2021-04-19T09:00:45Z</time>
      </trkpt>
      <trkpt lat="49.89476" lon="4.76673">
        <ele>298.2</ele>
        <time>2021-04-19T09:00:48Z</time>
      </trkpt>
      <trkpt lat="49.89477" lon="4.76684">
        <ele>295.7</ele>
        <time>2021-04-19T09:00:51Z</time>
      </trkpt>
      <trkpt lat="49.8948" lon="4.7669">
        <ele>293.5</ele>
        <time>2021-04-19T09:00:55Z</time>
      </trkpt>
      <trkpt lat="49.89479" lon="4.76697">
        <ele>297.2</ele>
        <time>2021-04-19T09:01:00Z</time>
      </trkpt>
      <trkpt lat="49.89479" lon="4.76707">
        <ele>297.5</ele>
        <time>2021-04-19T09:01:18Z</time>
      </trkpt>
      <trkpt lat="49.89479" lon="4.76716">
        <ele>297.3</ele>
        <time>2021-04-19T09:01:22Z</time>
      </trkpt>
      <trkpt lat="49.89478" lon="4.76724">
        <ele>296.9</ele>
        <time>2021-04-19T09:01:24Z</time>
      </trkpt>
      <trkpt lat="49.89478" lon="4.76732">
        <ele>295.3</ele>
        <time>2021-04-19T09:01:28Z</time>
      </trkpt>
      <trkpt lat="49.8948" lon="4.76739">
        <ele>295.2</ele>
        <time>2021-04-19T09:01:33Z</time>
      </trkpt>
      <trkpt lat="49.8948" lon="4.76747">
        <ele>296.7</ele>
        <time>2021-04-19T09:01:41Z</time>
      </trkpt>
      <trkpt lat="49.89481" lon="4.76754">
        <ele>293.8</ele>
        <time>2021-04-19T09:02:07Z</time>
      </trkpt>
      <trkpt lat="49.89481" lon="4.76763">
        <ele>294</ele>
        <time>2021-04-19T09:02:12Z</time>
      </trkpt>
      <trkpt lat="49.89483" lon="4.76778">
        <ele>295.8</ele>
        <time>2021-04-19T09:02:17Z</time>
      </trkpt>
      <trkpt lat="49.89485" lon="4.76786">
        <ele>297.5</ele>
        <time>2021-04-19T09:02:22Z</time>
      </trkpt>
      <trkpt lat="49.89488" lon="4.76793">
        <ele>300</ele>
        <time>2021-04-19T09:02:27Z</time>
      </trkpt>
      <trkpt lat="49.89491" lon="4.76798">
        <ele>298.1</ele>
        <time>2021-04-19T09:02:32Z</time>
      </trkpt>
      <trkpt lat="49.89491" lon="4.76806">
        <ele>301.9</ele>
        <time>2021-04-19T09:02:37Z</time>
      </trkpt>
      <trkpt lat="49.8949" lon="4.76813">
        <ele>303.8</ele>
        <time>2021-04-19T09:02:45Z</time>
      </trkpt>
      <trkpt lat="49.89491" lon="4.7682">
        <ele>304.6</ele>
        <time>2021-04-19T09:02:55Z</time>
      </trkpt>
      <trkpt lat="49.89493" lon="4.76828">
        <ele>297.5</ele>
        <time>2021-04-19T09:03:00Z</time>
      </trkpt>
      <trkpt lat="49.89495" lon="4.76837">
        <ele>297.6</ele>
        <time>2021-04-19T09:03:05Z</time>
      </trkpt>
      <trkpt lat="49.89496" lon="4.76844">
        <ele>298.7</ele>
        <time>2021-04-19T09:03:07Z</time>
      </trkpt>
      <trkpt lat="49.89497" lon="4.76852">
        <ele>297.6</ele>
        <time>2021-04-19T09:03:11Z</time>
      </trkpt>
      <trkpt lat="49.89497" lon="4.7686">
        <ele>297.2</ele>
        <time>2021-04-19T09:03:15Z</time>
      </trkpt>
      <trkpt lat="49.89497" lon="4.76869">
        <ele>297</ele>
        <time>2021-04-19T09:03:19Z</time>
      </trkpt>
      <trkpt lat="49.89498" lon="4.76878">
        <ele>295.7</ele>
        <time>2021-04-19T09:03:23Z</time>
      </trkpt>
      <trkpt lat="49.895" lon="4.76885">
        <ele>299.6</ele>
        <time>2021-04-19T09:03:30Z</time>
      </trkpt>
      <trkpt lat="49.89504" lon="4.7689">
        <ele>299.1</ele>
        <time>2021-04-19T09:03:54Z</time>
      </trkpt>
      <trkpt lat="49.89507" lon="4.76896">
        <ele>301</ele>
        <time>2021-04-19T09:04:06Z</time>
      </trkpt>
      <trkpt lat="49.8951" lon="4.76903">
        <ele>298.9</ele>
        <time>2021-04-19T09:04:12Z</time>
      </trkpt>
      <trkpt lat="49.89512" lon="4.76911">
        <ele>297</ele>
        <time>2021-04-19T09:04:16Z</time>
      </trkpt>
      <trkpt lat="49.89512" lon="4.76918">
        <ele>298.5</ele>
        <time>2021-04-19T09:04:20Z</time>
      </trkpt>
      <trkpt lat="49.89513" lon="4.76926">
        <ele>305.5</ele>
        <time>2021-04-19T09:04:28Z</time>
      </trkpt>
      <trkpt lat="49.89515" lon="4.76933">
        <ele>307.1</ele>
        <time>2021-04-19T09:04:34Z</time>
      </trkpt>
      <trkpt lat="49.89516" lon="4.76941">
        <ele>300.2</ele>
        <time>2021-04-19T09:04:39Z</time>
      </trkpt>
      <trkpt lat="49.89517" lon="4.7695">
        <ele>298.3</ele>
        <time>2021-04-19T09:04:44Z</time>
      </trkpt>
      <trkpt lat="49.89519" lon="4.76959">
        <ele>300.7</ele>
        <time>2021-04-19T09:04:47Z</time>
      </trkpt>
      <trkpt lat="49.89521" lon="4.76966">
        <ele>304.9</ele>
        <time>2021-04-19T09:04:51Z</time>
      </trkpt>
      <trkpt lat="49.89522" lon="4.76973">
        <ele>302</ele>
        <time>2021-04-19T09:04:55Z</time>
      </trkpt>
      <trkpt lat="49.89523" lon="4.7698">
        <ele>302.5</ele>
        <time>2021-04-19T09:05:02Z</time>
      </trkpt>
      <trkpt lat="49.89521" lon="4.76989">
        <ele>304.3</ele>
        <time>2021-04-19T09:05:14Z</time>
      </trkpt>
      <trkpt lat="49.89517" lon="4.77011">
        <ele>304.8</ele>
        <time>2021-04-19T09:05:22Z</time>
      </trkpt>
      <trkpt lat="49.89521" lon="4.77027">
        <ele>306</ele>
        <time>2021-04-19T09:05:28Z</time>
      </trkpt>
      <trkpt lat="49.89522" lon="4.77035">
        <ele>306.4</ele>
        <time>2021-04-19T09:05:33Z</time>
      </trkpt>
      <trkpt lat="49.89525" lon="4.77041">
        <ele>305.1</ele>
        <time>2021-04-19T09:05:36Z</time>
      </trkpt>
      <trkpt lat="49.89527" lon="4.77048">
        <ele>302.6</ele>
        <time>2021-04-19T09:05:42Z</time>
      </trkpt>
      <trkpt lat="49.89527" lon="4.77057">
        <ele>295.7</ele>
        <time>2021-04-19T09:05:49Z</time>
      </trkpt>
      <trkpt lat="49.89526" lon="4.77065">
        <ele>295.6</ele>
        <time>2021-04-19T09:05:52Z</time>
      </trkpt>
      <trkpt lat="49.89525" lon="4.77072">
        <ele>294.9</ele>
        <time>2021-04-19T09:05:55Z</time>
      </trkpt>
      <trkpt lat="49.89525" lon="4.7708">
        <ele>295.1</ele>
        <time>2021-04-19T09:05:58Z</time>
      </trkpt>
      <trkpt lat="49.89529" lon="4.77085">
        <ele>292.6</ele>
        <time>2021-04-19T09:06:04Z</time>
      </trkpt>
      <trkpt lat="49.89532" lon="4.7709">
        <ele>290.2</ele>
        <time>2021-04-19T09:06:11Z</time>
      </trkpt>
      <trkpt lat="49.89531" lon="4.77097">
        <ele>296.2</ele>
        <time>2021-04-19T09:06:23Z</time>
      </trkpt>
      <trkpt lat="49.89533" lon="4.77103">
        <ele>298.7</ele>
        <time>2021-04-19T09:06:38Z</time>
      </trkpt>
      <trkpt lat="49.8954" lon="4.77107">
        <ele>295.9</ele>
        <time>2021-04-19T09:08:26Z</time>
      </trkpt>
      <trkpt lat="49.89539" lon="4.771">
        <ele>299.3</ele>
        <time>2021-04-19T09:11:09Z</time>
      </trkpt>
      <trkpt lat="49.89534" lon="4.771">
        <ele>298.6</ele>
        <time>2021-04-19T09:11:19Z</time>
      </trkpt>
      <trkpt lat="49.89528" lon="4.77102">
        <ele>298.5</ele>
        <time>2021-04-19T09:11:24Z</time>
      </trkpt>
      <trkpt lat="49.89524" lon="4.77106">
        <ele>297.7</ele>
        <time>2021-04-19T09:11:32Z</time>
      </trkpt>
      <trkpt lat="49.8952" lon="4.77109">
        <ele>302.1</ele>
        <time>2021-04-19T09:11:47Z</time>
      </trkpt>
      <trkpt lat="49.89516" lon="4.77112">
        <ele>301.9</ele>
        <time>2021-04-19T09:11:54Z</time>
      </trkpt>
      <trkpt lat="49.89511" lon="4.77119">
        <ele>302.3</ele>
        <time>2021-04-19T09:11:59Z</time>
      </trkpt>
      <trkpt lat="49.89508" lon="4.77125">
        <ele>299.8</ele>
        <time>2021-04-19T09:12:04Z</time>
      </trkpt>
      <trkpt lat="49.89504" lon="4.7713">
        <ele>302.7</ele>
        <time>2021-04-19T09:12:09Z</time>
      </trkpt>
      <trkpt lat="49.89499" lon="4.77132">
        <ele>294.7</ele>
        <time>2021-04-19T09:12:15Z</time>
      </trkpt>
      <trkpt lat="49.89494" lon="4.77134">
        <ele>292.4</ele>
        <time>2021-04-19T09:12:22Z</time>
      </trkpt>
      <trkpt lat="49.89489" lon="4.77136">
        <ele>293.8</ele>
        <time>2021-04-19T09:12:26Z</time>
      </trkpt>
      <trkpt lat="49.89485" lon="4.77139">
        <ele>295.3</ele>
        <time>2021-04-19T09:12:32Z</time>
      </trkpt>
      <trkpt lat="49.89481" lon="4.77142">
        <ele>294.7</ele>
        <time>2021-04-19T09:12:40Z</time>
      </trkpt>
      <trkpt lat="49.89477" lon="4.77147">
        <ele>253.9</ele>
        <time>2021-04-19T09:12:46Z</time>
      </trkpt>
      <trkpt lat="49.89471" lon="4.7715">
        <ele>246.2</ele>
        <time>2021-04-19T09:12:51Z</time>
      </trkpt>
      <trkpt lat="49.89466" lon="4.77153">
        <ele>246.2</ele>
        <time>2021-04-19T09:12:56Z</time>
      </trkpt>
      <trkpt lat="49.89463" lon="4.77158">
        <ele>245</ele>
        <time>2021-04-19T09:13:00Z</time>
      </trkpt>
      <trkpt lat="49.89468" lon="4.77158">
        <ele>249.3</ele>
        <time>2021-04-19T09:13:13Z</time>
      </trkpt>
      <trkpt lat="49.89469" lon="4.77151">
        <ele>303.7</ele>
        <time>2021-04-19T09:13:19Z</time>
      </trkpt>
      <trkpt lat="49.89462" lon="4.7715">
        <ele>319.6</ele>
        <time>2021-04-19T09:13:23Z</time>
      </trkpt>
      <trkpt lat="49.89455" lon="4.77149">
        <ele>321.2</ele>
        <time>2021-04-19T09:13:26Z</time>
      </trkpt>
      <trkpt lat="49.89449" lon="4.77148">
        <ele>323</ele>
        <time>2021-04-19T09:13:28Z</time>
      </trkpt>
      <trkpt lat="49.89443" lon="4.77147">
        <ele>325.2</ele>
        <time>2021-04-19T09:13:31Z</time>
      </trkpt>
      <trkpt lat="49.89439" lon="4.77147">
        <ele>324.9</ele>
        <time>2021-04-19T09:13:34Z</time>
      </trkpt>
      <trkpt lat="49.89435" lon="4.77151">
        <ele>329</ele>
        <time>2021-04-19T09:13:39Z</time>
      </trkpt>
      <trkpt lat="49.89432" lon="4.77159">
        <ele>328.2</ele>
        <time>2021-04-19T09:13:44Z</time>
      </trkpt>
      <trkpt lat="49.89428" lon="4.77161">
        <ele>329.6</ele>
        <time>2021-04-19T09:13:47Z</time>
      </trkpt>
      <trkpt lat="49.89419" lon="4.77159">
        <ele>328.6</ele>
        <time>2021-04-19T09:13:50Z</time>
      </trkpt>
      <trkpt lat="49.89414" lon="4.7716">
        <ele>328.9</ele>
        <time>2021-04-19T09:13:53Z</time>
      </trkpt>
      <trkpt lat="49.89409" lon="4.77161">
        <ele>328.2</ele>
        <time>2021-04-19T09:13:57Z</time>
      </trkpt>
      <trkpt lat="49.89403" lon="4.77162">
        <ele>327.8</ele>
        <time>2021-04-19T09:14:03Z</time>
      </trkpt>
      <trkpt lat="49.89398" lon="4.77161">
        <ele>331.3</ele>
        <time>2021-04-19T09:14:07Z</time>
      </trkpt>
      <trkpt lat="49.89394" lon="4.77158">
        <ele>331.5</ele>
        <time>2021-04-19T09:14:11Z</time>
      </trkpt>
      <trkpt lat="49.89388" lon="4.77156">
        <ele>330.1</ele>
        <time>2021-04-19T09:14:16Z</time>
      </trkpt>
      <trkpt lat="49.89384" lon="4.77156">
        <ele>331.7</ele>
        <time>2021-04-19T09:14:21Z</time>
      </trkpt>
      <trkpt lat="49.89379" lon="4.77154">
        <ele>330.6</ele>
        <time>2021-04-19T09:14:27Z</time>
      </trkpt>
      <trkpt lat="49.89374" lon="4.77151">
        <ele>330.2</ele>
        <time>2021-04-19T09:14:35Z</time>
      </trkpt>
      <trkpt lat="49.89369" lon="4.77148">
        <ele>327.4</ele>
        <time>2021-04-19T09:14:40Z</time>
      </trkpt>
      <trkpt lat="49.89364" lon="4.77146">
        <ele>324.7</ele>
        <time>2021-04-19T09:14:45Z</time>
      </trkpt>
      <trkpt lat="49.8936" lon="4.77144">
        <ele>322.5</ele>
        <time>2021-04-19T09:14:49Z</time>
      </trkpt>
      <trkpt lat="49.89355" lon="4.77144">
        <ele>323</ele>
        <time>2021-04-19T09:14:53Z</time>
      </trkpt>
      <trkpt lat="49.8935" lon="4.77145">
        <ele>323.9</ele>
        <time>2021-04-19T09:14:58Z</time>
      </trkpt>
      <trkpt lat="49.89345" lon="4.77146">
        <ele>325</ele>
        <time>2021-04-19T09:15:05Z</time>
      </trkpt>
      <trkpt lat="49.8934" lon="4.77146">
        <ele>327</ele>
        <time>2021-04-19T09:15:12Z</time>
      </trkpt>
      <trkpt lat="49.89335" lon="4.77145">
        <ele>327.3</ele>
        <time>2021-04-19T09:15:17Z</time>
      </trkpt>
      <trkpt lat="49.8933" lon="4.77144">
        <ele>327.3</ele>
        <time>2021-04-19T09:15:22Z</time>
      </trkpt>
      <trkpt lat="49.89334" lon="4.77145">
        <ele>332.8</ele>
        <time>2021-04-19T09:15:30Z</time>
      </trkpt>
      <trkpt lat="49.8933" lon="4.77142">
        <ele>335.5</ele>
        <time>2021-04-19T09:15:43Z</time>
      </trkpt>
      <trkpt lat="49.89325" lon="4.7714">
        <ele>336.8</ele>
        <time>2021-04-19T09:15:47Z</time>
      </trkpt>
      <trkpt lat="49.8932" lon="4.77136">
        <ele>336.5</ele>
        <time>2021-04-19T09:15:51Z</time>
      </trkpt>
      <trkpt lat="49.89315" lon="4.77132">
        <ele>340.7</ele>
        <time>2021-04-19T09:15:55Z</time>
      </trkpt>
      <trkpt lat="49.8931" lon="4.77129">
        <ele>339.4</ele>
        <time>2021-04-19T09:15:58Z</time>
      </trkpt>
      <trkpt lat="49.89305" lon="4.77127">
        <ele>335.5</ele>
        <time>2021-04-19T09:16:01Z</time>
      </trkpt>
      <trkpt lat="49.89301" lon="4.77125">
        <ele>335.1</ele>
        <time>2021-04-19T09:16:04Z</time>
      </trkpt>
      <trkpt lat="49.89295" lon="4.77122">
        <ele>336.9</ele>
        <time>2021-04-19T09:16:08Z</time>
      </trkpt>
      <trkpt lat="49.8929" lon="4.7712">
        <ele>338.2</ele>
        <time>2021-04-19T09:16:11Z</time>
      </trkpt>
      <trkpt lat="49.89285" lon="4.77115">
        <ele>339.4</ele>
        <time>2021-04-19T09:16:15Z</time>
      </trkpt>
      <trkpt lat="49.89281" lon="4.77111">
        <ele>337.5</ele>
        <time>2021-04-19T09:16:20Z</time>
      </trkpt>
      <trkpt lat="49.89278" lon="4.77105">
        <ele>339.7</ele>
        <time>2021-04-19T09:16:25Z</time>
      </trkpt>
      <trkpt lat="49.89274" lon="4.771">
        <ele>341.3</ele>
        <time>2021-04-19T09:16:32Z</time>
      </trkpt>
      <trkpt lat="49.89271" lon="4.77094">
        <ele>340.5</ele>
        <time>2021-04-19T09:16:39Z</time>
      </trkpt>
      <trkpt lat="49.89267" lon="4.7709">
        <ele>343.6</ele>
        <time>2021-04-19T09:16:45Z</time>
      </trkpt>
      <trkpt lat="49.89264" lon="4.77085">
        <ele>346.8</ele>
        <time>2021-04-19T09:16:53Z</time>
      </trkpt>
      <trkpt lat="49.8926" lon="4.77081">
        <ele>346.5</ele>
        <time>2021-04-19T09:17:00Z</time>
      </trkpt>
      <trkpt lat="49.89255" lon="4.77079">
        <ele>349.6</ele>
        <time>2021-04-19T09:17:05Z</time>
      </trkpt>
      <trkpt lat="49.89249" lon="4.77079">
        <ele>350.4</ele>
        <time>2021-04-19T09:17:08Z</time>
      </trkpt>
      <trkpt lat="49.89244" lon="4.77078">
        <ele>350.5</ele>
        <time>2021-04-19T09:17:12Z</time>
      </trkpt>
      <trkpt lat="49.89239" lon="4.77079">
        <ele>350.3</ele>
        <time>2021-04-19T09:17:15Z</time>
      </trkpt>
      <trkpt lat="49.89233" lon="4.7708">
        <ele>347.9</ele>
        <time>2021-04-19T09:17:19Z</time>
      </trkpt>
      <trkpt lat="49.89229" lon="4.77079">
        <ele>346.1</ele>
        <time>2021-04-19T09:17:21Z</time>
      </trkpt>
      <trkpt lat="49.89223" lon="4.77079">
        <ele>346.4</ele>
        <time>2021-04-19T09:17:25Z</time>
      </trkpt>
      <trkpt lat="49.89218" lon="4.7708">
        <ele>343.7</ele>
        <time>2021-04-19T09:17:29Z</time>
      </trkpt>
      <trkpt lat="49.89212" lon="4.77083">
        <ele>340.7</ele>
        <time>2021-04-19T09:17:33Z</time>
      </trkpt>
      <trkpt lat="49.89206" lon="4.77086">
        <ele>340.2</ele>
        <time>2021-04-19T09:17:39Z</time>
      </trkpt>
      <trkpt lat="49.89202" lon="4.77089">
        <ele>341.1</ele>
        <time>2021-04-19T09:17:43Z</time>
      </trkpt>
      <trkpt lat="49.89198" lon="4.77095">
        <ele>341.1</ele>
        <time>2021-04-19T09:17:47Z</time>
      </trkpt>
      <trkpt lat="49.89193" lon="4.77099">
        <ele>341</ele>
        <time>2021-04-19T09:17:52Z</time>
      </trkpt>
      <trkpt lat="49.89189" lon="4.77102">
        <ele>340.1</ele>
        <time>2021-04-19T09:17:55Z</time>
      </trkpt>
      <trkpt lat="49.89183" lon="4.77105">
        <ele>344.2</ele>
        <time>2021-04-19T09:18:00Z</time>
      </trkpt>
      <trkpt lat="49.89179" lon="4.77108">
        <ele>345</ele>
        <time>2021-04-19T09:18:05Z</time>
      </trkpt>
      <trkpt lat="49.89176" lon="4.77115">
        <ele>347</ele>
        <time>2021-04-19T09:18:12Z</time>
      </trkpt>
      <trkpt lat="49.89177" lon="4.77124">
        <ele>346.2</ele>
        <time>2021-04-19T09:18:18Z</time>
      </trkpt>
      <trkpt lat="49.89179" lon="4.77131">
        <ele>347.9</ele>
        <time>2021-04-19T09:18:23Z</time>
      </trkpt>
      <trkpt lat="49.8918" lon="4.77137">
        <ele>347.6</ele>
        <time>2021-04-19T09:18:28Z</time>
      </trkpt>
      <trkpt lat="49.89182" lon="4.77144">
        <ele>349.1</ele>
        <time>2021-04-19T09:18:32Z</time>
      </trkpt>
      <trkpt lat="49.89184" lon="4.77152">
        <ele>349.6</ele>
        <time>2021-04-19T09:18:37Z</time>
      </trkpt>
      <trkpt lat="49.89185" lon="4.77158">
        <ele>346.1</ele>
        <time>2021-04-19T09:18:41Z</time>
      </trkpt>
      <trkpt lat="49.89186" lon="4.77167">
        <ele>344</ele>
        <time>2021-04-19T09:18:45Z</time>
      </trkpt>
      <trkpt lat="49.89187" lon="4.77177">
        <ele>340.5</ele>
        <time>2021-04-19T09:18:49Z</time>
      </trkpt>
      <trkpt lat="49.89188" lon="4.77186">
        <ele>340.3</ele>
        <time>2021-04-19T09:18:53Z</time>
      </trkpt>
      <trkpt lat="49.89189" lon="4.77193">
        <ele>340.9</ele>
        <time>2021-04-19T09:18:57Z</time>
      </trkpt>
      <trkpt lat="49.8919" lon="4.77202">
        <ele>341.4</ele>
        <time>2021-04-19T09:19:02Z</time>
      </trkpt>
      <trkpt lat="49.89192" lon="4.7721">
        <ele>342.8</ele>
        <time>2021-04-19T09:19:06Z</time>
      </trkpt>
      <trkpt lat="49.89194" lon="4.77217">
        <ele>346</ele>
        <time>2021-04-19T09:19:11Z</time>
      </trkpt>
      <trkpt lat="49.89197" lon="4.77223">
        <ele>347.2</ele>
        <time>2021-04-19T09:19:16Z</time>
      </trkpt>
      <trkpt lat="49.89201" lon="4.77228">
        <ele>345.7</ele>
        <time>2021-04-19T09:19:23Z</time>
      </trkpt>
      <trkpt lat="49.89205" lon="4.77236">
        <ele>348.4</ele>
        <time>2021-04-19T09:19:30Z</time>
      </trkpt>
      <trkpt lat="49.89208" lon="4.77242">
        <ele>347</ele>
        <time>2021-04-19T09:19:34Z</time>
      </trkpt>
      <trkpt lat="49.89209" lon="4.77262">
        <ele>344.7</ele>
        <time>2021-04-19T09:19:41Z</time>
      </trkpt>
      <trkpt lat="49.8921" lon="4.77269">
        <ele>344.5</ele>
        <time>2021-04-19T09:19:45Z</time>
      </trkpt>
      <trkpt lat="49.89211" lon="4.77276">
        <ele>342.3</ele>
        <time>2021-04-19T09:19:52Z</time>
      </trkpt>
      <trkpt lat="49.89211" lon="4.77284">
        <ele>341.1</ele>
        <time>2021-04-19T09:19:59Z</time>
      </trkpt>
      <trkpt lat="49.89213" lon="4.77292">
        <ele>341</ele>
        <time>2021-04-19T09:20:04Z</time>
      </trkpt>
      <trkpt lat="49.89215" lon="4.77301">
        <ele>342.4</ele>
        <time>2021-04-19T09:20:09Z</time>
      </trkpt>
      <trkpt lat="49.89218" lon="4.77308">
        <ele>342</ele>
        <time>2021-04-19T09:20:14Z</time>
      </trkpt>
      <trkpt lat="49.89221" lon="4.77314">
        <ele>344.3</ele>
        <time>2021-04-19T09:20:19Z</time>
      </trkpt>
      <trkpt lat="49.89224" lon="4.7732">
        <ele>343.3</ele>
        <time>2021-04-19T09:20:24Z</time>
      </trkpt>
      <trkpt lat="49.89227" lon="4.77327">
        <ele>347.8</ele>
        <time>2021-04-19T09:20:30Z</time>
      </trkpt>
      <trkpt lat="49.89229" lon="4.77334">
        <ele>347.7</ele>
        <time>2021-04-19T09:20:35Z</time>
      </trkpt>
      <trkpt lat="49.89231" lon="4.77341">
        <ele>347.9</ele>
        <time>2021-04-19T09:20:39Z</time>
      </trkpt>
      <trkpt lat="49.89232" lon="4.77349">
        <ele>348</ele>
        <time>2021-04-19T09:20:45Z</time>
      </trkpt>
      <trkpt lat="49.89233" lon="4.77356">
        <ele>346.7</ele>
        <time>2021-04-19T09:20:50Z</time>
      </trkpt>
      <trkpt lat="49.89234" lon="4.77363">
        <ele>346.9</ele>
        <time>2021-04-19T09:20:54Z</time>
      </trkpt>
      <trkpt lat="49.89233" lon="4.77372">
        <ele>348.4</ele>
        <time>2021-04-19T09:20:59Z</time>
      </trkpt>
      <trkpt lat="49.89234" lon="4.7738">
        <ele>348.5</ele>
        <time>2021-04-19T09:21:03Z</time>
      </trkpt>
      <trkpt lat="49.89235" lon="4.77386">
        <ele>347.1</ele>
        <time>2021-04-19T09:21:07Z</time>
      </trkpt>
      <trkpt lat="49.89238" lon="4.77394">
        <ele>349.7</ele>
        <time>2021-04-19T09:21:13Z</time>
      </trkpt>
      <trkpt lat="49.89241" lon="4.774">
        <ele>352.4</ele>
        <time>2021-04-19T09:21:22Z</time>
      </trkpt>
      <trkpt lat="49.89243" lon="4.77407">
        <ele>351</ele>
        <time>2021-04-19T09:21:28Z</time>
      </trkpt>
      <trkpt lat="49.89245" lon="4.77415">
        <ele>350.7</ele>
        <time>2021-04-19T09:21:33Z</time>
      </trkpt>
      <trkpt lat="49.89247" lon="4.77423">
        <ele>351.9</ele>
        <time>2021-04-19T09:21:37Z</time>
      </trkpt>
      <trkpt lat="49.89249" lon="4.77429">
        <ele>356.7</ele>
        <time>2021-04-19T09:21:42Z</time>
      </trkpt>
      <trkpt lat="49.89252" lon="4.77436">
        <ele>356.5</ele>
        <time>2021-04-19T09:21:47Z</time>
      </trkpt>
      <trkpt lat="49.89254" lon="4.77442">
        <ele>349.3</ele>
        <time>2021-04-19T09:21:52Z</time>
      </trkpt>
      <trkpt lat="49.89256" lon="4.77452">
        <ele>348.6</ele>
        <time>2021-04-19T09:21:56Z</time>
      </trkpt>
      <trkpt lat="49.89258" lon="4.77461">
        <ele>349.9</ele>
        <time>2021-04-19T09:22:01Z</time>
      </trkpt>
      <trkpt lat="49.89259" lon="4.77468">
        <ele>350.4</ele>
        <time>2021-04-19T09:22:04Z</time>
      </trkpt>
      <trkpt lat="49.89261" lon="4.77476">
        <ele>352.5</ele>
        <time>2021-04-19T09:22:09Z</time>
      </trkpt>
      <trkpt lat="49.89262" lon="4.77483">
        <ele>352.2</ele>
        <time>2021-04-19T09:22:16Z</time>
      </trkpt>
      <trkpt lat="49.89264" lon="4.7749">
        <ele>354.7</ele>
        <time>2021-04-19T09:22:24Z</time>
      </trkpt>
      <trkpt lat="49.89266" lon="4.77497">
        <ele>351.1</ele>
        <time>2021-04-19T09:22:33Z</time>
      </trkpt>
      <trkpt lat="49.89267" lon="4.77504">
        <ele>353.7</ele>
        <time>2021-04-19T09:22:37Z</time>
      </trkpt>
      <trkpt lat="49.89268" lon="4.77512">
        <ele>354.6</ele>
        <time>2021-04-19T09:22:42Z</time>
      </trkpt>
      <trkpt lat="49.89269" lon="4.77522">
        <ele>356.1</ele>
        <time>2021-04-19T09:22:48Z</time>
      </trkpt>
      <trkpt lat="49.89269" lon="4.7753">
        <ele>353.6</ele>
        <time>2021-04-19T09:22:52Z</time>
      </trkpt>
      <trkpt lat="49.8927" lon="4.77538">
        <ele>353.9</ele>
        <time>2021-04-19T09:22:58Z</time>
      </trkpt>
      <trkpt lat="49.89273" lon="4.77544">
        <ele>353.6</ele>
        <time>2021-04-19T09:23:09Z</time>
      </trkpt>
      <trkpt lat="49.89276" lon="4.77551">
        <ele>353.9</ele>
        <time>2021-04-19T09:23:15Z</time>
      </trkpt>
      <trkpt lat="49.89281" lon="4.77558">
        <ele>354.5</ele>
        <time>2021-04-19T09:23:17Z</time>
      </trkpt>
      <trkpt lat="49.89285" lon="4.77553">
        <ele>353.8</ele>
        <time>2021-04-19T09:23:20Z</time>
      </trkpt>
      <trkpt lat="49.89282" lon="4.77548">
        <ele>354.2</ele>
        <time>2021-04-19T09:23:22Z</time>
      </trkpt>
      <trkpt lat="49.89276" lon="4.77549">
        <ele>353.8</ele>
        <time>2021-04-19T09:23:26Z</time>
      </trkpt>
      <trkpt lat="49.89274" lon="4.77555">
        <ele>355</ele>
        <time>2021-04-19T09:23:30Z</time>
      </trkpt>
      <trkpt lat="49.8927" lon="4.77561">
        <ele>358.4</ele>
        <time>2021-04-19T09:23:40Z</time>
      </trkpt>
      <trkpt lat="49.89268" lon="4.77567">
        <ele>356.7</ele>
        <time>2021-04-19T09:23:57Z</time>
      </trkpt>
      <trkpt lat="49.89269" lon="4.77576">
        <ele>357.3</ele>
        <time>2021-04-19T09:24:03Z</time>
      </trkpt>
      <trkpt lat="49.8927" lon="4.77583">
        <ele>354.9</ele>
        <time>2021-04-19T09:24:07Z</time>
      </trkpt>
      <trkpt lat="49.89271" lon="4.7759">
        <ele>355.8</ele>
        <time>2021-04-19T09:24:10Z</time>
      </trkpt>
      <trkpt lat="49.89273" lon="4.77598">
        <ele>356</ele>
        <time>2021-04-19T09:24:13Z</time>
      </trkpt>
      <trkpt lat="49.89273" lon="4.77605">
        <ele>356.3</ele>
        <time>2021-04-19T09:24:16Z</time>
      </trkpt>
      <trkpt lat="49.89275" lon="4.77613">
        <ele>355.8</ele>
        <time>2021-04-19T09:24:20Z</time>
      </trkpt>
      <trkpt lat="49.89276" lon="4.7762">
        <ele>356.9</ele>
        <time>2021-04-19T09:24:24Z</time>
      </trkpt>
      <trkpt lat="49.89278" lon="4.77627">
        <ele>358.3</ele>
        <time>2021-04-19T09:24:29Z</time>
      </trkpt>
      <trkpt lat="49.89279" lon="4.77634">
        <ele>356.8</ele>
        <time>2021-04-19T09:24:36Z</time>
      </trkpt>
      <trkpt lat="49.89279" lon="4.77648">
        <ele>359.3</ele>
        <time>2021-04-19T09:24:44Z</time>
      </trkpt>
      <trkpt lat="49.89279" lon="4.77656">
        <ele>361.6</ele>
        <time>2021-04-19T09:24:49Z</time>
      </trkpt>
      <trkpt lat="49.8928" lon="4.77664">
        <ele>361.2</ele>
        <time>2021-04-19T09:24:54Z</time>
      </trkpt>
      <trkpt lat="49.8928" lon="4.77672">
        <ele>362.2</ele>
        <time>2021-04-19T09:24:59Z</time>
      </trkpt>
      <trkpt lat="49.89281" lon="4.77679">
        <ele>361.1</ele>
        <time>2021-04-19T09:25:03Z</time>
      </trkpt>
      <trkpt lat="49.89283" lon="4.77687">
        <ele>361.9</ele>
        <time>2021-04-19T09:25:07Z</time>
      </trkpt>
      <trkpt lat="49.89284" lon="4.77694">
        <ele>360.8</ele>
        <time>2021-04-19T09:25:12Z</time>
      </trkpt>
      <trkpt lat="49.89284" lon="4.77702">
        <ele>359.9</ele>
        <time>2021-04-19T09:25:17Z</time>
      </trkpt>
      <trkpt lat="49.89283" lon="4.77711">
        <ele>362</ele>
        <time>2021-04-19T09:25:22Z</time>
      </trkpt>
      <trkpt lat="49.89282" lon="4.77719">
        <ele>361.6</ele>
        <time>2021-04-19T09:25:26Z</time>
      </trkpt>
      <trkpt lat="49.89283" lon="4.77727">
        <ele>361.2</ele>
        <time>2021-04-19T09:25:33Z</time>
      </trkpt>
      <trkpt lat="49.89284" lon="4.77735">
        <ele>360.8</ele>
        <time>2021-04-19T09:25:41Z</time>
      </trkpt>
      <trkpt lat="49.89284" lon="4.77743">
        <ele>362</ele>
        <time>2021-04-19T09:25:45Z</time>
      </trkpt>
      <trkpt lat="49.89284" lon="4.7775">
        <ele>360.8</ele>
        <time>2021-04-19T09:25:48Z</time>
      </trkpt>
      <trkpt lat="49.89285" lon="4.77759">
        <ele>361</ele>
        <time>2021-04-19T09:25:52Z</time>
      </trkpt>
      <trkpt lat="49.89286" lon="4.77768">
        <ele>361.1</ele>
        <time>2021-04-19T09:25:57Z</time>
      </trkpt>
      <trkpt lat="49.89288" lon="4.77777">
        <ele>360</ele>
        <time>2021-04-19T09:26:02Z</time>
      </trkpt>
      <trkpt lat="49.89289" lon="4.77784">
        <ele>359.5</ele>
        <time>2021-04-19T09:26:07Z</time>
      </trkpt>
      <trkpt lat="49.8929" lon="4.77793">
        <ele>362.8</ele>
        <time>2021-04-19T09:26:12Z</time>
      </trkpt>
      <trkpt lat="49.8929" lon="4.77801">
        <ele>364.3</ele>
        <time>2021-04-19T09:26:17Z</time>
      </trkpt>
      <trkpt lat="49.89292" lon="4.77809">
        <ele>365.1</ele>
        <time>2021-04-19T09:26:23Z</time>
      </trkpt>
      <trkpt lat="49.89296" lon="4.77814">
        <ele>364.2</ele>
        <time>2021-04-19T09:26:31Z</time>
      </trkpt>
      <trkpt lat="49.89296" lon="4.77821">
        <ele>367.2</ele>
        <time>2021-04-19T09:26:41Z</time>
      </trkpt>
      <trkpt lat="49.89298" lon="4.77828">
        <ele>367.3</ele>
        <time>2021-04-19T09:26:46Z</time>
      </trkpt>
      <trkpt lat="49.89299" lon="4.77835">
        <ele>367.1</ele>
        <time>2021-04-19T09:26:51Z</time>
      </trkpt>
      <trkpt lat="49.89299" lon="4.77842">
        <ele>368.5</ele>
        <time>2021-04-19T09:26:54Z</time>
      </trkpt>
      <trkpt lat="49.89298" lon="4.77851">
        <ele>371.1</ele>
        <time>2021-04-19T09:26:58Z</time>
      </trkpt>
      <trkpt lat="49.89298" lon="4.77859">
        <ele>371.4</ele>
        <time>2021-04-19T09:27:03Z</time>
      </trkpt>
      <trkpt lat="49.89297" lon="4.77866">
        <ele>369.3</ele>
        <time>2021-04-19T09:27:06Z</time>
      </trkpt>
      <trkpt lat="49.89297" lon="4.77874">
        <ele>367.9</ele>
        <time>2021-04-19T09:27:10Z</time>
      </trkpt>
      <trkpt lat="49.89296" lon="4.77882">
        <ele>367.3</ele>
        <time>2021-04-19T09:27:13Z</time>
      </trkpt>
      <trkpt lat="49.89294" lon="4.77889">
        <ele>366.8</ele>
        <time>2021-04-19T09:27:17Z</time>
      </trkpt>
      <trkpt lat="49.89292" lon="4.77898">
        <ele>365.5</ele>
        <time>2021-04-19T09:27:21Z</time>
      </trkpt>
      <trkpt lat="49.8929" lon="4.77906">
        <ele>367.2</ele>
        <time>2021-04-19T09:27:25Z</time>
      </trkpt>
      <trkpt lat="49.89287" lon="4.77912">
        <ele>366.6</ele>
        <time>2021-04-19T09:27:30Z</time>
      </trkpt>
      <trkpt lat="49.89279" lon="4.77927">
        <ele>368.9</ele>
        <time>2021-04-19T09:27:36Z</time>
      </trkpt>
      <trkpt lat="49.89278" lon="4.77943">
        <ele>369.9</ele>
        <time>2021-04-19T09:27:41Z</time>
      </trkpt>
      <trkpt lat="49.89276" lon="4.77951">
        <ele>367.3</ele>
        <time>2021-04-19T09:27:46Z</time>
      </trkpt>
      <trkpt lat="49.89273" lon="4.77958">
        <ele>373.8</ele>
        <time>2021-04-19T09:27:51Z</time>
      </trkpt>
      <trkpt lat="49.8927" lon="4.77965">
        <ele>373.2</ele>
        <time>2021-04-19T09:27:56Z</time>
      </trkpt>
      <trkpt lat="49.89267" lon="4.7797">
        <ele>373</ele>
        <time>2021-04-19T09:28:00Z</time>
      </trkpt>
      <trkpt lat="49.89263" lon="4.77983">
        <ele>374.1</ele>
        <time>2021-04-19T09:28:07Z</time>
      </trkpt>
      <trkpt lat="49.89262" lon="4.7799">
        <ele>374.9</ele>
        <time>2021-04-19T09:28:11Z</time>
      </trkpt>
      <trkpt lat="49.89261" lon="4.77998">
        <ele>372.5</ele>
        <time>2021-04-19T09:28:17Z</time>
      </trkpt>
      <trkpt lat="49.89259" lon="4.78005">
        <ele>375.1</ele>
        <time>2021-04-19T09:28:23Z</time>
      </trkpt>
      <trkpt lat="49.89258" lon="4.78012">
        <ele>376.4</ele>
        <time>2021-04-19T09:28:29Z</time>
      </trkpt>
      <trkpt lat="49.89256" lon="4.78019">
        <ele>373.4</ele>
        <time>2021-04-19T09:28:33Z</time>
      </trkpt>
      <trkpt lat="49.89255" lon="4.78028">
        <ele>375.4</ele>
        <time>2021-04-19T09:28:39Z</time>
      </trkpt>
      <trkpt lat="49.89254" lon="4.78036">
        <ele>375.5</ele>
        <time>2021-04-19T09:28:45Z</time>
      </trkpt>
      <trkpt lat="49.89255" lon="4.78044">
        <ele>377</ele>
        <time>2021-04-19T09:28:52Z</time>
      </trkpt>
      <trkpt lat="49.89256" lon="4.78051">
        <ele>375.9</ele>
        <time>2021-04-19T09:28:57Z</time>
      </trkpt>
      <trkpt lat="49.89257" lon="4.78059">
        <ele>375.9</ele>
        <time>2021-04-19T09:29:02Z</time>
      </trkpt>
      <trkpt lat="49.89255" lon="4.78066">
        <ele>375.1</ele>
        <time>2021-04-19T09:29:06Z</time>
      </trkpt>
      <trkpt lat="49.89254" lon="4.78074">
        <ele>375.7</ele>
        <time>2021-04-19T09:29:10Z</time>
      </trkpt>
      <trkpt lat="49.89252" lon="4.78082">
        <ele>374.1</ele>
        <time>2021-04-19T09:29:14Z</time>
      </trkpt>
      <trkpt lat="49.8925" lon="4.7809">
        <ele>374</ele>
        <time>2021-04-19T09:29:19Z</time>
      </trkpt>
      <trkpt lat="49.89248" lon="4.78099">
        <ele>379.6</ele>
        <time>2021-04-19T09:29:24Z</time>
      </trkpt>
      <trkpt lat="49.89249" lon="4.78114">
        <ele>382.3</ele>
        <time>2021-04-19T09:29:29Z</time>
      </trkpt>
      <trkpt lat="49.89249" lon="4.78123">
        <ele>385.7</ele>
        <time>2021-04-19T09:29:33Z</time>
      </trkpt>
      <trkpt lat="49.89247" lon="4.78129">
        <ele>381.1</ele>
        <time>2021-04-19T09:29:38Z</time>
      </trkpt>
      <trkpt lat="49.89244" lon="4.78135">
        <ele>383.2</ele>
        <time>2021-04-19T09:29:43Z</time>
      </trkpt>
      <trkpt lat="49.89241" lon="4.78141">
        <ele>385.2</ele>
        <time>2021-04-19T09:29:48Z</time>
      </trkpt>
      <trkpt lat="49.89239" lon="4.78149">
        <ele>386.5</ele>
        <time>2021-04-19T09:29:54Z</time>
      </trkpt>
      <trkpt lat="49.89237" lon="4.78156">
        <ele>387.8</ele>
        <time>2021-04-19T09:29:57Z</time>
      </trkpt>
      <trkpt lat="49.89234" lon="4.78162">
        <ele>388.6</ele>
        <time>2021-04-19T09:30:02Z</time>
      </trkpt>
      <trkpt lat="49.89231" lon="4.78168">
        <ele>398.1</ele>
        <time>2021-04-19T09:30:08Z</time>
      </trkpt>
      <trkpt lat="49.89229" lon="4.78176">
        <ele>399.9</ele>
        <time>2021-04-19T09:30:13Z</time>
      </trkpt>
      <trkpt lat="49.89229" lon="4.78185">
        <ele>399.4</ele>
        <time>2021-04-19T09:30:18Z</time>
      </trkpt>
      <trkpt lat="49.8923" lon="4.78194">
        <ele>397.7</ele>
        <time>2021-04-19T09:30:24Z</time>
      </trkpt>
      <trkpt lat="49.89232" lon="4.78202">
        <ele>397.4</ele>
        <time>2021-04-19T09:30:28Z</time>
      </trkpt>
      <trkpt lat="49.89235" lon="4.78208">
        <ele>397.1</ele>
        <time>2021-04-19T09:30:33Z</time>
      </trkpt>
      <trkpt lat="49.89239" lon="4.78215">
        <ele>396</ele>
        <time>2021-04-19T09:30:38Z</time>
      </trkpt>
      <trkpt lat="49.89242" lon="4.78222">
        <ele>367.9</ele>
        <time>2021-04-19T09:30:43Z</time>
      </trkpt>
      <trkpt lat="49.89246" lon="4.78227">
        <ele>369.8</ele>
        <time>2021-04-19T09:30:46Z</time>
      </trkpt>
      <trkpt lat="49.89249" lon="4.78233">
        <ele>366.1</ele>
        <time>2021-04-19T09:30:50Z</time>
      </trkpt>
      <trkpt lat="49.89252" lon="4.78238">
        <ele>366.6</ele>
        <time>2021-04-19T09:30:54Z</time>
      </trkpt>
      <trkpt lat="49.89255" lon="4.78244">
        <ele>366.2</ele>
        <time>2021-04-19T09:30:58Z</time>
      </trkpt>
      <trkpt lat="49.89257" lon="4.78252">
        <ele>363.8</ele>
        <time>2021-04-19T09:31:03Z</time>
      </trkpt>
      <trkpt lat="49.89258" lon="4.78261">
        <ele>374.4</ele>
        <time>2021-04-19T09:31:08Z</time>
      </trkpt>
      <trkpt lat="49.89259" lon="4.7827">
        <ele>374.4</ele>
        <time>2021-04-19T09:31:13Z</time>
      </trkpt>
      <trkpt lat="49.8926" lon="4.78277">
        <ele>374.1</ele>
        <time>2021-04-19T09:31:17Z</time>
      </trkpt>
      <trkpt lat="49.8926" lon="4.78285">
        <ele>372.3</ele>
        <time>2021-04-19T09:31:22Z</time>
      </trkpt>
      <trkpt lat="49.89258" lon="4.78292">
        <ele>375.3</ele>
        <time>2021-04-19T09:31:28Z</time>
      </trkpt>
      <trkpt lat="49.89254" lon="4.78297">
        <ele>368.5</ele>
        <time>2021-04-19T09:31:33Z</time>
      </trkpt>
      <trkpt lat="49.8925" lon="4.78302">
        <ele>374.1</ele>
        <time>2021-04-19T09:31:37Z</time>
      </trkpt>
      <trkpt lat="49.89247" lon="4.78307">
        <ele>375.4</ele>
        <time>2021-04-19T09:31:42Z</time>
      </trkpt>
      <trkpt lat="49.89242" lon="4.78312">
        <ele>374.9</ele>
        <time>2021-04-19T09:31:46Z</time>
      </trkpt>
      <trkpt lat="49.89227" lon="4.78316">
        <ele>372.1</ele>
        <time>2021-04-19T09:31:55Z</time>
      </trkpt>
      <trkpt lat="49.89223" lon="4.78319">
        <ele>371.7</ele>
        <time>2021-04-19T09:31:59Z</time>
      </trkpt>
      <trkpt lat="49.89218" lon="4.78322">
        <ele>374.4</ele>
        <time>2021-04-19T09:32:02Z</time>
      </trkpt>
      <trkpt lat="49.89213" lon="4.78327">
        <ele>373.2</ele>
        <time>2021-04-19T09:32:07Z</time>
      </trkpt>
      <trkpt lat="49.89211" lon="4.78333">
        <ele>369.8</ele>
        <time>2021-04-19T09:32:10Z</time>
      </trkpt>
      <trkpt lat="49.89207" lon="4.78338">
        <ele>369.1</ele>
        <time>2021-04-19T09:32:14Z</time>
      </trkpt>
      <trkpt lat="49.89205" lon="4.78346">
        <ele>369.6</ele>
        <time>2021-04-19T09:32:21Z</time>
      </trkpt>
      <trkpt lat="49.89204" lon="4.78353">
        <ele>367.8</ele>
        <time>2021-04-19T09:32:26Z</time>
      </trkpt>
      <trkpt lat="49.89203" lon="4.7836">
        <ele>372.8</ele>
        <time>2021-04-19T09:32:32Z</time>
      </trkpt>
      <trkpt lat="49.89199" lon="4.78364">
        <ele>373.8</ele>
        <time>2021-04-19T09:32:37Z</time>
      </trkpt>
      <trkpt lat="49.89194" lon="4.78367">
        <ele>371.6</ele>
        <time>2021-04-19T09:32:41Z</time>
      </trkpt>
      <trkpt lat="49.89186" lon="4.78362">
        <ele>375.2</ele>
        <time>2021-04-19T09:32:46Z</time>
      </trkpt>
      <trkpt lat="49.89182" lon="4.78363">
        <ele>374.1</ele>
        <time>2021-04-19T09:32:51Z</time>
      </trkpt>
      <trkpt lat="49.89179" lon="4.78372">
        <ele>373.1</ele>
        <time>2021-04-19T09:32:57Z</time>
      </trkpt>
      <trkpt lat="49.89174" lon="4.78375">
        <ele>374.6</ele>
        <time>2021-04-19T09:33:01Z</time>
      </trkpt>
      <trkpt lat="49.8917" lon="4.78373">
        <ele>378</ele>
        <time>2021-04-19T09:33:05Z</time>
      </trkpt>
      <trkpt lat="49.89164" lon="4.78372">
        <ele>369</ele>
        <time>2021-04-19T09:33:09Z</time>
      </trkpt>
      <trkpt lat="49.8916" lon="4.78375">
        <ele>370.3</ele>
        <time>2021-04-19T09:33:13Z</time>
      </trkpt>
      <trkpt lat="49.89155" lon="4.7838">
        <ele>372.6</ele>
        <time>2021-04-19T09:33:17Z</time>
      </trkpt>
      <trkpt lat="49.89151" lon="4.78382">
        <ele>370.9</ele>
        <time>2021-04-19T09:33:20Z</time>
      </trkpt>
      <trkpt lat="49.89146" lon="4.78383">
        <ele>366.7</ele>
        <time>2021-04-19T09:33:24Z</time>
      </trkpt>
      <trkpt lat="49.89141" lon="4.78383">
        <ele>371.3</ele>
        <time>2021-04-19T09:33:28Z</time>
      </trkpt>
      <trkpt lat="49.89135" lon="4.78382">
        <ele>403.9</ele>
        <time>2021-04-19T09:33:32Z</time>
      </trkpt>
      <trkpt lat="49.89131" lon="4.78376">
        <ele>402.8</ele>
        <time>2021-04-19T09:33:37Z</time>
      </trkpt>
      <trkpt lat="49.89126" lon="4.78374">
        <ele>402.2</ele>
        <time>2021-04-19T09:33:42Z</time>
      </trkpt>
      <trkpt lat="49.89121" lon="4.78369">
        <ele>404.2</ele>
        <time>2021-04-19T09:33:46Z</time>
      </trkpt>
      <trkpt lat="49.89118" lon="4.78362">
        <ele>405</ele>
        <time>2021-04-19T09:33:50Z</time>
      </trkpt>
      <trkpt lat="49.89115" lon="4.78353">
        <ele>403.8</ele>
        <time>2021-04-19T09:33:54Z</time>
      </trkpt>
      <trkpt lat="49.89113" lon="4.78346">
        <ele>402.7</ele>
        <time>2021-04-19T09:33:57Z</time>
      </trkpt>
      <trkpt lat="49.89109" lon="4.78342">
        <ele>404</ele>
        <time>2021-04-19T09:34:02Z</time>
      </trkpt>
      <trkpt lat="49.89106" lon="4.78336">
        <ele>404.1</ele>
        <time>2021-04-19T09:34:21Z</time>
      </trkpt>
      <trkpt lat="49.89102" lon="4.78338">
        <ele>404.6</ele>
        <time>2021-04-19T09:35:26Z</time>
      </trkpt>
      <trkpt lat="49.89101" lon="4.78345">
        <ele>404.6</ele>
        <time>2021-04-19T09:36:43Z</time>
      </trkpt>
      <trkpt lat="49.891" lon="4.78353">
        <ele>406.1</ele>
        <time>2021-04-19T09:36:51Z</time>
      </trkpt>
      <trkpt lat="49.89098" lon="4.78361">
        <ele>405.4</ele>
        <time>2021-04-19T09:36:56Z</time>
      </trkpt>
      <trkpt lat="49.89097" lon="4.78369">
        <ele>404.6</ele>
        <time>2021-04-19T09:37:08Z</time>
      </trkpt>
      <trkpt lat="49.89093" lon="4.78375">
        <ele>403.9</ele>
        <time>2021-04-19T09:37:13Z</time>
      </trkpt>
      <trkpt lat="49.8909" lon="4.78381">
        <ele>403.8</ele>
        <time>2021-04-19T09:37:17Z</time>
      </trkpt>
      <trkpt lat="49.89085" lon="4.78382">
        <ele>404</ele>
        <time>2021-04-19T09:37:22Z</time>
      </trkpt>
      <trkpt lat="49.89081" lon="4.78388">
        <ele>403.7</ele>
        <time>2021-04-19T09:37:26Z</time>
      </trkpt>
      <trkpt lat="49.89079" lon="4.78395">
        <ele>404.2</ele>
        <time>2021-04-19T09:37:31Z</time>
      </trkpt>
      <trkpt lat="49.89077" lon="4.78403">
        <ele>403.9</ele>
        <time>2021-04-19T09:37:36Z</time>
      </trkpt>
      <trkpt lat="49.89072" lon="4.78405">
        <ele>406.2</ele>
        <time>2021-04-19T09:37:42Z</time>
      </trkpt>
      <trkpt lat="49.89068" lon="4.78399">
        <ele>407.6</ele>
        <time>2021-04-19T09:37:48Z</time>
      </trkpt>
      <trkpt lat="49.89057" lon="4.78394">
        <ele>404.7</ele>
        <time>2021-04-19T09:37:58Z</time>
      </trkpt>
      <trkpt lat="49.89052" lon="4.78397">
        <ele>405.3</ele>
        <time>2021-04-19T09:38:01Z</time>
      </trkpt>
      <trkpt lat="49.89047" lon="4.78398">
        <ele>404.4</ele>
        <time>2021-04-19T09:38:05Z</time>
      </trkpt>
      <trkpt lat="49.89043" lon="4.78394">
        <ele>385.9</ele>
        <time>2021-04-19T09:38:09Z</time>
      </trkpt>
      <trkpt lat="49.89038" lon="4.78389">
        <ele>378.6</ele>
        <time>2021-04-19T09:38:13Z</time>
      </trkpt>
      <trkpt lat="49.89032" lon="4.78384">
        <ele>384.6</ele>
        <time>2021-04-19T09:38:17Z</time>
      </trkpt>
      <trkpt lat="49.89027" lon="4.78386">
        <ele>396.1</ele>
        <time>2021-04-19T09:38:22Z</time>
      </trkpt>
      <trkpt lat="49.89023" lon="4.78389">
        <ele>395.2</ele>
        <time>2021-04-19T09:38:32Z</time>
      </trkpt>
      <trkpt lat="49.8902" lon="4.78394">
        <ele>398.5</ele>
        <time>2021-04-19T09:39:38Z</time>
      </trkpt>
      <trkpt lat="49.89024" lon="4.78395">
        <ele>301.9</ele>
        <time>2021-04-19T09:45:11Z</time>
      </trkpt>
      <trkpt lat="49.89024" lon="4.78387">
        <ele>394.3</ele>
        <time>2021-04-19T09:48:57Z</time>
      </trkpt>
      <trkpt lat="49.89021" lon="4.78393">
        <ele>402.4</ele>
        <time>2021-04-19T09:49:23Z</time>
      </trkpt>
      <trkpt lat="49.89022" lon="4.78402">
        <ele>403.3</ele>
        <time>2021-04-19T09:49:26Z</time>
      </trkpt>
      <trkpt lat="49.89024" lon="4.78408">
        <ele>404.3</ele>
        <time>2021-04-19T09:50:15Z</time>
      </trkpt>
      <trkpt lat="49.89022" lon="4.78397">
        <ele>399.7</ele>
        <time>2021-04-19T09:50:24Z</time>
      </trkpt>
      <trkpt lat="49.89025" lon="4.78403">
        <ele>405.5</ele>
        <time>2021-04-19T09:50:26Z</time>
      </trkpt>
      <trkpt lat="49.89029" lon="4.78407">
        <ele>404</ele>
        <time>2021-04-19T09:50:30Z</time>
      </trkpt>
      <trkpt lat="49.89025" lon="4.78404">
        <ele>402.7</ele>
        <time>2021-04-19T09:51:15Z</time>
      </trkpt>
      <trkpt lat="49.89022" lon="4.78398">
        <ele>399.4</ele>
        <time>2021-04-19T09:54:08Z</time>
      </trkpt>
      <trkpt lat="49.89025" lon="4.78393">
        <ele>405.9</ele>
        <time>2021-04-19T10:11:32Z</time>
      </trkpt>
      <trkpt lat="49.89031" lon="4.78394">
        <ele>403.5</ele>
        <time>2021-04-19T10:17:00Z</time>
      </trkpt>
      <trkpt lat="49.89036" lon="4.78396">
        <ele>403.9</ele>
        <time>2021-04-19T10:17:22Z</time>
      </trkpt>
      <trkpt lat="49.8904" lon="4.784">
        <ele>406.5</ele>
        <time>2021-04-19T10:18:28Z</time>
      </trkpt>
      <trkpt lat="49.89045" lon="4.78403">
        <ele>404.5</ele>
        <time>2021-04-19T10:18:36Z</time>
      </trkpt>
      <trkpt lat="49.89049" lon="4.78409">
        <ele>404.2</ele>
        <time>2021-04-19T10:18:47Z</time>
      </trkpt>
      <trkpt lat="49.89054" lon="4.7841">
        <ele>403.5</ele>
        <time>2021-04-19T10:18:53Z</time>
      </trkpt>
      <trkpt lat="49.89059" lon="4.78409">
        <ele>404.5</ele>
        <time>2021-04-19T10:19:12Z</time>
      </trkpt>
      <trkpt lat="49.89064" lon="4.7841">
        <ele>403.8</ele>
        <time>2021-04-19T10:19:27Z</time>
      </trkpt>
      <trkpt lat="49.89069" lon="4.78413">
        <ele>402.2</ele>
        <time>2021-04-19T10:19:43Z</time>
      </trkpt>
      <trkpt lat="49.89074" lon="4.78416">
        <ele>402.9</ele>
        <time>2021-04-19T10:19:50Z</time>
      </trkpt>
      <trkpt lat="49.89078" lon="4.78418">
        <ele>404.1</ele>
        <time>2021-04-19T10:20:01Z</time>
      </trkpt>
      <trkpt lat="49.89084" lon="4.7842">
        <ele>404.8</ele>
        <time>2021-04-19T10:20:10Z</time>
      </trkpt>
      <trkpt lat="49.89089" lon="4.78421">
        <ele>406.4</ele>
        <time>2021-04-19T10:20:15Z</time>
      </trkpt>
      <trkpt lat="49.89087" lon="4.78427">
        <ele>402</ele>
        <time>2021-04-19T10:20:50Z</time>
      </trkpt>
      <trkpt lat="49.89083" lon="4.78431">
        <ele>402</ele>
        <time>2021-04-19T10:21:02Z</time>
      </trkpt>
      <trkpt lat="49.89079" lon="4.78436">
        <ele>400.9</ele>
        <time>2021-04-19T10:21:07Z</time>
      </trkpt>
      <trkpt lat="49.89076" lon="4.78441">
        <ele>400.9</ele>
        <time>2021-04-19T10:21:13Z</time>
      </trkpt>
      <trkpt lat="49.89071" lon="4.78446">
        <ele>399.7</ele>
        <time>2021-04-19T10:21:19Z</time>
      </trkpt>
      <trkpt lat="49.89066" lon="4.78447">
        <ele>399.6</ele>
        <time>2021-04-19T10:21:26Z</time>
      </trkpt>
      <trkpt lat="49.89062" lon="4.78444">
        <ele>400.2</ele>
        <time>2021-04-19T10:21:37Z</time>
      </trkpt>
      <trkpt lat="49.89061" lon="4.78452">
        <ele>399.5</ele>
        <time>2021-04-19T10:22:12Z</time>
      </trkpt>
      <trkpt lat="49.89059" lon="4.78458">
        <ele>399.6</ele>
        <time>2021-04-19T10:22:27Z</time>
      </trkpt>
      <trkpt lat="49.89056" lon="4.78464">
        <ele>400.2</ele>
        <time>2021-04-19T10:22:31Z</time>
      </trkpt>
      <trkpt lat="49.89051" lon="4.78469">
        <ele>400.8</ele>
        <time>2021-04-19T10:22:35Z</time>
      </trkpt>
      <trkpt lat="49.89046" lon="4.78473">
        <ele>399.8</ele>
        <time>2021-04-19T10:22:41Z</time>
      </trkpt>
      <trkpt lat="49.89042" lon="4.78479">
        <ele>400.1</ele>
        <time>2021-04-19T10:22:47Z</time>
      </trkpt>
      <trkpt lat="49.89038" lon="4.78484">
        <ele>402.5</ele>
        <time>2021-04-19T10:22:54Z</time>
      </trkpt>
      <trkpt lat="49.89034" lon="4.78487">
        <ele>402.7</ele>
        <time>2021-04-19T10:23:04Z</time>
      </trkpt>
      <trkpt lat="49.89029" lon="4.78489">
        <ele>399.5</ele>
        <time>2021-04-19T10:23:12Z</time>
      </trkpt>
      <trkpt lat="49.89024" lon="4.7849">
        <ele>398.2</ele>
        <time>2021-04-19T10:23:17Z</time>
      </trkpt>
      <trkpt lat="49.89017" lon="4.78493">
        <ele>399.3</ele>
        <time>2021-04-19T10:23:22Z</time>
      </trkpt>
      <trkpt lat="49.89012" lon="4.78495">
        <ele>398.6</ele>
        <time>2021-04-19T10:23:27Z</time>
      </trkpt>
      <trkpt lat="49.89006" lon="4.78497">
        <ele>399.8</ele>
        <time>2021-04-19T10:23:33Z</time>
      </trkpt>
      <trkpt lat="49.89001" lon="4.78496">
        <ele>398.6</ele>
        <time>2021-04-19T10:23:40Z</time>
      </trkpt>
      <trkpt lat="49.88997" lon="4.78494">
        <ele>398.6</ele>
        <time>2021-04-19T10:23:44Z</time>
      </trkpt>
      <trkpt lat="49.88992" lon="4.78497">
        <ele>398.2</ele>
        <time>2021-04-19T10:23:48Z</time>
      </trkpt>
      <trkpt lat="49.88988" lon="4.78501">
        <ele>397.9</ele>
        <time>2021-04-19T10:23:52Z</time>
      </trkpt>
      <trkpt lat="49.88983" lon="4.78503">
        <ele>400.4</ele>
        <time>2021-04-19T10:23:57Z</time>
      </trkpt>
      <trkpt lat="49.8898" lon="4.78507">
        <ele>394.6</ele>
        <time>2021-04-19T10:24:06Z</time>
      </trkpt>
      <trkpt lat="49.88974" lon="4.78508">
        <ele>396.6</ele>
        <time>2021-04-19T10:24:12Z</time>
      </trkpt>
      <trkpt lat="49.8897" lon="4.78512">
        <ele>397.6</ele>
        <time>2021-04-19T10:24:16Z</time>
      </trkpt>
      <trkpt lat="49.88965" lon="4.78514">
        <ele>395.2</ele>
        <time>2021-04-19T10:24:20Z</time>
      </trkpt>
      <trkpt lat="49.8896" lon="4.78515">
        <ele>397.7</ele>
        <time>2021-04-19T10:24:24Z</time>
      </trkpt>
      <trkpt lat="49.88954" lon="4.78516">
        <ele>398.9</ele>
        <time>2021-04-19T10:24:31Z</time>
      </trkpt>
      <trkpt lat="49.88949" lon="4.78517">
        <ele>397.1</ele>
        <time>2021-04-19T10:24:36Z</time>
      </trkpt>
      <trkpt lat="49.88943" lon="4.78517">
        <ele>397.6</ele>
        <time>2021-04-19T10:24:40Z</time>
      </trkpt>
      <trkpt lat="49.88938" lon="4.78516">
        <ele>398.5</ele>
        <time>2021-04-19T10:24:46Z</time>
      </trkpt>
      <trkpt lat="49.88933" lon="4.78516">
        <ele>398.4</ele>
        <time>2021-04-19T10:24:53Z</time>
      </trkpt>
      <trkpt lat="49.88929" lon="4.78519">
        <ele>398.1</ele>
        <time>2021-04-19T10:25:17Z</time>
      </trkpt>
      <trkpt lat="49.88922" lon="4.78521">
        <ele>397.3</ele>
        <time>2021-04-19T10:25:21Z</time>
      </trkpt>
      <trkpt lat="49.88916" lon="4.78523">
        <ele>398.1</ele>
        <time>2021-04-19T10:25:25Z</time>
      </trkpt>
      <trkpt lat="49.88911" lon="4.78525">
        <ele>395.8</ele>
        <time>2021-04-19T10:25:29Z</time>
      </trkpt>
      <trkpt lat="49.88906" lon="4.78525">
        <ele>395.5</ele>
        <time>2021-04-19T10:25:34Z</time>
      </trkpt>
      <trkpt lat="49.88901" lon="4.78523">
        <ele>395.4</ele>
        <time>2021-04-19T10:25:38Z</time>
      </trkpt>
      <trkpt lat="49.88897" lon="4.78522">
        <ele>394</ele>
        <time>2021-04-19T10:25:49Z</time>
      </trkpt>
      <trkpt lat="49.88893" lon="4.78518">
        <ele>395.9</ele>
        <time>2021-04-19T10:26:21Z</time>
      </trkpt>
      <trkpt lat="49.88888" lon="4.78522">
        <ele>395.1</ele>
        <time>2021-04-19T10:26:51Z</time>
      </trkpt>
      <trkpt lat="49.88884" lon="4.78521">
        <ele>395</ele>
        <time>2021-04-19T10:27:11Z</time>
      </trkpt>
      <trkpt lat="49.88881" lon="4.78514">
        <ele>397</ele>
        <time>2021-04-19T10:28:36Z</time>
      </trkpt>
      <trkpt lat="49.88876" lon="4.78516">
        <ele>395.3</ele>
        <time>2021-04-19T10:29:51Z</time>
      </trkpt>
      <trkpt lat="49.88873" lon="4.78522">
        <ele>396.6</ele>
        <time>2021-04-19T10:30:00Z</time>
      </trkpt>
      <trkpt lat="49.88868" lon="4.78525">
        <ele>397.9</ele>
        <time>2021-04-19T10:30:05Z</time>
      </trkpt>
      <trkpt lat="49.88863" lon="4.78525">
        <ele>396.3</ele>
        <time>2021-04-19T10:30:10Z</time>
      </trkpt>
      <trkpt lat="49.88858" lon="4.78524">
        <ele>397.4</ele>
        <time>2021-04-19T10:30:17Z</time>
      </trkpt>
      <trkpt lat="49.88859" lon="4.78517">
        <ele>397.8</ele>
        <time>2021-04-19T10:30:52Z</time>
      </trkpt>
      <trkpt lat="49.88859" lon="4.7851">
        <ele>395.2</ele>
        <time>2021-04-19T10:32:09Z</time>
      </trkpt>
      <trkpt lat="49.88854" lon="4.7851">
        <ele>395.1</ele>
        <time>2021-04-19T10:32:38Z</time>
      </trkpt>
      <trkpt lat="49.88849" lon="4.7851">
        <ele>396.1</ele>
        <time>2021-04-19T10:32:46Z</time>
      </trkpt>
      <trkpt lat="49.88844" lon="4.78513">
        <ele>394.4</ele>
        <time>2021-04-19T10:32:50Z</time>
      </trkpt>
      <trkpt lat="49.8884" lon="4.78516">
        <ele>395.9</ele>
        <time>2021-04-19T10:32:54Z</time>
      </trkpt>
      <trkpt lat="49.88834" lon="4.78518">
        <ele>395.6</ele>
        <time>2021-04-19T10:32:59Z</time>
      </trkpt>
      <trkpt lat="49.88829" lon="4.78518">
        <ele>395.2</ele>
        <time>2021-04-19T10:33:04Z</time>
      </trkpt>
      <trkpt lat="49.88825" lon="4.7852">
        <ele>394.4</ele>
        <time>2021-04-19T10:33:12Z</time>
      </trkpt>
      <trkpt lat="49.8882" lon="4.7852">
        <ele>394.8</ele>
        <time>2021-04-19T10:33:17Z</time>
      </trkpt>
      <trkpt lat="49.88815" lon="4.7852">
        <ele>393.8</ele>
        <time>2021-04-19T10:33:22Z</time>
      </trkpt>
      <trkpt lat="49.88809" lon="4.78518">
        <ele>396.7</ele>
        <time>2021-04-19T10:33:28Z</time>
      </trkpt>
      <trkpt lat="49.88804" lon="4.78516">
        <ele>394.9</ele>
        <time>2021-04-19T10:33:33Z</time>
      </trkpt>
      <trkpt lat="49.88799" lon="4.78516">
        <ele>396.2</ele>
        <time>2021-04-19T10:33:39Z</time>
      </trkpt>
      <trkpt lat="49.88793" lon="4.78513">
        <ele>396.4</ele>
        <time>2021-04-19T10:33:44Z</time>
      </trkpt>
      <trkpt lat="49.88789" lon="4.78509">
        <ele>395.7</ele>
        <time>2021-04-19T10:33:49Z</time>
      </trkpt>
      <trkpt lat="49.88785" lon="4.78505">
        <ele>395.8</ele>
        <time>2021-04-19T10:33:59Z</time>
      </trkpt>
      <trkpt lat="49.88781" lon="4.78501">
        <ele>396.7</ele>
        <time>2021-04-19T10:34:54Z</time>
      </trkpt>
      <trkpt lat="49.88777" lon="4.78499">
        <ele>391.1</ele>
        <time>2021-04-19T10:35:25Z</time>
      </trkpt>
      <trkpt lat="49.88781" lon="4.78501">
        <ele>390.9</ele>
        <time>2021-04-19T10:39:06Z</time>
      </trkpt>
      <trkpt lat="49.88781" lon="4.78489">
        <ele>395.4</ele>
        <time>2021-04-19T10:43:03Z</time>
      </trkpt>
      <trkpt lat="49.88776" lon="4.78486">
        <ele>395.6</ele>
        <time>2021-04-19T10:43:10Z</time>
      </trkpt>
      <trkpt lat="49.8877" lon="4.78484">
        <ele>395.6</ele>
        <time>2021-04-19T10:43:20Z</time>
      </trkpt>
      <trkpt lat="49.88764" lon="4.78479">
        <ele>394.7</ele>
        <time>2021-04-19T10:43:24Z</time>
      </trkpt>
      <trkpt lat="49.88757" lon="4.78477">
        <ele>392.9</ele>
        <time>2021-04-19T10:43:27Z</time>
      </trkpt>
      <trkpt lat="49.88753" lon="4.78475">
        <ele>393.4</ele>
        <time>2021-04-19T10:43:30Z</time>
      </trkpt>
      <trkpt lat="49.88747" lon="4.78473">
        <ele>392.3</ele>
        <time>2021-04-19T10:43:33Z</time>
      </trkpt>
      <trkpt lat="49.88742" lon="4.78472">
        <ele>393.8</ele>
        <time>2021-04-19T10:43:36Z</time>
      </trkpt>
      <trkpt lat="49.88737" lon="4.78469">
        <ele>389.4</ele>
        <time>2021-04-19T10:43:43Z</time>
      </trkpt>
      <trkpt lat="49.88733" lon="4.78469">
        <ele>387</ele>
        <time>2021-04-19T10:43:48Z</time>
      </trkpt>
      <trkpt lat="49.88728" lon="4.78472">
        <ele>390.7</ele>
        <time>2021-04-19T10:43:54Z</time>
      </trkpt>
      <trkpt lat="49.88723" lon="4.78473">
        <ele>392.6</ele>
        <time>2021-04-19T10:44:39Z</time>
      </trkpt>
      <trkpt lat="49.88703" lon="4.78465">
        <ele>393</ele>
        <time>2021-04-19T10:44:46Z</time>
      </trkpt>
      <trkpt lat="49.88698" lon="4.78464">
        <ele>392.5</ele>
        <time>2021-04-19T10:44:52Z</time>
      </trkpt>
      <trkpt lat="49.88694" lon="4.78468">
        <ele>387.1</ele>
        <time>2021-04-19T10:45:00Z</time>
      </trkpt>
      <trkpt lat="49.88693" lon="4.78475">
        <ele>385.2</ele>
        <time>2021-04-19T10:45:14Z</time>
      </trkpt>
      <trkpt lat="49.8869" lon="4.7847">
        <ele>393.5</ele>
        <time>2021-04-19T10:46:01Z</time>
      </trkpt>
      <trkpt lat="49.88686" lon="4.78466">
        <ele>398.7</ele>
        <time>2021-04-19T10:46:23Z</time>
      </trkpt>
      <trkpt lat="49.88686" lon="4.78458">
        <ele>397</ele>
        <time>2021-04-19T10:46:35Z</time>
      </trkpt>
      <trkpt lat="49.88681" lon="4.78454">
        <ele>394.6</ele>
        <time>2021-04-19T10:46:44Z</time>
      </trkpt>
      <trkpt lat="49.88676" lon="4.78454">
        <ele>395.8</ele>
        <time>2021-04-19T10:46:49Z</time>
      </trkpt>
      <trkpt lat="49.88671" lon="4.78453">
        <ele>394.3</ele>
        <time>2021-04-19T10:46:54Z</time>
      </trkpt>
      <trkpt lat="49.88666" lon="4.78451">
        <ele>399.3</ele>
        <time>2021-04-19T10:46:59Z</time>
      </trkpt>
      <trkpt lat="49.88661" lon="4.78449">
        <ele>394.3</ele>
        <time>2021-04-19T10:47:07Z</time>
      </trkpt>
      <trkpt lat="49.88656" lon="4.78446">
        <ele>394.2</ele>
        <time>2021-04-19T10:47:13Z</time>
      </trkpt>
      <trkpt lat="49.88651" lon="4.78444">
        <ele>392.7</ele>
        <time>2021-04-19T10:47:16Z</time>
      </trkpt>
      <trkpt lat="49.88646" lon="4.78441">
        <ele>390.9</ele>
        <time>2021-04-19T10:47:19Z</time>
      </trkpt>
      <trkpt lat="49.88641" lon="4.7844">
        <ele>388.6</ele>
        <time>2021-04-19T10:47:23Z</time>
      </trkpt>
      <trkpt lat="49.88637" lon="4.7844">
        <ele>388.1</ele>
        <time>2021-04-19T10:47:28Z</time>
      </trkpt>
      <trkpt lat="49.88632" lon="4.78442">
        <ele>389.1</ele>
        <time>2021-04-19T10:47:41Z</time>
      </trkpt>
      <trkpt lat="49.88627" lon="4.78443">
        <ele>386.6</ele>
        <time>2021-04-19T10:47:48Z</time>
      </trkpt>
      <trkpt lat="49.88623" lon="4.78442">
        <ele>384.4</ele>
        <time>2021-04-19T10:48:03Z</time>
      </trkpt>
      <trkpt lat="49.88618" lon="4.78446">
        <ele>383.1</ele>
        <time>2021-04-19T10:49:26Z</time>
      </trkpt>
      <trkpt lat="49.88614" lon="4.78446">
        <ele>391.6</ele>
        <time>2021-04-19T10:49:52Z</time>
      </trkpt>
      <trkpt lat="49.88609" lon="4.78446">
        <ele>391.1</ele>
        <time>2021-04-19T10:50:00Z</time>
      </trkpt>
      <trkpt lat="49.88604" lon="4.78444">
        <ele>393.5</ele>
        <time>2021-04-19T10:50:02Z</time>
      </trkpt>
      <trkpt lat="49.88598" lon="4.78441">
        <ele>395</ele>
        <time>2021-04-19T10:50:06Z</time>
      </trkpt>
      <trkpt lat="49.88593" lon="4.7844">
        <ele>393.7</ele>
        <time>2021-04-19T10:50:09Z</time>
      </trkpt>
      <trkpt lat="49.88588" lon="4.78437">
        <ele>390.8</ele>
        <time>2021-04-19T10:50:13Z</time>
      </trkpt>
      <trkpt lat="49.88583" lon="4.78432">
        <ele>388</ele>
        <time>2021-04-19T10:50:19Z</time>
      </trkpt>
      <trkpt lat="49.88579" lon="4.78428">
        <ele>387.1</ele>
        <time>2021-04-19T10:50:24Z</time>
      </trkpt>
      <trkpt lat="49.88573" lon="4.78427">
        <ele>385</ele>
        <time>2021-04-19T10:50:29Z</time>
      </trkpt>
      <trkpt lat="49.88567" lon="4.78424">
        <ele>374.7</ele>
        <time>2021-04-19T10:50:33Z</time>
      </trkpt>
      <trkpt lat="49.88562" lon="4.78423">
        <ele>378.1</ele>
        <time>2021-04-19T10:50:41Z</time>
      </trkpt>
      <trkpt lat="49.88557" lon="4.78424">
        <ele>388.4</ele>
        <time>2021-04-19T10:51:00Z</time>
      </trkpt>
      <trkpt lat="49.88552" lon="4.78423">
        <ele>387.7</ele>
        <time>2021-04-19T10:51:04Z</time>
      </trkpt>
      <trkpt lat="49.88546" lon="4.78422">
        <ele>389.7</ele>
        <time>2021-04-19T10:51:09Z</time>
      </trkpt>
      <trkpt lat="49.8854" lon="4.78422">
        <ele>389.8</ele>
        <time>2021-04-19T10:51:13Z</time>
      </trkpt>
      <trkpt lat="49.88535" lon="4.78419">
        <ele>389</ele>
        <time>2021-04-19T10:51:16Z</time>
      </trkpt>
      <trkpt lat="49.8853" lon="4.78416">
        <ele>390.1</ele>
        <time>2021-04-19T10:51:20Z</time>
      </trkpt>
      <trkpt lat="49.88525" lon="4.78414">
        <ele>380.9</ele>
        <time>2021-04-19T10:51:25Z</time>
      </trkpt>
      <trkpt lat="49.8852" lon="4.78414">
        <ele>384.9</ele>
        <time>2021-04-19T10:51:28Z</time>
      </trkpt>
      <trkpt lat="49.88514" lon="4.78417">
        <ele>382.7</ele>
        <time>2021-04-19T10:51:32Z</time>
      </trkpt>
      <trkpt lat="49.88508" lon="4.78417">
        <ele>391.4</ele>
        <time>2021-04-19T10:51:36Z</time>
      </trkpt>
      <trkpt lat="49.88503" lon="4.78418">
        <ele>381.2</ele>
        <time>2021-04-19T10:51:44Z</time>
      </trkpt>
      <trkpt lat="49.88497" lon="4.78422">
        <ele>388.4</ele>
        <time>2021-04-19T10:51:50Z</time>
      </trkpt>
      <trkpt lat="49.88492" lon="4.78426">
        <ele>388</ele>
        <time>2021-04-19T10:51:55Z</time>
      </trkpt>
      <trkpt lat="49.88487" lon="4.78425">
        <ele>385.2</ele>
        <time>2021-04-19T10:52:06Z</time>
      </trkpt>
      <trkpt lat="49.88482" lon="4.78425">
        <ele>394</ele>
        <time>2021-04-19T10:52:11Z</time>
      </trkpt>
      <trkpt lat="49.88478" lon="4.78423">
        <ele>388.8</ele>
        <time>2021-04-19T10:52:13Z</time>
      </trkpt>
      <trkpt lat="49.88473" lon="4.78422">
        <ele>389.1</ele>
        <time>2021-04-19T10:52:15Z</time>
      </trkpt>
      <trkpt lat="49.88468" lon="4.78423">
        <ele>387</ele>
        <time>2021-04-19T10:52:19Z</time>
      </trkpt>
      <trkpt lat="49.88462" lon="4.78424">
        <ele>394.1</ele>
        <time>2021-04-19T10:52:23Z</time>
      </trkpt>
      <trkpt lat="49.88457" lon="4.78424">
        <ele>384.7</ele>
        <time>2021-04-19T10:52:29Z</time>
      </trkpt>
      <trkpt lat="49.88453" lon="4.78422">
        <ele>382.2</ele>
        <time>2021-04-19T10:52:47Z</time>
      </trkpt>
      <trkpt lat="49.88451" lon="4.78414">
        <ele>383.6</ele>
        <time>2021-04-19T10:52:55Z</time>
      </trkpt>
      <trkpt lat="49.88446" lon="4.7841">
        <ele>383.3</ele>
        <time>2021-04-19T10:53:03Z</time>
      </trkpt>
      <trkpt lat="49.88441" lon="4.78408">
        <ele>380.5</ele>
        <time>2021-04-19T10:53:07Z</time>
      </trkpt>
      <trkpt lat="49.88437" lon="4.78407">
        <ele>381.4</ele>
        <time>2021-04-19T10:53:11Z</time>
      </trkpt>
      <trkpt lat="49.88432" lon="4.78404">
        <ele>380.9</ele>
        <time>2021-04-19T10:53:16Z</time>
      </trkpt>
      <trkpt lat="49.8843" lon="4.78398">
        <ele>382.8</ele>
        <time>2021-04-19T10:53:29Z</time>
      </trkpt>
      <trkpt lat="49.88425" lon="4.78395">
        <ele>384.8</ele>
        <time>2021-04-19T10:53:37Z</time>
      </trkpt>
      <trkpt lat="49.88419" lon="4.78393">
        <ele>380.3</ele>
        <time>2021-04-19T10:53:43Z</time>
      </trkpt>
      <trkpt lat="49.88415" lon="4.78392">
        <ele>381.4</ele>
        <time>2021-04-19T10:53:47Z</time>
      </trkpt>
      <trkpt lat="49.88409" lon="4.78389">
        <ele>383.5</ele>
        <time>2021-04-19T10:53:52Z</time>
      </trkpt>
      <trkpt lat="49.88404" lon="4.78388">
        <ele>377.9</ele>
        <time>2021-04-19T10:53:57Z</time>
      </trkpt>
      <trkpt lat="49.88399" lon="4.78385">
        <ele>382.3</ele>
        <time>2021-04-19T10:54:03Z</time>
      </trkpt>
      <trkpt lat="49.88395" lon="4.78382">
        <ele>386.8</ele>
        <time>2021-04-19T10:54:09Z</time>
      </trkpt>
      <trkpt lat="49.88389" lon="4.78383">
        <ele>381.1</ele>
        <time>2021-04-19T10:54:18Z</time>
      </trkpt>
      <trkpt lat="49.88385" lon="4.78383">
        <ele>398.5</ele>
        <time>2021-04-19T10:54:31Z</time>
      </trkpt>
      <trkpt lat="49.8838" lon="4.78385">
        <ele>386.3</ele>
        <time>2021-04-19T10:54:43Z</time>
      </trkpt>
      <trkpt lat="49.88375" lon="4.78385">
        <ele>395.9</ele>
        <time>2021-04-19T10:54:57Z</time>
      </trkpt>
      <trkpt lat="49.8837" lon="4.78384">
        <ele>383.9</ele>
        <time>2021-04-19T10:55:23Z</time>
      </trkpt>
      <trkpt lat="49.88366" lon="4.78384">
        <ele>379.1</ele>
        <time>2021-04-19T10:55:28Z</time>
      </trkpt>
      <trkpt lat="49.88361" lon="4.78385">
        <ele>382.1</ele>
        <time>2021-04-19T10:55:31Z</time>
      </trkpt>
      <trkpt lat="49.88357" lon="4.78381">
        <ele>384.9</ele>
        <time>2021-04-19T10:55:35Z</time>
      </trkpt>
      <trkpt lat="49.8835" lon="4.78377">
        <ele>378.6</ele>
        <time>2021-04-19T10:55:41Z</time>
      </trkpt>
      <trkpt lat="49.88344" lon="4.78375">
        <ele>376.7</ele>
        <time>2021-04-19T10:55:44Z</time>
      </trkpt>
      <trkpt lat="49.8834" lon="4.78372">
        <ele>379.1</ele>
        <time>2021-04-19T10:55:48Z</time>
      </trkpt>
      <trkpt lat="49.88336" lon="4.78372">
        <ele>380.6</ele>
        <time>2021-04-19T10:55:51Z</time>
      </trkpt>
      <trkpt lat="49.88331" lon="4.78371">
        <ele>367.3</ele>
        <time>2021-04-19T10:55:55Z</time>
      </trkpt>
      <trkpt lat="49.88326" lon="4.78371">
        <ele>373.7</ele>
        <time>2021-04-19T10:56:02Z</time>
      </trkpt>
      <trkpt lat="49.88324" lon="4.78364">
        <ele>320.9</ele>
        <time>2021-04-19T10:58:07Z</time>
      </trkpt>
      <trkpt lat="49.88321" lon="4.78359">
        <ele>324.9</ele>
        <time>2021-04-19T10:58:12Z</time>
      </trkpt>
      <trkpt lat="49.88317" lon="4.78355">
        <ele>324.1</ele>
        <time>2021-04-19T10:58:17Z</time>
      </trkpt>
      <trkpt lat="49.88312" lon="4.78352">
        <ele>320.8</ele>
        <time>2021-04-19T10:58:22Z</time>
      </trkpt>
      <trkpt lat="49.88306" lon="4.78352">
        <ele>324.6</ele>
        <time>2021-04-19T10:58:27Z</time>
      </trkpt>
      <trkpt lat="49.88301" lon="4.78351">
        <ele>319.4</ele>
        <time>2021-04-19T10:58:32Z</time>
      </trkpt>
      <trkpt lat="49.88295" lon="4.78349">
        <ele>322.3</ele>
        <time>2021-04-19T10:58:37Z</time>
      </trkpt>
      <trkpt lat="49.8829" lon="4.78347">
        <ele>323.8</ele>
        <time>2021-04-19T10:58:42Z</time>
      </trkpt>
      <trkpt lat="49.88285" lon="4.78346">
        <ele>322.3</ele>
        <time>2021-04-19T10:58:46Z</time>
      </trkpt>
      <trkpt lat="49.88279" lon="4.78346">
        <ele>321.4</ele>
        <time>2021-04-19T10:58:52Z</time>
      </trkpt>
      <trkpt lat="49.88274" lon="4.78344">
        <ele>320.4</ele>
        <time>2021-04-19T10:58:57Z</time>
      </trkpt>
      <trkpt lat="49.88269" lon="4.78345">
        <ele>320.9</ele>
        <time>2021-04-19T10:59:03Z</time>
      </trkpt>
      <trkpt lat="49.88264" lon="4.78348">
        <ele>322</ele>
        <time>2021-04-19T10:59:18Z</time>
      </trkpt>
      <trkpt lat="49.8826" lon="4.78351">
        <ele>321.7</ele>
        <time>2021-04-19T10:59:27Z</time>
      </trkpt>
      <trkpt lat="49.88255" lon="4.78352">
        <ele>315</ele>
        <time>2021-04-19T10:59:32Z</time>
      </trkpt>
      <trkpt lat="49.8825" lon="4.78351">
        <ele>314.3</ele>
        <time>2021-04-19T10:59:37Z</time>
      </trkpt>
      <trkpt lat="49.88245" lon="4.78349">
        <ele>311.8</ele>
        <time>2021-04-19T10:59:42Z</time>
      </trkpt>
      <trkpt lat="49.88239" lon="4.78348">
        <ele>312.5</ele>
        <time>2021-04-19T10:59:47Z</time>
      </trkpt>
      <trkpt lat="49.88235" lon="4.78344">
        <ele>313.1</ele>
        <time>2021-04-19T10:59:51Z</time>
      </trkpt>
      <trkpt lat="49.88231" lon="4.7834">
        <ele>309.6</ele>
        <time>2021-04-19T10:59:56Z</time>
      </trkpt>
      <trkpt lat="49.88228" lon="4.78335">
        <ele>309.2</ele>
        <time>2021-04-19T11:00:02Z</time>
      </trkpt>
      <trkpt lat="49.88222" lon="4.78336">
        <ele>308.1</ele>
        <time>2021-04-19T11:00:07Z</time>
      </trkpt>
      <trkpt lat="49.88217" lon="4.78337">
        <ele>370.8</ele>
        <time>2021-04-19T11:00:15Z</time>
      </trkpt>
      <trkpt lat="49.88213" lon="4.78339">
        <ele>362.9</ele>
        <time>2021-04-19T11:00:22Z</time>
      </trkpt>
      <trkpt lat="49.88207" lon="4.78342">
        <ele>373.9</ele>
        <time>2021-04-19T11:00:27Z</time>
      </trkpt>
      <trkpt lat="49.88203" lon="4.78345">
        <ele>368.8</ele>
        <time>2021-04-19T11:00:33Z</time>
      </trkpt>
      <trkpt lat="49.88198" lon="4.78346">
        <ele>368.8</ele>
        <time>2021-04-19T11:00:37Z</time>
      </trkpt>
      <trkpt lat="49.88193" lon="4.78347">
        <ele>370.6</ele>
        <time>2021-04-19T11:00:45Z</time>
      </trkpt>
      <trkpt lat="49.88189" lon="4.78344">
        <ele>374.5</ele>
        <time>2021-04-19T11:00:55Z</time>
      </trkpt>
      <trkpt lat="49.88185" lon="4.78347">
        <ele>366.7</ele>
        <time>2021-04-19T11:00:58Z</time>
      </trkpt>
      <trkpt lat="49.8818" lon="4.78353">
        <ele>367.3</ele>
        <time>2021-04-19T11:01:08Z</time>
      </trkpt>
      <trkpt lat="49.88177" lon="4.78358">
        <ele>368.2</ele>
        <time>2021-04-19T11:01:11Z</time>
      </trkpt>
      <trkpt lat="49.88173" lon="4.78364">
        <ele>359</ele>
        <time>2021-04-19T11:01:17Z</time>
      </trkpt>
      <trkpt lat="49.88168" lon="4.78365">
        <ele>360</ele>
        <time>2021-04-19T11:01:21Z</time>
      </trkpt>
      <trkpt lat="49.88163" lon="4.78367">
        <ele>365.8</ele>
        <time>2021-04-19T11:01:28Z</time>
      </trkpt>
      <trkpt lat="49.88157" lon="4.78367">
        <ele>373.1</ele>
        <time>2021-04-19T11:01:34Z</time>
      </trkpt>
      <trkpt lat="49.88151" lon="4.78367">
        <ele>372.9</ele>
        <time>2021-04-19T11:01:38Z</time>
      </trkpt>
      <trkpt lat="49.88147" lon="4.78367">
        <ele>362.9</ele>
        <time>2021-04-19T11:01:49Z</time>
      </trkpt>
      <trkpt lat="49.88141" lon="4.78369">
        <ele>347</ele>
        <time>2021-04-19T11:01:54Z</time>
      </trkpt>
      <trkpt lat="49.88136" lon="4.78369">
        <ele>360</ele>
        <time>2021-04-19T11:02:00Z</time>
      </trkpt>
      <trkpt lat="49.88131" lon="4.78369">
        <ele>368.6</ele>
        <time>2021-04-19T11:02:07Z</time>
      </trkpt>
      <trkpt lat="49.88126" lon="4.78368">
        <ele>376.8</ele>
        <time>2021-04-19T11:02:11Z</time>
      </trkpt>
      <trkpt lat="49.88121" lon="4.7837">
        <ele>367.5</ele>
        <time>2021-04-19T11:02:16Z</time>
      </trkpt>
      <trkpt lat="49.88116" lon="4.78371">
        <ele>364.9</ele>
        <time>2021-04-19T11:02:20Z</time>
      </trkpt>
      <trkpt lat="49.88111" lon="4.78369">
        <ele>377.9</ele>
        <time>2021-04-19T11:02:25Z</time>
      </trkpt>
      <trkpt lat="49.88106" lon="4.78367">
        <ele>370.8</ele>
        <time>2021-04-19T11:02:28Z</time>
      </trkpt>
      <trkpt lat="49.88101" lon="4.78364">
        <ele>363.9</ele>
        <time>2021-04-19T11:02:32Z</time>
      </trkpt>
      <trkpt lat="49.88096" lon="4.78364">
        <ele>367.7</ele>
        <time>2021-04-19T11:02:42Z</time>
      </trkpt>
      <trkpt lat="49.88091" lon="4.78366">
        <ele>359.2</ele>
        <time>2021-04-19T11:02:56Z</time>
      </trkpt>
      <trkpt lat="49.88086" lon="4.78364">
        <ele>352.4</ele>
        <time>2021-04-19T11:03:00Z</time>
      </trkpt>
      <trkpt lat="49.88081" lon="4.78364">
        <ele>354.9</ele>
        <time>2021-04-19T11:03:03Z</time>
      </trkpt>
      <trkpt lat="49.88074" lon="4.78361">
        <ele>367</ele>
        <time>2021-04-19T11:03:07Z</time>
      </trkpt>
      <trkpt lat="49.88069" lon="4.78359">
        <ele>358.2</ele>
        <time>2021-04-19T11:03:15Z</time>
      </trkpt>
      <trkpt lat="49.88063" lon="4.78358">
        <ele>373.5</ele>
        <time>2021-04-19T11:03:25Z</time>
      </trkpt>
      <trkpt lat="49.88058" lon="4.78356">
        <ele>369.7</ele>
        <time>2021-04-19T11:03:31Z</time>
      </trkpt>
      <trkpt lat="49.88054" lon="4.78353">
        <ele>372.1</ele>
        <time>2021-04-19T11:03:35Z</time>
      </trkpt>
      <trkpt lat="49.88049" lon="4.78353">
        <ele>360.1</ele>
        <time>2021-04-19T11:03:39Z</time>
      </trkpt>
      <trkpt lat="49.88043" lon="4.78354">
        <ele>369.4</ele>
        <time>2021-04-19T11:03:44Z</time>
      </trkpt>
      <trkpt lat="49.88038" lon="4.78357">
        <ele>365.7</ele>
        <time>2021-04-19T11:03:50Z</time>
      </trkpt>
      <trkpt lat="49.88034" lon="4.78356">
        <ele>364.7</ele>
        <time>2021-04-19T11:03:56Z</time>
      </trkpt>
      <trkpt lat="49.88029" lon="4.78353">
        <ele>358.8</ele>
        <time>2021-04-19T11:04:00Z</time>
      </trkpt>
      <trkpt lat="49.88024" lon="4.78351">
        <ele>378</ele>
        <time>2021-04-19T11:04:04Z</time>
      </trkpt>
      <trkpt lat="49.88021" lon="4.78346">
        <ele>382</ele>
        <time>2021-04-19T11:04:08Z</time>
      </trkpt>
      <trkpt lat="49.88016" lon="4.78342">
        <ele>370.7</ele>
        <time>2021-04-19T11:04:11Z</time>
      </trkpt>
      <trkpt lat="49.8801" lon="4.78339">
        <ele>364.2</ele>
        <time>2021-04-19T11:04:15Z</time>
      </trkpt>
      <trkpt lat="49.88006" lon="4.78336">
        <ele>360.6</ele>
        <time>2021-04-19T11:04:19Z</time>
      </trkpt>
      <trkpt lat="49.88004" lon="4.78328">
        <ele>360.4</ele>
        <time>2021-04-19T11:04:27Z</time>
      </trkpt>
      <trkpt lat="49.88" lon="4.78331">
        <ele>340.6</ele>
        <time>2021-04-19T11:05:30Z</time>
      </trkpt>
      <trkpt lat="49.87995" lon="4.78333">
        <ele>359.3</ele>
        <time>2021-04-19T11:05:56Z</time>
      </trkpt>
      <trkpt lat="49.87991" lon="4.78337">
        <ele>375.5</ele>
        <time>2021-04-19T11:06:23Z</time>
      </trkpt>
      <trkpt lat="49.87988" lon="4.78345">
        <ele>369.7</ele>
        <time>2021-04-19T11:06:27Z</time>
      </trkpt>
      <trkpt lat="49.87986" lon="4.78354">
        <ele>372.9</ele>
        <time>2021-04-19T11:06:30Z</time>
      </trkpt>
      <trkpt lat="49.87986" lon="4.78362">
        <ele>373.1</ele>
        <time>2021-04-19T11:06:32Z</time>
      </trkpt>
      <trkpt lat="49.87984" lon="4.78369">
        <ele>380.6</ele>
        <time>2021-04-19T11:06:36Z</time>
      </trkpt>
      <trkpt lat="49.87979" lon="4.78372">
        <ele>362.5</ele>
        <time>2021-04-19T11:06:40Z</time>
      </trkpt>
      <trkpt lat="49.87974" lon="4.78375">
        <ele>367.2</ele>
        <time>2021-04-19T11:06:50Z</time>
      </trkpt>
      <trkpt lat="49.8797" lon="4.78378">
        <ele>376.1</ele>
        <time>2021-04-19T11:06:55Z</time>
      </trkpt>
      <trkpt lat="49.87965" lon="4.78381">
        <ele>373.4</ele>
        <time>2021-04-19T11:07:00Z</time>
      </trkpt>
      <trkpt lat="49.8796" lon="4.78383">
        <ele>362.5</ele>
        <time>2021-04-19T11:07:06Z</time>
      </trkpt>
      <trkpt lat="49.87959" lon="4.7839">
        <ele>363.6</ele>
        <time>2021-04-19T11:07:19Z</time>
      </trkpt>
      <trkpt lat="49.87954" lon="4.78395">
        <ele>369.1</ele>
        <time>2021-04-19T11:07:24Z</time>
      </trkpt>
      <trkpt lat="49.87948" lon="4.78398">
        <ele>357.9</ele>
        <time>2021-04-19T11:07:30Z</time>
      </trkpt>
      <trkpt lat="49.87943" lon="4.78399">
        <ele>356</ele>
        <time>2021-04-19T11:07:35Z</time>
      </trkpt>
      <trkpt lat="49.87937" lon="4.784">
        <ele>362.1</ele>
        <time>2021-04-19T11:07:39Z</time>
      </trkpt>
      <trkpt lat="49.87932" lon="4.78401">
        <ele>360</ele>
        <time>2021-04-19T11:07:43Z</time>
      </trkpt>
      <trkpt lat="49.87927" lon="4.78402">
        <ele>383.2</ele>
        <time>2021-04-19T11:07:48Z</time>
      </trkpt>
      <trkpt lat="49.87924" lon="4.78408">
        <ele>349.7</ele>
        <time>2021-04-19T11:08:05Z</time>
      </trkpt>
      <trkpt lat="49.87919" lon="4.78412">
        <ele>368.1</ele>
        <time>2021-04-19T11:08:12Z</time>
      </trkpt>
      <trkpt lat="49.87913" lon="4.78412">
        <ele>358.6</ele>
        <time>2021-04-19T11:08:19Z</time>
      </trkpt>
      <trkpt lat="49.87908" lon="4.78408">
        <ele>369.6</ele>
        <time>2021-04-19T11:08:24Z</time>
      </trkpt>
      <trkpt lat="49.87903" lon="4.78405">
        <ele>370.5</ele>
        <time>2021-04-19T11:08:27Z</time>
      </trkpt>
      <trkpt lat="49.87898" lon="4.78407">
        <ele>344.7</ele>
        <time>2021-04-19T11:08:33Z</time>
      </trkpt>
      <trkpt lat="49.87894" lon="4.78409">
        <ele>339.3</ele>
        <time>2021-04-19T11:08:47Z</time>
      </trkpt>
      <trkpt lat="49.87892" lon="4.78417">
        <ele>328.7</ele>
        <time>2021-04-19T11:09:18Z</time>
      </trkpt>
      <trkpt lat="49.87888" lon="4.78421">
        <ele>351.9</ele>
        <time>2021-04-19T11:09:38Z</time>
      </trkpt>
      <trkpt lat="49.87882" lon="4.78424">
        <ele>342.3</ele>
        <time>2021-04-19T11:09:45Z</time>
      </trkpt>
      <trkpt lat="49.87877" lon="4.78422">
        <ele>357.8</ele>
        <time>2021-04-19T11:09:59Z</time>
      </trkpt>
      <trkpt lat="49.87873" lon="4.78418">
        <ele>349.2</ele>
        <time>2021-04-19T11:10:18Z</time>
      </trkpt>
      <trkpt lat="49.87871" lon="4.78408">
        <ele>368.5</ele>
        <time>2021-04-19T11:10:23Z</time>
      </trkpt>
      <trkpt lat="49.87871" lon="4.78416">
        <ele>339.9</ele>
        <time>2021-04-19T11:10:31Z</time>
      </trkpt>
      <trkpt lat="49.87867" lon="4.78423">
        <ele>341.2</ele>
        <time>2021-04-19T11:10:39Z</time>
      </trkpt>
      <trkpt lat="49.87864" lon="4.78428">
        <ele>341.9</ele>
        <time>2021-04-19T11:10:43Z</time>
      </trkpt>
      <trkpt lat="49.8786" lon="4.78433">
        <ele>311.7</ele>
        <time>2021-04-19T11:10:47Z</time>
      </trkpt>
      <trkpt lat="49.87859" lon="4.7844">
        <ele>326.4</ele>
        <time>2021-04-19T11:10:54Z</time>
      </trkpt>
      <trkpt lat="49.87855" lon="4.78444">
        <ele>317.1</ele>
        <time>2021-04-19T11:11:00Z</time>
      </trkpt>
      <trkpt lat="49.87852" lon="4.7845">
        <ele>312</ele>
        <time>2021-04-19T11:11:08Z</time>
      </trkpt>
      <trkpt lat="49.8785" lon="4.78457">
        <ele>351.2</ele>
        <time>2021-04-19T11:11:30Z</time>
      </trkpt>
      <trkpt lat="49.87846" lon="4.78462">
        <ele>335.6</ele>
        <time>2021-04-19T11:11:37Z</time>
      </trkpt>
      <trkpt lat="49.87842" lon="4.78465">
        <ele>330.8</ele>
        <time>2021-04-19T11:11:40Z</time>
      </trkpt>
      <trkpt lat="49.87837" lon="4.78471">
        <ele>295</ele>
        <time>2021-04-19T11:11:47Z</time>
      </trkpt>
      <trkpt lat="49.87832" lon="4.78475">
        <ele>286.5</ele>
        <time>2021-04-19T11:11:51Z</time>
      </trkpt>
      <trkpt lat="49.87829" lon="4.78483">
        <ele>271.4</ele>
        <time>2021-04-19T11:11:55Z</time>
      </trkpt>
      <trkpt lat="49.87826" lon="4.78489">
        <ele>273.6</ele>
        <time>2021-04-19T11:11:59Z</time>
      </trkpt>
      <trkpt lat="49.87824" lon="4.78496">
        <ele>273.1</ele>
        <time>2021-04-19T11:12:06Z</time>
      </trkpt>
      <trkpt lat="49.87821" lon="4.78503">
        <ele>306.8</ele>
        <time>2021-04-19T11:12:11Z</time>
      </trkpt>
      <trkpt lat="49.87819" lon="4.78511">
        <ele>309.4</ele>
        <time>2021-04-19T11:12:15Z</time>
      </trkpt>
      <trkpt lat="49.87817" lon="4.7852">
        <ele>302.9</ele>
        <time>2021-04-19T11:12:20Z</time>
      </trkpt>
      <trkpt lat="49.87813" lon="4.78527">
        <ele>311.7</ele>
        <time>2021-04-19T11:12:24Z</time>
      </trkpt>
      <trkpt lat="49.8781" lon="4.78534">
        <ele>284.2</ele>
        <time>2021-04-19T11:12:26Z</time>
      </trkpt>
      <trkpt lat="49.87807" lon="4.78539">
        <ele>300.2</ele>
        <time>2021-04-19T11:12:29Z</time>
      </trkpt>
      <trkpt lat="49.87804" lon="4.78546">
        <ele>317</ele>
        <time>2021-04-19T11:12:33Z</time>
      </trkpt>
      <trkpt lat="49.87801" lon="4.78553">
        <ele>322</ele>
        <time>2021-04-19T11:12:37Z</time>
      </trkpt>
      <trkpt lat="49.878" lon="4.7856">
        <ele>321.1</ele>
        <time>2021-04-19T11:12:40Z</time>
      </trkpt>
      <trkpt lat="49.878" lon="4.78567">
        <ele>332.4</ele>
        <time>2021-04-19T11:12:52Z</time>
      </trkpt>
      <trkpt lat="49.878" lon="4.78575">
        <ele>330.7</ele>
        <time>2021-04-19T11:12:55Z</time>
      </trkpt>
      <trkpt lat="49.87802" lon="4.78582">
        <ele>352.2</ele>
        <time>2021-04-19T11:14:25Z</time>
      </trkpt>
      <trkpt lat="49.87804" lon="4.78572">
        <ele>320.2</ele>
        <time>2021-04-19T11:14:43Z</time>
      </trkpt>
      <trkpt lat="49.87804" lon="4.78562">
        <ele>329.5</ele>
        <time>2021-04-19T11:14:46Z</time>
      </trkpt>
      <trkpt lat="49.87799" lon="4.7856">
        <ele>330.2</ele>
        <time>2021-04-19T11:14:48Z</time>
      </trkpt>
      <trkpt lat="49.87794" lon="4.78562">
        <ele>332.3</ele>
        <time>2021-04-19T11:14:50Z</time>
      </trkpt>
      <trkpt lat="49.87789" lon="4.78568">
        <ele>344.1</ele>
        <time>2021-04-19T11:14:54Z</time>
      </trkpt>
      <trkpt lat="49.87785" lon="4.78574">
        <ele>341.9</ele>
        <time>2021-04-19T11:14:59Z</time>
      </trkpt>
      <trkpt lat="49.87783" lon="4.78582">
        <ele>346.3</ele>
        <time>2021-04-19T11:15:04Z</time>
      </trkpt>
      <trkpt lat="49.87781" lon="4.78588">
        <ele>357.8</ele>
        <time>2021-04-19T11:15:11Z</time>
      </trkpt>
      <trkpt lat="49.87778" lon="4.78593">
        <ele>322.5</ele>
        <time>2021-04-19T11:15:25Z</time>
      </trkpt>
      <trkpt lat="49.87773" lon="4.78594">
        <ele>367.2</ele>
        <time>2021-04-19T11:16:12Z</time>
      </trkpt>
      <trkpt lat="49.87769" lon="4.78593">
        <ele>338</ele>
        <time>2021-04-19T11:16:17Z</time>
      </trkpt>
      <trkpt lat="49.87765" lon="4.78587">
        <ele>307.9</ele>
        <time>2021-04-19T11:16:22Z</time>
      </trkpt>
      <trkpt lat="49.87764" lon="4.7858">
        <ele>330.8</ele>
        <time>2021-04-19T11:16:26Z</time>
      </trkpt>
      <trkpt lat="49.87762" lon="4.78573">
        <ele>324</ele>
        <time>2021-04-19T11:16:33Z</time>
      </trkpt>
      <trkpt lat="49.87761" lon="4.78566">
        <ele>335.2</ele>
        <time>2021-04-19T11:16:42Z</time>
      </trkpt>
      <trkpt lat="49.87762" lon="4.78558">
        <ele>333.2</ele>
        <time>2021-04-19T11:16:47Z</time>
      </trkpt>
      <trkpt lat="49.87762" lon="4.78551">
        <ele>332</ele>
        <time>2021-04-19T11:16:52Z</time>
      </trkpt>
      <trkpt lat="49.87761" lon="4.78543">
        <ele>294.3</ele>
        <time>2021-04-19T11:16:57Z</time>
      </trkpt>
      <trkpt lat="49.8776" lon="4.78536">
        <ele>283.2</ele>
        <time>2021-04-19T11:17:02Z</time>
      </trkpt>
      <trkpt lat="49.87757" lon="4.78529">
        <ele>275.5</ele>
        <time>2021-04-19T11:17:06Z</time>
      </trkpt>
      <trkpt lat="49.87753" lon="4.78523">
        <ele>296.5</ele>
        <time>2021-04-19T11:17:11Z</time>
      </trkpt>
      <trkpt lat="49.8775" lon="4.78518">
        <ele>289.2</ele>
        <time>2021-04-19T11:17:14Z</time>
      </trkpt>
      <trkpt lat="49.8775" lon="4.78509">
        <ele>308.7</ele>
        <time>2021-04-19T11:17:20Z</time>
      </trkpt>
      <trkpt lat="49.87748" lon="4.78499">
        <ele>293.4</ele>
        <time>2021-04-19T11:17:24Z</time>
      </trkpt>
      <trkpt lat="49.87747" lon="4.78488">
        <ele>304.1</ele>
        <time>2021-04-19T11:17:28Z</time>
      </trkpt>
      <trkpt lat="49.87745" lon="4.7848">
        <ele>311.6</ele>
        <time>2021-04-19T11:17:32Z</time>
      </trkpt>
      <trkpt lat="49.87743" lon="4.78474">
        <ele>291.8</ele>
        <time>2021-04-19T11:17:36Z</time>
      </trkpt>
      <trkpt lat="49.87743" lon="4.78465">
        <ele>296.1</ele>
        <time>2021-04-19T11:17:40Z</time>
      </trkpt>
      <trkpt lat="49.87739" lon="4.78461">
        <ele>332.4</ele>
        <time>2021-04-19T11:18:09Z</time>
      </trkpt>
      <trkpt lat="49.87741" lon="4.78455">
        <ele>358.6</ele>
        <time>2021-04-19T11:21:33Z</time>
      </trkpt>
      <trkpt lat="49.87745" lon="4.78451">
        <ele>330.4</ele>
        <time>2021-04-19T11:22:54Z</time>
      </trkpt>
      <trkpt lat="49.87744" lon="4.78444">
        <ele>248.5</ele>
        <time>2021-04-19T11:25:19Z</time>
      </trkpt>
      <trkpt lat="49.87747" lon="4.78438">
        <ele>264.2</ele>
        <time>2021-04-19T11:25:23Z</time>
      </trkpt>
      <trkpt lat="49.87743" lon="4.78444">
        <ele>306.4</ele>
        <time>2021-04-19T11:26:38Z</time>
      </trkpt>
      <trkpt lat="49.87743" lon="4.78451">
        <ele>308</ele>
        <time>2021-04-19T11:26:43Z</time>
      </trkpt>
      <trkpt lat="49.87745" lon="4.7846">
        <ele>313</ele>
        <time>2021-04-19T11:26:50Z</time>
      </trkpt>
      <trkpt lat="49.87744" lon="4.78467">
        <ele>255.7</ele>
        <time>2021-04-19T11:26:55Z</time>
      </trkpt>
      <trkpt lat="49.87744" lon="4.78475">
        <ele>253.8</ele>
        <time>2021-04-19T11:26:59Z</time>
      </trkpt>
      <trkpt lat="49.87744" lon="4.78482">
        <ele>247.3</ele>
        <time>2021-04-19T11:27:06Z</time>
      </trkpt>
      <trkpt lat="49.87745" lon="4.7849">
        <ele>269.6</ele>
        <time>2021-04-19T11:27:12Z</time>
      </trkpt>
      <trkpt lat="49.87745" lon="4.78497">
        <ele>309.8</ele>
        <time>2021-04-19T11:27:20Z</time>
      </trkpt>
      <trkpt lat="49.87747" lon="4.78504">
        <ele>315.3</ele>
        <time>2021-04-19T11:27:30Z</time>
      </trkpt>
      <trkpt lat="49.87749" lon="4.78513">
        <ele>299.4</ele>
        <time>2021-04-19T11:27:35Z</time>
      </trkpt>
      <trkpt lat="49.87752" lon="4.7852">
        <ele>324.2</ele>
        <time>2021-04-19T11:27:40Z</time>
      </trkpt>
      <trkpt lat="49.87754" lon="4.78528">
        <ele>326.2</ele>
        <time>2021-04-19T11:27:45Z</time>
      </trkpt>
      <trkpt lat="49.87755" lon="4.78536">
        <ele>313.5</ele>
        <time>2021-04-19T11:27:51Z</time>
      </trkpt>
      <trkpt lat="49.87756" lon="4.78543">
        <ele>349.7</ele>
        <time>2021-04-19T11:28:06Z</time>
      </trkpt>
      <trkpt lat="49.87757" lon="4.78551">
        <ele>314.4</ele>
        <time>2021-04-19T11:29:09Z</time>
      </trkpt>
      <trkpt lat="49.87753" lon="4.78555">
        <ele>341.5</ele>
        <time>2021-04-19T11:29:25Z</time>
      </trkpt>
      <trkpt lat="49.8775" lon="4.78561">
        <ele>340.1</ele>
        <time>2021-04-19T11:29:32Z</time>
      </trkpt>
      <trkpt lat="49.87745" lon="4.78563">
        <ele>341.5</ele>
        <time>2021-04-19T11:29:39Z</time>
      </trkpt>
      <trkpt lat="49.8774" lon="4.78563">
        <ele>351.3</ele>
        <time>2021-04-19T11:29:46Z</time>
      </trkpt>
      <trkpt lat="49.87739" lon="4.78571">
        <ele>365.2</ele>
        <time>2021-04-19T11:29:51Z</time>
      </trkpt>
      <trkpt lat="49.87734" lon="4.78574">
        <ele>311.9</ele>
        <time>2021-04-19T11:30:27Z</time>
      </trkpt>
      <trkpt lat="49.87732" lon="4.7858">
        <ele>324.6</ele>
        <time>2021-04-19T11:31:03Z</time>
      </trkpt>
      <trkpt lat="49.87729" lon="4.78584">
        <ele>346.5</ele>
        <time>2021-04-19T11:31:23Z</time>
      </trkpt>
      <trkpt lat="49.87726" lon="4.78591">
        <ele>365.3</ele>
        <time>2021-04-19T11:31:44Z</time>
      </trkpt>
      <trkpt lat="49.87722" lon="4.78589">
        <ele>346.6</ele>
        <time>2021-04-19T11:31:52Z</time>
      </trkpt>
      <trkpt lat="49.87719" lon="4.78594">
        <ele>357.9</ele>
        <time>2021-04-19T11:32:05Z</time>
      </trkpt>
      <trkpt lat="49.87714" lon="4.78589">
        <ele>355.9</ele>
        <time>2021-04-19T11:32:16Z</time>
      </trkpt>
      <trkpt lat="49.87709" lon="4.78589">
        <ele>335.7</ele>
        <time>2021-04-19T11:32:21Z</time>
      </trkpt>
      <trkpt lat="49.87706" lon="4.78594">
        <ele>372.3</ele>
        <time>2021-04-19T11:32:42Z</time>
      </trkpt>
      <trkpt lat="49.87701" lon="4.786">
        <ele>363.3</ele>
        <time>2021-04-19T11:32:49Z</time>
      </trkpt>
      <trkpt lat="49.87694" lon="4.78599">
        <ele>355</ele>
        <time>2021-04-19T11:32:54Z</time>
      </trkpt>
      <trkpt lat="49.87689" lon="4.78599">
        <ele>324.6</ele>
        <time>2021-04-19T11:32:59Z</time>
      </trkpt>
      <trkpt lat="49.87684" lon="4.78599">
        <ele>335.1</ele>
        <time>2021-04-19T11:33:04Z</time>
      </trkpt>
      <trkpt lat="49.87679" lon="4.78602">
        <ele>359.3</ele>
        <time>2021-04-19T11:33:10Z</time>
      </trkpt>
      <trkpt lat="49.87676" lon="4.78608">
        <ele>335.7</ele>
        <time>2021-04-19T11:33:17Z</time>
      </trkpt>
      <trkpt lat="49.87674" lon="4.78615">
        <ele>342</ele>
        <time>2021-04-19T11:33:21Z</time>
      </trkpt>
      <trkpt lat="49.87671" lon="4.78621">
        <ele>361.9</ele>
        <time>2021-04-19T11:33:49Z</time>
      </trkpt>
      <trkpt lat="49.87668" lon="4.78626">
        <ele>325.1</ele>
        <time>2021-04-19T11:36:12Z</time>
      </trkpt>
      <trkpt lat="49.87664" lon="4.78631">
        <ele>302.2</ele>
        <time>2021-04-19T11:36:19Z</time>
      </trkpt>
      <trkpt lat="49.8766" lon="4.78639">
        <ele>305.3</ele>
        <time>2021-04-19T11:36:26Z</time>
      </trkpt>
      <trkpt lat="49.87657" lon="4.78645">
        <ele>305.8</ele>
        <time>2021-04-19T11:36:31Z</time>
      </trkpt>
      <trkpt lat="49.87655" lon="4.78651">
        <ele>269.1</ele>
        <time>2021-04-19T11:36:37Z</time>
      </trkpt>
      <trkpt lat="49.87651" lon="4.78656">
        <ele>252.3</ele>
        <time>2021-04-19T11:36:44Z</time>
      </trkpt>
      <trkpt lat="49.8765" lon="4.78663">
        <ele>327.2</ele>
        <time>2021-04-19T11:40:49Z</time>
      </trkpt>
      <trkpt lat="49.8765" lon="4.78672">
        <ele>334.9</ele>
        <time>2021-04-19T11:40:58Z</time>
      </trkpt>
      <trkpt lat="49.87649" lon="4.7868">
        <ele>326.5</ele>
        <time>2021-04-19T11:41:01Z</time>
      </trkpt>
      <trkpt lat="49.87646" lon="4.78688">
        <ele>313.5</ele>
        <time>2021-04-19T11:41:04Z</time>
      </trkpt>
      <trkpt lat="49.87643" lon="4.78694">
        <ele>293.8</ele>
        <time>2021-04-19T11:41:08Z</time>
      </trkpt>
      <trkpt lat="49.8764" lon="4.78702">
        <ele>259.3</ele>
        <time>2021-04-19T11:41:13Z</time>
      </trkpt>
      <trkpt lat="49.87635" lon="4.78708">
        <ele>248.3</ele>
        <time>2021-04-19T11:41:18Z</time>
      </trkpt>
      <trkpt lat="49.8763" lon="4.78715">
        <ele>288.6</ele>
        <time>2021-04-19T11:41:23Z</time>
      </trkpt>
      <trkpt lat="49.87628" lon="4.78722">
        <ele>264.6</ele>
        <time>2021-04-19T11:41:27Z</time>
      </trkpt>
      <trkpt lat="49.87625" lon="4.7873">
        <ele>300</ele>
        <time>2021-04-19T11:41:32Z</time>
      </trkpt>
      <trkpt lat="49.87621" lon="4.78736">
        <ele>270.8</ele>
        <time>2021-04-19T11:41:37Z</time>
      </trkpt>
      <trkpt lat="49.87619" lon="4.78744">
        <ele>270.1</ele>
        <time>2021-04-19T11:41:41Z</time>
      </trkpt>
      <trkpt lat="49.87616" lon="4.78752">
        <ele>225.5</ele>
        <time>2021-04-19T11:41:50Z</time>
      </trkpt>
      <trkpt lat="49.87613" lon="4.78758">
        <ele>234.8</ele>
        <time>2021-04-19T11:41:53Z</time>
      </trkpt>
      <trkpt lat="49.87609" lon="4.78763">
        <ele>277.9</ele>
        <time>2021-04-19T11:41:56Z</time>
      </trkpt>
      <trkpt lat="49.87604" lon="4.7877">
        <ele>277.6</ele>
        <time>2021-04-19T11:42:00Z</time>
      </trkpt>
      <trkpt lat="49.87602" lon="4.78777">
        <ele>295</ele>
        <time>2021-04-19T11:42:05Z</time>
      </trkpt>
      <trkpt lat="49.87599" lon="4.78784">
        <ele>268.4</ele>
        <time>2021-04-19T11:42:08Z</time>
      </trkpt>
      <trkpt lat="49.87596" lon="4.78792">
        <ele>226.3</ele>
        <time>2021-04-19T11:42:13Z</time>
      </trkpt>
      <trkpt lat="49.87594" lon="4.78799">
        <ele>263.5</ele>
        <time>2021-04-19T11:42:18Z</time>
      </trkpt>
      <trkpt lat="49.87589" lon="4.78801">
        <ele>283.2</ele>
        <time>2021-04-19T11:42:22Z</time>
      </trkpt>
      <trkpt lat="49.87586" lon="4.78809">
        <ele>313.9</ele>
        <time>2021-04-19T11:42:28Z</time>
      </trkpt>
      <trkpt lat="49.87583" lon="4.78817">
        <ele>282.9</ele>
        <time>2021-04-19T11:42:33Z</time>
      </trkpt>
      <trkpt lat="49.87579" lon="4.78823">
        <ele>248.1</ele>
        <time>2021-04-19T11:42:36Z</time>
      </trkpt>
      <trkpt lat="49.87575" lon="4.78828">
        <ele>236.4</ele>
        <time>2021-04-19T11:42:40Z</time>
      </trkpt>
      <trkpt lat="49.8757" lon="4.78832">
        <ele>220.6</ele>
        <time>2021-04-19T11:42:45Z</time>
      </trkpt>
      <trkpt lat="49.87565" lon="4.78835">
        <ele>207.3</ele>
        <time>2021-04-19T11:42:49Z</time>
      </trkpt>
      <trkpt lat="49.8756" lon="4.78841">
        <ele>228.7</ele>
        <time>2021-04-19T11:42:53Z</time>
      </trkpt>
      <trkpt lat="49.87556" lon="4.78845">
        <ele>222.5</ele>
        <time>2021-04-19T11:42:56Z</time>
      </trkpt>
      <trkpt lat="49.87552" lon="4.78849">
        <ele>252.8</ele>
        <time>2021-04-19T11:43:00Z</time>
      </trkpt>
      <trkpt lat="49.87548" lon="4.78854">
        <ele>219.6</ele>
        <time>2021-04-19T11:43:04Z</time>
      </trkpt>
      <trkpt lat="49.87542" lon="4.78855">
        <ele>233.1</ele>
        <time>2021-04-19T11:43:09Z</time>
      </trkpt>
      <trkpt lat="49.87537" lon="4.7886">
        <ele>276.2</ele>
        <time>2021-04-19T11:43:13Z</time>
      </trkpt>
      <trkpt lat="49.87533" lon="4.78865">
        <ele>266</ele>
        <time>2021-04-19T11:43:17Z</time>
      </trkpt>
      <trkpt lat="49.87529" lon="4.78869">
        <ele>296.6</ele>
        <time>2021-04-19T11:43:21Z</time>
      </trkpt>
      <trkpt lat="49.87524" lon="4.78872">
        <ele>318.1</ele>
        <time>2021-04-19T11:43:25Z</time>
      </trkpt>
      <trkpt lat="49.8752" lon="4.78877">
        <ele>302.1</ele>
        <time>2021-04-19T11:43:29Z</time>
      </trkpt>
      <trkpt lat="49.87515" lon="4.7888">
        <ele>301.7</ele>
        <time>2021-04-19T11:43:33Z</time>
      </trkpt>
      <trkpt lat="49.87511" lon="4.78883">
        <ele>302.3</ele>
        <time>2021-04-19T11:43:36Z</time>
      </trkpt>
      <trkpt lat="49.87506" lon="4.78886">
        <ele>330.7</ele>
        <time>2021-04-19T11:43:40Z</time>
      </trkpt>
      <trkpt lat="49.87499" lon="4.7889">
        <ele>338.4</ele>
        <time>2021-04-19T11:43:44Z</time>
      </trkpt>
      <trkpt lat="49.87495" lon="4.78893">
        <ele>336.6</ele>
        <time>2021-04-19T11:43:49Z</time>
      </trkpt>
      <trkpt lat="49.8749" lon="4.78896">
        <ele>289.1</ele>
        <time>2021-04-19T11:43:55Z</time>
      </trkpt>
      <trkpt lat="49.87486" lon="4.789">
        <ele>276.8</ele>
        <time>2021-04-19T11:43:59Z</time>
      </trkpt>
      <trkpt lat="49.8748" lon="4.78903">
        <ele>267.1</ele>
        <time>2021-04-19T11:44:03Z</time>
      </trkpt>
      <trkpt lat="49.87475" lon="4.78904">
        <ele>300.6</ele>
        <time>2021-04-19T11:44:08Z</time>
      </trkpt>
      <trkpt lat="49.8747" lon="4.78908">
        <ele>261.3</ele>
        <time>2021-04-19T11:44:13Z</time>
      </trkpt>
      <trkpt lat="49.87464" lon="4.78909">
        <ele>217.1</ele>
        <time>2021-04-19T11:44:17Z</time>
      </trkpt>
      <trkpt lat="49.87459" lon="4.78907">
        <ele>207</ele>
        <time>2021-04-19T11:44:21Z</time>
      </trkpt>
      <trkpt lat="49.87453" lon="4.78908">
        <ele>235</ele>
        <time>2021-04-19T11:44:25Z</time>
      </trkpt>
      <trkpt lat="49.87445" lon="4.7891">
        <ele>253.4</ele>
        <time>2021-04-19T11:44:31Z</time>
      </trkpt>
      <trkpt lat="49.87441" lon="4.78912">
        <ele>313.3</ele>
        <time>2021-04-19T11:44:35Z</time>
      </trkpt>
      <trkpt lat="49.87431" lon="4.78911">
        <ele>263.9</ele>
        <time>2021-04-19T11:44:42Z</time>
      </trkpt>
      <trkpt lat="49.87426" lon="4.7891">
        <ele>244.4</ele>
        <time>2021-04-19T11:44:46Z</time>
      </trkpt>
      <trkpt lat="49.87403" lon="4.78873">
        <ele>262.6</ele>
        <time>2021-04-19T11:45:13Z</time>
      </trkpt>
      <trkpt lat="49.87401" lon="4.78866">
        <ele>273.1</ele>
        <time>2021-04-19T11:45:16Z</time>
      </trkpt>
      <trkpt lat="49.87398" lon="4.78858">
        <ele>261</ele>
        <time>2021-04-19T11:45:20Z</time>
      </trkpt>
      <trkpt lat="49.87395" lon="4.7885">
        <ele>256.5</ele>
        <time>2021-04-19T11:45:24Z</time>
      </trkpt>
      <trkpt lat="49.87395" lon="4.78841">
        <ele>215.2</ele>
        <time>2021-04-19T11:45:31Z</time>
      </trkpt>
      <trkpt lat="49.87393" lon="4.78835">
        <ele>201.1</ele>
        <time>2021-04-19T11:45:36Z</time>
      </trkpt>
      <trkpt lat="49.8739" lon="4.78829">
        <ele>198.5</ele>
        <time>2021-04-19T11:45:40Z</time>
      </trkpt>
      <trkpt lat="49.87387" lon="4.78821">
        <ele>213.6</ele>
        <time>2021-04-19T11:45:44Z</time>
      </trkpt>
      <trkpt lat="49.87385" lon="4.78813">
        <ele>233.5</ele>
        <time>2021-04-19T11:45:50Z</time>
      </trkpt>
      <trkpt lat="49.87382" lon="4.78808">
        <ele>238.2</ele>
        <time>2021-04-19T11:45:53Z</time>
      </trkpt>
      <trkpt lat="49.87378" lon="4.78802">
        <ele>227.3</ele>
        <time>2021-04-19T11:45:57Z</time>
      </trkpt>
      <trkpt lat="49.87375" lon="4.78795">
        <ele>212.6</ele>
        <time>2021-04-19T11:46:01Z</time>
      </trkpt>
      <trkpt lat="49.87373" lon="4.78787">
        <ele>244.4</ele>
        <time>2021-04-19T11:46:05Z</time>
      </trkpt>
      <trkpt lat="49.87371" lon="4.7878">
        <ele>247.3</ele>
        <time>2021-04-19T11:46:10Z</time>
      </trkpt>
      <trkpt lat="49.87368" lon="4.78774">
        <ele>303.7</ele>
        <time>2021-04-19T11:46:14Z</time>
      </trkpt>
      <trkpt lat="49.87364" lon="4.78767">
        <ele>270</ele>
        <time>2021-04-19T11:46:19Z</time>
      </trkpt>
      <trkpt lat="49.87362" lon="4.78758">
        <ele>293.7</ele>
        <time>2021-04-19T11:46:23Z</time>
      </trkpt>
      <trkpt lat="49.87361" lon="4.78751">
        <ele>296.2</ele>
        <time>2021-04-19T11:46:27Z</time>
      </trkpt>
      <trkpt lat="49.87358" lon="4.78744">
        <ele>256.6</ele>
        <time>2021-04-19T11:46:32Z</time>
      </trkpt>
      <trkpt lat="49.87355" lon="4.78737">
        <ele>265.8</ele>
        <time>2021-04-19T11:46:36Z</time>
      </trkpt>
      <trkpt lat="49.87352" lon="4.78731">
        <ele>272.1</ele>
        <time>2021-04-19T11:46:41Z</time>
      </trkpt>
      <trkpt lat="49.87348" lon="4.78725">
        <ele>258.4</ele>
        <time>2021-04-19T11:46:47Z</time>
      </trkpt>
      <trkpt lat="49.87344" lon="4.7872">
        <ele>220.5</ele>
        <time>2021-04-19T11:46:51Z</time>
      </trkpt>
      <trkpt lat="49.87341" lon="4.78713">
        <ele>229.3</ele>
        <time>2021-04-19T11:46:55Z</time>
      </trkpt>
      <trkpt lat="49.87338" lon="4.78707">
        <ele>256.2</ele>
        <time>2021-04-19T11:46:59Z</time>
      </trkpt>
      <trkpt lat="49.87335" lon="4.78701">
        <ele>286.1</ele>
        <time>2021-04-19T11:47:04Z</time>
      </trkpt>
      <trkpt lat="49.87334" lon="4.78692">
        <ele>300.1</ele>
        <time>2021-04-19T11:47:09Z</time>
      </trkpt>
      <trkpt lat="49.87331" lon="4.78685">
        <ele>239.8</ele>
        <time>2021-04-19T11:47:13Z</time>
      </trkpt>
      <trkpt lat="49.87327" lon="4.78681">
        <ele>277.8</ele>
        <time>2021-04-19T11:47:18Z</time>
      </trkpt>
      <trkpt lat="49.87322" lon="4.78685">
        <ele>211.8</ele>
        <time>2021-04-19T11:48:24Z</time>
      </trkpt>
      <trkpt lat="49.87317" lon="4.78688">
        <ele>211.6</ele>
        <time>2021-04-19T11:48:35Z</time>
      </trkpt>
      <trkpt lat="49.87323" lon="4.78687">
        <ele>211.8</ele>
        <time>2021-04-19T11:48:57Z</time>
      </trkpt>
      <trkpt lat="49.87328" lon="4.78684">
        <ele>211.8</ele>
        <time>2021-04-19T11:49:01Z</time>
      </trkpt>
      <trkpt lat="49.87331" lon="4.7869">
        <ele>211.8</ele>
        <time>2021-04-19T11:49:10Z</time>
      </trkpt>
      <trkpt lat="49.87332" lon="4.78698">
        <ele>211.9</ele>
        <time>2021-04-19T11:49:20Z</time>
      </trkpt>
      <trkpt lat="49.87327" lon="4.787">
        <ele>211.8</ele>
        <time>2021-04-19T11:49:26Z</time>
      </trkpt>
      <trkpt lat="49.87315" lon="4.78689">
        <ele>211.8</ele>
        <time>2021-04-19T11:49:32Z</time>
      </trkpt>
      <trkpt lat="49.8731" lon="4.78684">
        <ele>211.8</ele>
        <time>2021-04-19T11:49:39Z</time>
      </trkpt>
      <trkpt lat="49.87303" lon="4.78692">
        <ele>211.9</ele>
        <time>2021-04-19T11:52:36Z</time>
      </trkpt>
      <trkpt lat="49.87302" lon="4.78699">
        <ele>211.8</ele>
        <time>2021-04-19T11:52:39Z</time>
      </trkpt>
      <trkpt lat="49.87306" lon="4.78696">
        <ele>211.8</ele>
        <time>2021-04-19T11:53:57Z</time>
      </trkpt>
      <trkpt lat="49.87308" lon="4.78689">
        <ele>211.6</ele>
        <time>2021-04-19T12:07:58Z</time>
      </trkpt>
      <trkpt lat="49.87314" lon="4.78685">
        <ele>211.9</ele>
        <time>2021-04-19T12:10:11Z</time>
      </trkpt>
      <trkpt lat="49.87319" lon="4.78681">
        <ele>211.8</ele>
        <time>2021-04-19T12:10:14Z</time>
      </trkpt>
      <trkpt lat="49.87314" lon="4.78683">
        <ele>211.9</ele>
        <time>2021-04-19T12:10:44Z</time>
      </trkpt>
      <trkpt lat="49.87311" lon="4.78692">
        <ele>211.8</ele>
        <time>2021-04-19T12:10:55Z</time>
      </trkpt>
      <trkpt lat="49.87311" lon="4.78685">
        <ele>211.8</ele>
        <time>2021-04-19T12:11:08Z</time>
      </trkpt>
      <trkpt lat="49.87308" lon="4.78694">
        <ele>211.7</ele>
        <time>2021-04-19T12:13:01Z</time>
      </trkpt>
      <trkpt lat="49.8731" lon="4.78688">
        <ele>211.6</ele>
        <time>2021-04-19T12:15:48Z</time>
      </trkpt>
      <trkpt lat="49.87305" lon="4.78687">
        <ele>211.7</ele>
        <time>2021-04-19T12:20:22Z</time>
      </trkpt>
      <trkpt lat="49.87307" lon="4.78693">
        <ele>211.7</ele>
        <time>2021-04-19T12:27:32Z</time>
      </trkpt>
      <trkpt lat="49.87311" lon="4.78686">
        <ele>211.8</ele>
        <time>2021-04-19T12:28:19Z</time>
      </trkpt>
      <trkpt lat="49.87308" lon="4.78693">
        <ele>211.8</ele>
        <time>2021-04-19T12:28:23Z</time>
      </trkpt>
      <trkpt lat="49.87311" lon="4.78687">
        <ele>211.8</ele>
        <time>2021-04-19T12:28:42Z</time>
      </trkpt>
      <trkpt lat="49.87311" lon="4.78678">
        <ele>211.7</ele>
        <time>2021-04-19T12:28:45Z</time>
      </trkpt>
      <trkpt lat="49.87312" lon="4.78669">
        <ele>211.7</ele>
        <time>2021-04-19T12:28:50Z</time>
      </trkpt>
      <trkpt lat="49.87314" lon="4.78659">
        <ele>211.7</ele>
        <time>2021-04-19T12:28:54Z</time>
      </trkpt>
      <trkpt lat="49.87314" lon="4.7865">
        <ele>211.6</ele>
        <time>2021-04-19T12:28:57Z</time>
      </trkpt>
      <trkpt lat="49.87313" lon="4.78641">
        <ele>211.6</ele>
        <time>2021-04-19T12:29:01Z</time>
      </trkpt>
      <trkpt lat="49.87312" lon="4.78633">
        <ele>211.5</ele>
        <time>2021-04-19T12:29:05Z</time>
      </trkpt>
      <trkpt lat="49.8731" lon="4.78624">
        <ele>211.5</ele>
        <time>2021-04-19T12:29:09Z</time>
      </trkpt>
      <trkpt lat="49.87307" lon="4.78616">
        <ele>211.5</ele>
        <time>2021-04-19T12:29:14Z</time>
      </trkpt>
      <trkpt lat="49.87304" lon="4.78611">
        <ele>211.5</ele>
        <time>2021-04-19T12:29:18Z</time>
      </trkpt>
      <trkpt lat="49.87301" lon="4.78603">
        <ele>211.6</ele>
        <time>2021-04-19T12:29:25Z</time>
      </trkpt>
      <trkpt lat="49.87298" lon="4.78595">
        <ele>211.6</ele>
        <time>2021-04-19T12:29:31Z</time>
      </trkpt>
      <trkpt lat="49.87295" lon="4.78589">
        <ele>211.6</ele>
        <time>2021-04-19T12:29:35Z</time>
      </trkpt>
      <trkpt lat="49.87292" lon="4.78582">
        <ele>211.6</ele>
        <time>2021-04-19T12:29:39Z</time>
      </trkpt>
      <trkpt lat="49.87281" lon="4.78572">
        <ele>211.6</ele>
        <time>2021-04-19T12:29:47Z</time>
      </trkpt>
      <trkpt lat="49.87279" lon="4.78564">
        <ele>211.7</ele>
        <time>2021-04-19T12:29:51Z</time>
      </trkpt>
      <trkpt lat="49.87278" lon="4.78555">
        <ele>211.6</ele>
        <time>2021-04-19T12:29:54Z</time>
      </trkpt>
      <trkpt lat="49.87279" lon="4.78545">
        <ele>211.7</ele>
        <time>2021-04-19T12:29:57Z</time>
      </trkpt>
      <trkpt lat="49.87283" lon="4.78539">
        <ele>211.7</ele>
        <time>2021-04-19T12:30:01Z</time>
      </trkpt>
      <trkpt lat="49.87287" lon="4.78534">
        <ele>211.8</ele>
        <time>2021-04-19T12:30:04Z</time>
      </trkpt>
      <trkpt lat="49.87293" lon="4.7853">
        <ele>211.8</ele>
        <time>2021-04-19T12:30:08Z</time>
      </trkpt>
      <trkpt lat="49.87297" lon="4.78528">
        <ele>211.7</ele>
        <time>2021-04-19T12:30:12Z</time>
      </trkpt>
      <trkpt lat="49.87301" lon="4.78522">
        <ele>211.8</ele>
        <time>2021-04-19T12:30:16Z</time>
      </trkpt>
      <trkpt lat="49.87304" lon="4.78517">
        <ele>211.7</ele>
        <time>2021-04-19T12:30:19Z</time>
      </trkpt>
      <trkpt lat="49.87308" lon="4.78512">
        <ele>211.6</ele>
        <time>2021-04-19T12:30:24Z</time>
      </trkpt>
      <trkpt lat="49.87313" lon="4.78508">
        <ele>211.6</ele>
        <time>2021-04-19T12:30:31Z</time>
      </trkpt>
      <trkpt lat="49.87317" lon="4.78501">
        <ele>211.5</ele>
        <time>2021-04-19T12:30:36Z</time>
      </trkpt>
      <trkpt lat="49.8732" lon="4.78496">
        <ele>211.5</ele>
        <time>2021-04-19T12:30:40Z</time>
      </trkpt>
      <trkpt lat="49.87324" lon="4.78492">
        <ele>211.6</ele>
        <time>2021-04-19T12:30:45Z</time>
      </trkpt>
      <trkpt lat="49.87328" lon="4.78488">
        <ele>211.6</ele>
        <time>2021-04-19T12:30:49Z</time>
      </trkpt>
      <trkpt lat="49.87333" lon="4.78484">
        <ele>211.6</ele>
        <time>2021-04-19T12:30:53Z</time>
      </trkpt>
      <trkpt lat="49.87338" lon="4.7848">
        <ele>211.6</ele>
        <time>2021-04-19T12:30:59Z</time>
      </trkpt>
      <trkpt lat="49.87343" lon="4.78477">
        <ele>211.6</ele>
        <time>2021-04-19T12:31:04Z</time>
      </trkpt>
      <trkpt lat="49.87347" lon="4.78474">
        <ele>211.7</ele>
        <time>2021-04-19T12:31:08Z</time>
      </trkpt>
      <trkpt lat="49.87352" lon="4.78471">
        <ele>211.8</ele>
        <time>2021-04-19T12:31:12Z</time>
      </trkpt>
      <trkpt lat="49.87357" lon="4.78469">
        <ele>211.7</ele>
        <time>2021-04-19T12:31:16Z</time>
      </trkpt>
      <trkpt lat="49.87362" lon="4.78466">
        <ele>211.7</ele>
        <time>2021-04-19T12:31:20Z</time>
      </trkpt>
      <trkpt lat="49.87367" lon="4.78462">
        <ele>211.7</ele>
        <time>2021-04-19T12:31:23Z</time>
      </trkpt>
      <trkpt lat="49.87372" lon="4.7846">
        <ele>211.7</ele>
        <time>2021-04-19T12:31:27Z</time>
      </trkpt>
      <trkpt lat="49.87377" lon="4.78457">
        <ele>211.7</ele>
        <time>2021-04-19T12:31:32Z</time>
      </trkpt>
      <trkpt lat="49.87381" lon="4.78454">
        <ele>211.7</ele>
        <time>2021-04-19T12:31:35Z</time>
      </trkpt>
      <trkpt lat="49.87386" lon="4.78449">
        <ele>211.7</ele>
        <time>2021-04-19T12:31:40Z</time>
      </trkpt>
      <trkpt lat="49.87388" lon="4.78443">
        <ele>211.6</ele>
        <time>2021-04-19T12:31:44Z</time>
      </trkpt>
      <trkpt lat="49.8739" lon="4.78434">
        <ele>211.5</ele>
        <time>2021-04-19T12:31:49Z</time>
      </trkpt>
      <trkpt lat="49.87394" lon="4.78427">
        <ele>211.4</ele>
        <time>2021-04-19T12:31:53Z</time>
      </trkpt>
      <trkpt lat="49.87399" lon="4.78422">
        <ele>211.4</ele>
        <time>2021-04-19T12:31:57Z</time>
      </trkpt>
      <trkpt lat="49.87403" lon="4.78418">
        <ele>211.4</ele>
        <time>2021-04-19T12:32:01Z</time>
      </trkpt>
      <trkpt lat="49.87409" lon="4.78415">
        <ele>211.3</ele>
        <time>2021-04-19T12:32:05Z</time>
      </trkpt>
      <trkpt lat="49.87414" lon="4.78414">
        <ele>211.3</ele>
        <time>2021-04-19T12:32:08Z</time>
      </trkpt>
      <trkpt lat="49.87425" lon="4.7841">
        <ele>211.3</ele>
        <time>2021-04-19T12:32:16Z</time>
      </trkpt>
      <trkpt lat="49.8743" lon="4.78406">
        <ele>211.4</ele>
        <time>2021-04-19T12:32:20Z</time>
      </trkpt>
      <trkpt lat="49.87434" lon="4.78401">
        <ele>211.4</ele>
        <time>2021-04-19T12:32:24Z</time>
      </trkpt>
      <trkpt lat="49.87438" lon="4.78396">
        <ele>211.4</ele>
        <time>2021-04-19T12:32:27Z</time>
      </trkpt>
      <trkpt lat="49.87441" lon="4.7839">
        <ele>211.5</ele>
        <time>2021-04-19T12:32:31Z</time>
      </trkpt>
      <trkpt lat="49.87445" lon="4.78382">
        <ele>211.5</ele>
        <time>2021-04-19T12:32:36Z</time>
      </trkpt>
      <trkpt lat="49.87448" lon="4.78376">
        <ele>211.5</ele>
        <time>2021-04-19T12:32:39Z</time>
      </trkpt>
      <trkpt lat="49.87451" lon="4.78371">
        <ele>211.5</ele>
        <time>2021-04-19T12:32:43Z</time>
      </trkpt>
      <trkpt lat="49.87455" lon="4.78366">
        <ele>211.5</ele>
        <time>2021-04-19T12:32:48Z</time>
      </trkpt>
      <trkpt lat="49.8746" lon="4.78363">
        <ele>211.5</ele>
        <time>2021-04-19T12:32:52Z</time>
      </trkpt>
      <trkpt lat="49.87466" lon="4.78361">
        <ele>211.5</ele>
        <time>2021-04-19T12:32:58Z</time>
      </trkpt>
      <trkpt lat="49.87471" lon="4.78357">
        <ele>211.5</ele>
        <time>2021-04-19T12:33:03Z</time>
      </trkpt>
      <trkpt lat="49.87476" lon="4.78359">
        <ele>211.6</ele>
        <time>2021-04-19T12:34:14Z</time>
      </trkpt>
      <trkpt lat="49.87481" lon="4.78354">
        <ele>211.6</ele>
        <time>2021-04-19T12:34:41Z</time>
      </trkpt>
      <trkpt lat="49.87485" lon="4.78351">
        <ele>211.6</ele>
        <time>2021-04-19T12:34:44Z</time>
      </trkpt>
      <trkpt lat="49.87501" lon="4.78345">
        <ele>211.3</ele>
        <time>2021-04-19T12:34:53Z</time>
      </trkpt>
      <trkpt lat="49.87506" lon="4.78342">
        <ele>211.3</ele>
        <time>2021-04-19T12:34:57Z</time>
      </trkpt>
      <trkpt lat="49.87511" lon="4.78341">
        <ele>211.4</ele>
        <time>2021-04-19T12:35:01Z</time>
      </trkpt>
      <trkpt lat="49.87517" lon="4.78342">
        <ele>211.5</ele>
        <time>2021-04-19T12:35:07Z</time>
      </trkpt>
      <trkpt lat="49.87522" lon="4.78342">
        <ele>211.6</ele>
        <time>2021-04-19T12:35:11Z</time>
      </trkpt>
      <trkpt lat="49.87527" lon="4.7834">
        <ele>211.6</ele>
        <time>2021-04-19T12:35:16Z</time>
      </trkpt>
      <trkpt lat="49.87533" lon="4.78338">
        <ele>211.6</ele>
        <time>2021-04-19T12:35:20Z</time>
      </trkpt>
      <trkpt lat="49.87537" lon="4.78336">
        <ele>211.6</ele>
        <time>2021-04-19T12:35:25Z</time>
      </trkpt>
      <trkpt lat="49.87542" lon="4.78333">
        <ele>211.6</ele>
        <time>2021-04-19T12:35:29Z</time>
      </trkpt>
      <trkpt lat="49.87545" lon="4.78327">
        <ele>211.6</ele>
        <time>2021-04-19T12:35:35Z</time>
      </trkpt>
      <trkpt lat="49.87551" lon="4.78323">
        <ele>211.5</ele>
        <time>2021-04-19T12:35:40Z</time>
      </trkpt>
      <trkpt lat="49.87555" lon="4.78321">
        <ele>261.1</ele>
        <time>2021-04-19T12:35:44Z</time>
      </trkpt>
      <trkpt lat="49.8756" lon="4.78318">
        <ele>244.6</ele>
        <time>2021-04-19T12:35:49Z</time>
      </trkpt>
      <trkpt lat="49.87564" lon="4.78315">
        <ele>227.5</ele>
        <time>2021-04-19T12:35:53Z</time>
      </trkpt>
      <trkpt lat="49.87578" lon="4.78299">
        <ele>283.5</ele>
        <time>2021-04-19T12:36:08Z</time>
      </trkpt>
      <trkpt lat="49.87582" lon="4.78293">
        <ele>276</ele>
        <time>2021-04-19T12:36:13Z</time>
      </trkpt>
      <trkpt lat="49.87587" lon="4.78294">
        <ele>289.4</ele>
        <time>2021-04-19T12:36:21Z</time>
      </trkpt>
      <trkpt lat="49.87592" lon="4.78295">
        <ele>298</ele>
        <time>2021-04-19T12:36:24Z</time>
      </trkpt>
      <trkpt lat="49.87597" lon="4.78296">
        <ele>305.9</ele>
        <time>2021-04-19T12:36:28Z</time>
      </trkpt>
      <trkpt lat="49.87602" lon="4.78299">
        <ele>295.2</ele>
        <time>2021-04-19T12:36:33Z</time>
      </trkpt>
      <trkpt lat="49.87607" lon="4.78299">
        <ele>295.3</ele>
        <time>2021-04-19T12:36:40Z</time>
      </trkpt>
      <trkpt lat="49.87613" lon="4.78295">
        <ele>239</ele>
        <time>2021-04-19T12:36:45Z</time>
      </trkpt>
      <trkpt lat="49.87616" lon="4.7829">
        <ele>220</ele>
        <time>2021-04-19T12:36:52Z</time>
      </trkpt>
      <trkpt lat="49.87622" lon="4.78287">
        <ele>302.7</ele>
        <time>2021-04-19T12:37:17Z</time>
      </trkpt>
      <trkpt lat="49.87627" lon="4.78285">
        <ele>287.6</ele>
        <time>2021-04-19T12:37:20Z</time>
      </trkpt>
      <trkpt lat="49.87632" lon="4.78282">
        <ele>287.7</ele>
        <time>2021-04-19T12:37:26Z</time>
      </trkpt>
      <trkpt lat="49.87637" lon="4.7828">
        <ele>299</ele>
        <time>2021-04-19T12:37:32Z</time>
      </trkpt>
      <trkpt lat="49.87643" lon="4.78279">
        <ele>278.8</ele>
        <time>2021-04-19T12:37:37Z</time>
      </trkpt>
      <trkpt lat="49.87649" lon="4.78276">
        <ele>277.6</ele>
        <time>2021-04-19T12:37:41Z</time>
      </trkpt>
      <trkpt lat="49.87653" lon="4.78273">
        <ele>254</ele>
        <time>2021-04-19T12:37:45Z</time>
      </trkpt>
      <trkpt lat="49.87657" lon="4.7827">
        <ele>257.9</ele>
        <time>2021-04-19T12:37:51Z</time>
      </trkpt>
      <trkpt lat="49.87663" lon="4.78266">
        <ele>272.2</ele>
        <time>2021-04-19T12:37:56Z</time>
      </trkpt>
      <trkpt lat="49.87668" lon="4.78263">
        <ele>272.3</ele>
        <time>2021-04-19T12:38:00Z</time>
      </trkpt>
      <trkpt lat="49.87672" lon="4.78258">
        <ele>301.9</ele>
        <time>2021-04-19T12:38:05Z</time>
      </trkpt>
      <trkpt lat="49.87677" lon="4.78252">
        <ele>300.8</ele>
        <time>2021-04-19T12:38:10Z</time>
      </trkpt>
      <trkpt lat="49.8768" lon="4.78247">
        <ele>293.6</ele>
        <time>2021-04-19T12:38:14Z</time>
      </trkpt>
      <trkpt lat="49.87685" lon="4.7824">
        <ele>290.7</ele>
        <time>2021-04-19T12:38:19Z</time>
      </trkpt>
      <trkpt lat="49.87689" lon="4.78235">
        <ele>241</ele>
        <time>2021-04-19T12:38:22Z</time>
      </trkpt>
      <trkpt lat="49.87693" lon="4.78231">
        <ele>231.3</ele>
        <time>2021-04-19T12:38:26Z</time>
      </trkpt>
      <trkpt lat="49.87698" lon="4.78226">
        <ele>228.9</ele>
        <time>2021-04-19T12:38:30Z</time>
      </trkpt>
      <trkpt lat="49.87703" lon="4.78222">
        <ele>245.3</ele>
        <time>2021-04-19T12:38:34Z</time>
      </trkpt>
      <trkpt lat="49.87708" lon="4.78217">
        <ele>238.1</ele>
        <time>2021-04-19T12:38:38Z</time>
      </trkpt>
      <trkpt lat="49.87713" lon="4.78214">
        <ele>245.9</ele>
        <time>2021-04-19T12:38:42Z</time>
      </trkpt>
      <trkpt lat="49.87717" lon="4.78212">
        <ele>248.7</ele>
        <time>2021-04-19T12:38:46Z</time>
      </trkpt>
      <trkpt lat="49.87723" lon="4.78205">
        <ele>247.5</ele>
        <time>2021-04-19T12:38:51Z</time>
      </trkpt>
      <trkpt lat="49.87727" lon="4.78199">
        <ele>249.2</ele>
        <time>2021-04-19T12:38:55Z</time>
      </trkpt>
      <trkpt lat="49.87731" lon="4.78194">
        <ele>264.9</ele>
        <time>2021-04-19T12:39:00Z</time>
      </trkpt>
      <trkpt lat="49.87735" lon="4.78189">
        <ele>250.5</ele>
        <time>2021-04-19T12:39:05Z</time>
      </trkpt>
      <trkpt lat="49.87739" lon="4.78185">
        <ele>249.8</ele>
        <time>2021-04-19T12:39:07Z</time>
      </trkpt>
      <trkpt lat="49.87743" lon="4.78181">
        <ele>316.3</ele>
        <time>2021-04-19T12:39:13Z</time>
      </trkpt>
      <trkpt lat="49.87747" lon="4.78176">
        <ele>317.4</ele>
        <time>2021-04-19T12:39:18Z</time>
      </trkpt>
      <trkpt lat="49.87752" lon="4.78171">
        <ele>311.8</ele>
        <time>2021-04-19T12:39:22Z</time>
      </trkpt>
      <trkpt lat="49.87758" lon="4.78169">
        <ele>297.6</ele>
        <time>2021-04-19T12:39:26Z</time>
      </trkpt>
      <trkpt lat="49.87763" lon="4.78167">
        <ele>296.2</ele>
        <time>2021-04-19T12:39:30Z</time>
      </trkpt>
      <trkpt lat="49.87768" lon="4.78164">
        <ele>300.4</ele>
        <time>2021-04-19T12:39:35Z</time>
      </trkpt>
      <trkpt lat="49.87773" lon="4.7816">
        <ele>298.5</ele>
        <time>2021-04-19T12:39:39Z</time>
      </trkpt>
      <trkpt lat="49.87777" lon="4.78156">
        <ele>309.6</ele>
        <time>2021-04-19T12:39:43Z</time>
      </trkpt>
      <trkpt lat="49.87781" lon="4.7815">
        <ele>312.5</ele>
        <time>2021-04-19T12:39:48Z</time>
      </trkpt>
      <trkpt lat="49.87785" lon="4.78145">
        <ele>316.6</ele>
        <time>2021-04-19T12:39:53Z</time>
      </trkpt>
      <trkpt lat="49.87789" lon="4.78141">
        <ele>315</ele>
        <time>2021-04-19T12:39:56Z</time>
      </trkpt>
      <trkpt lat="49.87794" lon="4.78137">
        <ele>324.8</ele>
        <time>2021-04-19T12:40:00Z</time>
      </trkpt>
      <trkpt lat="49.87799" lon="4.78133">
        <ele>343.3</ele>
        <time>2021-04-19T12:40:04Z</time>
      </trkpt>
      <trkpt lat="49.87805" lon="4.78127">
        <ele>314.6</ele>
        <time>2021-04-19T12:40:07Z</time>
      </trkpt>
      <trkpt lat="49.87814" lon="4.78128">
        <ele>323.8</ele>
        <time>2021-04-19T12:40:14Z</time>
      </trkpt>
      <trkpt lat="49.8782" lon="4.78116">
        <ele>307.4</ele>
        <time>2021-04-19T12:40:23Z</time>
      </trkpt>
      <trkpt lat="49.87824" lon="4.78109">
        <ele>302.4</ele>
        <time>2021-04-19T12:40:27Z</time>
      </trkpt>
      <trkpt lat="49.87826" lon="4.78101">
        <ele>316.8</ele>
        <time>2021-04-19T12:40:31Z</time>
      </trkpt>
      <trkpt lat="49.87829" lon="4.78094">
        <ele>265.9</ele>
        <time>2021-04-19T12:40:34Z</time>
      </trkpt>
      <trkpt lat="49.87831" lon="4.78086">
        <ele>263.8</ele>
        <time>2021-04-19T12:40:38Z</time>
      </trkpt>
      <trkpt lat="49.87833" lon="4.78074">
        <ele>254.6</ele>
        <time>2021-04-19T12:40:44Z</time>
      </trkpt>
      <trkpt lat="49.87844" lon="4.78056">
        <ele>282.9</ele>
        <time>2021-04-19T12:40:58Z</time>
      </trkpt>
      <trkpt lat="49.87846" lon="4.78048">
        <ele>268.5</ele>
        <time>2021-04-19T12:41:04Z</time>
      </trkpt>
      <trkpt lat="49.87847" lon="4.78041">
        <ele>271.3</ele>
        <time>2021-04-19T12:41:08Z</time>
      </trkpt>
      <trkpt lat="49.87849" lon="4.78033">
        <ele>276.7</ele>
        <time>2021-04-19T12:41:12Z</time>
      </trkpt>
      <trkpt lat="49.87852" lon="4.78026">
        <ele>265.2</ele>
        <time>2021-04-19T12:41:16Z</time>
      </trkpt>
      <trkpt lat="49.87859" lon="4.78015">
        <ele>252.6</ele>
        <time>2021-04-19T12:41:24Z</time>
      </trkpt>
      <trkpt lat="49.87864" lon="4.78009">
        <ele>279.7</ele>
        <time>2021-04-19T12:41:29Z</time>
      </trkpt>
      <trkpt lat="49.87868" lon="4.78004">
        <ele>277.6</ele>
        <time>2021-04-19T12:41:33Z</time>
      </trkpt>
      <trkpt lat="49.87871" lon="4.77998">
        <ele>256.3</ele>
        <time>2021-04-19T12:41:37Z</time>
      </trkpt>
      <trkpt lat="49.87874" lon="4.77992">
        <ele>265.1</ele>
        <time>2021-04-19T12:41:41Z</time>
      </trkpt>
      <trkpt lat="49.87884" lon="4.77981">
        <ele>259.7</ele>
        <time>2021-04-19T12:41:48Z</time>
      </trkpt>
      <trkpt lat="49.87888" lon="4.77975">
        <ele>298.6</ele>
        <time>2021-04-19T12:41:52Z</time>
      </trkpt>
      <trkpt lat="49.87892" lon="4.7797">
        <ele>295.2</ele>
        <time>2021-04-19T12:41:55Z</time>
      </trkpt>
      <trkpt lat="49.87895" lon="4.77962">
        <ele>271.4</ele>
        <time>2021-04-19T12:41:59Z</time>
      </trkpt>
      <trkpt lat="49.87896" lon="4.77954">
        <ele>255.2</ele>
        <time>2021-04-19T12:42:03Z</time>
      </trkpt>
      <trkpt lat="49.87898" lon="4.77945">
        <ele>265.4</ele>
        <time>2021-04-19T12:42:07Z</time>
      </trkpt>
      <trkpt lat="49.879" lon="4.77939">
        <ele>262.4</ele>
        <time>2021-04-19T12:42:11Z</time>
      </trkpt>
      <trkpt lat="49.87902" lon="4.77933">
        <ele>277.5</ele>
        <time>2021-04-19T12:42:15Z</time>
      </trkpt>
      <trkpt lat="49.87906" lon="4.77921">
        <ele>331.9</ele>
        <time>2021-04-19T12:42:23Z</time>
      </trkpt>
      <trkpt lat="49.87909" lon="4.77915">
        <ele>329.9</ele>
        <time>2021-04-19T12:42:27Z</time>
      </trkpt>
      <trkpt lat="49.87913" lon="4.77909">
        <ele>330.5</ele>
        <time>2021-04-19T12:42:31Z</time>
      </trkpt>
      <trkpt lat="49.87924" lon="4.7789">
        <ele>308.4</ele>
        <time>2021-04-19T12:42:43Z</time>
      </trkpt>
      <trkpt lat="49.87927" lon="4.77883">
        <ele>307.4</ele>
        <time>2021-04-19T12:42:47Z</time>
      </trkpt>
      <trkpt lat="49.87931" lon="4.77876">
        <ele>250.4</ele>
        <time>2021-04-19T12:42:52Z</time>
      </trkpt>
      <trkpt lat="49.87934" lon="4.7787">
        <ele>270.5</ele>
        <time>2021-04-19T12:42:56Z</time>
      </trkpt>
      <trkpt lat="49.87937" lon="4.77865">
        <ele>309.8</ele>
        <time>2021-04-19T12:42:59Z</time>
      </trkpt>
      <trkpt lat="49.87944" lon="4.7786">
        <ele>307</ele>
        <time>2021-04-19T12:43:05Z</time>
      </trkpt>
      <trkpt lat="49.87948" lon="4.77853">
        <ele>303.9</ele>
        <time>2021-04-19T12:43:09Z</time>
      </trkpt>
      <trkpt lat="49.87952" lon="4.77848">
        <ele>294.9</ele>
        <time>2021-04-19T12:43:15Z</time>
      </trkpt>
      <trkpt lat="49.87955" lon="4.77842">
        <ele>302.8</ele>
        <time>2021-04-19T12:43:24Z</time>
      </trkpt>
      <trkpt lat="49.87957" lon="4.77834">
        <ele>314.5</ele>
        <time>2021-04-19T12:43:31Z</time>
      </trkpt>
      <trkpt lat="49.8796" lon="4.7783">
        <ele>319.2</ele>
        <time>2021-04-19T12:43:36Z</time>
      </trkpt>
      <trkpt lat="49.87964" lon="4.77825">
        <ele>289.7</ele>
        <time>2021-04-19T12:43:41Z</time>
      </trkpt>
      <trkpt lat="49.87961" lon="4.77819">
        <ele>293.6</ele>
        <time>2021-04-19T12:43:56Z</time>
      </trkpt>
      <trkpt lat="49.87962" lon="4.77812">
        <ele>320</ele>
        <time>2021-04-19T12:44:06Z</time>
      </trkpt>
      <trkpt lat="49.87965" lon="4.77805">
        <ele>339.9</ele>
        <time>2021-04-19T12:44:26Z</time>
      </trkpt>
      <trkpt lat="49.87969" lon="4.77799">
        <ele>342.6</ele>
        <time>2021-04-19T12:44:30Z</time>
      </trkpt>
      <trkpt lat="49.87973" lon="4.77794">
        <ele>346.8</ele>
        <time>2021-04-19T12:44:33Z</time>
      </trkpt>
      <trkpt lat="49.87996" lon="4.77768">
        <ele>262.3</ele>
        <time>2021-04-19T12:44:46Z</time>
      </trkpt>
      <trkpt lat="49.88007" lon="4.77762">
        <ele>287.3</ele>
        <time>2021-04-19T12:44:53Z</time>
      </trkpt>
      <trkpt lat="49.88011" lon="4.77756">
        <ele>322.8</ele>
        <time>2021-04-19T12:44:58Z</time>
      </trkpt>
      <trkpt lat="49.88012" lon="4.77749">
        <ele>327</ele>
        <time>2021-04-19T12:45:02Z</time>
      </trkpt>
      <trkpt lat="49.88014" lon="4.77741">
        <ele>311.3</ele>
        <time>2021-04-19T12:45:06Z</time>
      </trkpt>
      <trkpt lat="49.88015" lon="4.77733">
        <ele>314.2</ele>
        <time>2021-04-19T12:45:11Z</time>
      </trkpt>
      <trkpt lat="49.88018" lon="4.77725">
        <ele>309.3</ele>
        <time>2021-04-19T12:45:15Z</time>
      </trkpt>
      <trkpt lat="49.88021" lon="4.77719">
        <ele>312.3</ele>
        <time>2021-04-19T12:45:18Z</time>
      </trkpt>
      <trkpt lat="49.88025" lon="4.77714">
        <ele>296.3</ele>
        <time>2021-04-19T12:45:21Z</time>
      </trkpt>
      <trkpt lat="49.88035" lon="4.77695">
        <ele>257.3</ele>
        <time>2021-04-19T12:45:33Z</time>
      </trkpt>
      <trkpt lat="49.88038" lon="4.77688">
        <ele>264.5</ele>
        <time>2021-04-19T12:45:37Z</time>
      </trkpt>
      <trkpt lat="49.88041" lon="4.77681">
        <ele>256.4</ele>
        <time>2021-04-19T12:45:41Z</time>
      </trkpt>
      <trkpt lat="49.88043" lon="4.77675">
        <ele>280.1</ele>
        <time>2021-04-19T12:45:45Z</time>
      </trkpt>
      <trkpt lat="49.88047" lon="4.77668">
        <ele>289.3</ele>
        <time>2021-04-19T12:45:51Z</time>
      </trkpt>
      <trkpt lat="49.8805" lon="4.77662">
        <ele>285.5</ele>
        <time>2021-04-19T12:45:55Z</time>
      </trkpt>
      <trkpt lat="49.88052" lon="4.77656">
        <ele>279</ele>
        <time>2021-04-19T12:45:58Z</time>
      </trkpt>
      <trkpt lat="49.88055" lon="4.77648">
        <ele>287.8</ele>
        <time>2021-04-19T12:46:04Z</time>
      </trkpt>
      <trkpt lat="49.88058" lon="4.77639">
        <ele>304.8</ele>
        <time>2021-04-19T12:46:09Z</time>
      </trkpt>
      <trkpt lat="49.88061" lon="4.77634">
        <ele>296.7</ele>
        <time>2021-04-19T12:46:14Z</time>
      </trkpt>
      <trkpt lat="49.88064" lon="4.77628">
        <ele>300.3</ele>
        <time>2021-04-19T12:46:18Z</time>
      </trkpt>
      <trkpt lat="49.88067" lon="4.77622">
        <ele>302.7</ele>
        <time>2021-04-19T12:46:23Z</time>
      </trkpt>
      <trkpt lat="49.88076" lon="4.77609">
        <ele>282.2</ele>
        <time>2021-04-19T12:46:33Z</time>
      </trkpt>
      <trkpt lat="49.88079" lon="4.77603">
        <ele>285.8</ele>
        <time>2021-04-19T12:46:37Z</time>
      </trkpt>
      <trkpt lat="49.88083" lon="4.77597">
        <ele>264.9</ele>
        <time>2021-04-19T12:46:41Z</time>
      </trkpt>
      <trkpt lat="49.88085" lon="4.77591">
        <ele>255.4</ele>
        <time>2021-04-19T12:46:45Z</time>
      </trkpt>
      <trkpt lat="49.88088" lon="4.77582">
        <ele>250.6</ele>
        <time>2021-04-19T12:46:51Z</time>
      </trkpt>
      <trkpt lat="49.88091" lon="4.77575">
        <ele>240.2</ele>
        <time>2021-04-19T12:46:55Z</time>
      </trkpt>
      <trkpt lat="49.88096" lon="4.77569">
        <ele>258.4</ele>
        <time>2021-04-19T12:46:58Z</time>
      </trkpt>
      <trkpt lat="49.88101" lon="4.77568">
        <ele>293.4</ele>
        <time>2021-04-19T12:47:03Z</time>
      </trkpt>
      <trkpt lat="49.88104" lon="4.77563">
        <ele>281.3</ele>
        <time>2021-04-19T12:47:07Z</time>
      </trkpt>
      <trkpt lat="49.88108" lon="4.77557">
        <ele>284.7</ele>
        <time>2021-04-19T12:47:11Z</time>
      </trkpt>
      <trkpt lat="49.88112" lon="4.77551">
        <ele>278.4</ele>
        <time>2021-04-19T12:47:16Z</time>
      </trkpt>
      <trkpt lat="49.88115" lon="4.77544">
        <ele>290.8</ele>
        <time>2021-04-19T12:47:20Z</time>
      </trkpt>
      <trkpt lat="49.88119" lon="4.77538">
        <ele>243.1</ele>
        <time>2021-04-19T12:47:25Z</time>
      </trkpt>
      <trkpt lat="49.88122" lon="4.77532">
        <ele>236.3</ele>
        <time>2021-04-19T12:47:29Z</time>
      </trkpt>
      <trkpt lat="49.88126" lon="4.77525">
        <ele>249.4</ele>
        <time>2021-04-19T12:47:34Z</time>
      </trkpt>
      <trkpt lat="49.8813" lon="4.77518">
        <ele>250</ele>
        <time>2021-04-19T12:47:39Z</time>
      </trkpt>
      <trkpt lat="49.88134" lon="4.77512">
        <ele>243.2</ele>
        <time>2021-04-19T12:47:43Z</time>
      </trkpt>
      <trkpt lat="49.88137" lon="4.77507">
        <ele>253.9</ele>
        <time>2021-04-19T12:47:48Z</time>
      </trkpt>
      <trkpt lat="49.88141" lon="4.77503">
        <ele>262.9</ele>
        <time>2021-04-19T12:47:53Z</time>
      </trkpt>
      <trkpt lat="49.88146" lon="4.77499">
        <ele>259.2</ele>
        <time>2021-04-19T12:47:59Z</time>
      </trkpt>
      <trkpt lat="49.88149" lon="4.77493">
        <ele>299.1</ele>
        <time>2021-04-19T12:48:05Z</time>
      </trkpt>
      <trkpt lat="49.88152" lon="4.77486">
        <ele>251.5</ele>
        <time>2021-04-19T12:48:10Z</time>
      </trkpt>
      <trkpt lat="49.88155" lon="4.77479">
        <ele>260</ele>
        <time>2021-04-19T12:48:14Z</time>
      </trkpt>
      <trkpt lat="49.88157" lon="4.77471">
        <ele>255.3</ele>
        <time>2021-04-19T12:48:19Z</time>
      </trkpt>
      <trkpt lat="49.8816" lon="4.77465">
        <ele>256.2</ele>
        <time>2021-04-19T12:48:24Z</time>
      </trkpt>
      <trkpt lat="49.88162" lon="4.77458">
        <ele>273</ele>
        <time>2021-04-19T12:48:29Z</time>
      </trkpt>
      <trkpt lat="49.88165" lon="4.7745">
        <ele>243.2</ele>
        <time>2021-04-19T12:48:35Z</time>
      </trkpt>
      <trkpt lat="49.88167" lon="4.77444">
        <ele>229.4</ele>
        <time>2021-04-19T12:48:39Z</time>
      </trkpt>
      <trkpt lat="49.8817" lon="4.77438">
        <ele>228.7</ele>
        <time>2021-04-19T12:48:43Z</time>
      </trkpt>
      <trkpt lat="49.88174" lon="4.77432">
        <ele>282.2</ele>
        <time>2021-04-19T12:48:48Z</time>
      </trkpt>
      <trkpt lat="49.88178" lon="4.77429">
        <ele>281.2</ele>
        <time>2021-04-19T12:48:54Z</time>
      </trkpt>
      <trkpt lat="49.88182" lon="4.77424">
        <ele>254.9</ele>
        <time>2021-04-19T12:48:58Z</time>
      </trkpt>
      <trkpt lat="49.88188" lon="4.7741">
        <ele>249.1</ele>
        <time>2021-04-19T12:49:06Z</time>
      </trkpt>
      <trkpt lat="49.88192" lon="4.77403">
        <ele>297.1</ele>
        <time>2021-04-19T12:49:10Z</time>
      </trkpt>
      <trkpt lat="49.88197" lon="4.77398">
        <ele>280.6</ele>
        <time>2021-04-19T12:49:14Z</time>
      </trkpt>
      <trkpt lat="49.88201" lon="4.77394">
        <ele>286</ele>
        <time>2021-04-19T12:49:18Z</time>
      </trkpt>
      <trkpt lat="49.88206" lon="4.77389">
        <ele>283.1</ele>
        <time>2021-04-19T12:49:22Z</time>
      </trkpt>
      <trkpt lat="49.8821" lon="4.77384">
        <ele>284.3</ele>
        <time>2021-04-19T12:49:27Z</time>
      </trkpt>
      <trkpt lat="49.88213" lon="4.77378">
        <ele>304.9</ele>
        <time>2021-04-19T12:49:35Z</time>
      </trkpt>
      <trkpt lat="49.88216" lon="4.77372">
        <ele>297.7</ele>
        <time>2021-04-19T12:49:40Z</time>
      </trkpt>
      <trkpt lat="49.88218" lon="4.77366">
        <ele>296</ele>
        <time>2021-04-19T12:49:44Z</time>
      </trkpt>
      <trkpt lat="49.88221" lon="4.77359">
        <ele>245</ele>
        <time>2021-04-19T12:49:49Z</time>
      </trkpt>
      <trkpt lat="49.88224" lon="4.77351">
        <ele>232.4</ele>
        <time>2021-04-19T12:49:54Z</time>
      </trkpt>
      <trkpt lat="49.88228" lon="4.77343">
        <ele>229.6</ele>
        <time>2021-04-19T12:49:58Z</time>
      </trkpt>
      <trkpt lat="49.88232" lon="4.77337">
        <ele>281.7</ele>
        <time>2021-04-19T12:50:03Z</time>
      </trkpt>
      <trkpt lat="49.88235" lon="4.7733">
        <ele>245.4</ele>
        <time>2021-04-19T12:50:08Z</time>
      </trkpt>
      <trkpt lat="49.88237" lon="4.77324">
        <ele>246.5</ele>
        <time>2021-04-19T12:50:12Z</time>
      </trkpt>
      <trkpt lat="49.8824" lon="4.77317">
        <ele>250.7</ele>
        <time>2021-04-19T12:50:16Z</time>
      </trkpt>
      <trkpt lat="49.88243" lon="4.7731">
        <ele>250.7</ele>
        <time>2021-04-19T12:50:20Z</time>
      </trkpt>
      <trkpt lat="49.88245" lon="4.77303">
        <ele>245.6</ele>
        <time>2021-04-19T12:50:25Z</time>
      </trkpt>
      <trkpt lat="49.88244" lon="4.77295">
        <ele>231.9</ele>
        <time>2021-04-19T12:50:29Z</time>
      </trkpt>
      <trkpt lat="49.88242" lon="4.77287">
        <ele>228.9</ele>
        <time>2021-04-19T12:50:33Z</time>
      </trkpt>
      <trkpt lat="49.88239" lon="4.77279">
        <ele>248</ele>
        <time>2021-04-19T12:50:38Z</time>
      </trkpt>
      <trkpt lat="49.88236" lon="4.77272">
        <ele>256.8</ele>
        <time>2021-04-19T12:50:43Z</time>
      </trkpt>
      <trkpt lat="49.88233" lon="4.77266">
        <ele>243.6</ele>
        <time>2021-04-19T12:50:47Z</time>
      </trkpt>
      <trkpt lat="49.88231" lon="4.7726">
        <ele>237.5</ele>
        <time>2021-04-19T12:50:52Z</time>
      </trkpt>
      <trkpt lat="49.88228" lon="4.77254">
        <ele>257.9</ele>
        <time>2021-04-19T12:50:58Z</time>
      </trkpt>
      <trkpt lat="49.88225" lon="4.77246">
        <ele>252</ele>
        <time>2021-04-19T12:51:08Z</time>
      </trkpt>
      <trkpt lat="49.88223" lon="4.77239">
        <ele>247.4</ele>
        <time>2021-04-19T12:51:15Z</time>
      </trkpt>
      <trkpt lat="49.8822" lon="4.77233">
        <ele>286.6</ele>
        <time>2021-04-19T12:51:23Z</time>
      </trkpt>
      <trkpt lat="49.88217" lon="4.77226">
        <ele>284.2</ele>
        <time>2021-04-19T12:51:27Z</time>
      </trkpt>
      <trkpt lat="49.88216" lon="4.77215">
        <ele>289.2</ele>
        <time>2021-04-19T12:51:31Z</time>
      </trkpt>
      <trkpt lat="49.88215" lon="4.77205">
        <ele>295.5</ele>
        <time>2021-04-19T12:51:36Z</time>
      </trkpt>
      <trkpt lat="49.88215" lon="4.77197">
        <ele>293.4</ele>
        <time>2021-04-19T12:51:39Z</time>
      </trkpt>
      <trkpt lat="49.88215" lon="4.77188">
        <ele>309.9</ele>
        <time>2021-04-19T12:51:43Z</time>
      </trkpt>
      <trkpt lat="49.88215" lon="4.77178">
        <ele>296.3</ele>
        <time>2021-04-19T12:51:48Z</time>
      </trkpt>
      <trkpt lat="49.88213" lon="4.77171">
        <ele>179.7</ele>
        <time>2021-04-19T12:51:51Z</time>
      </trkpt>
      <trkpt lat="49.88211" lon="4.77163">
        <ele>178.5</ele>
        <time>2021-04-19T12:51:55Z</time>
      </trkpt>
      <trkpt lat="49.88209" lon="4.77155">
        <ele>181.5</ele>
        <time>2021-04-19T12:51:59Z</time>
      </trkpt>
      <trkpt lat="49.88207" lon="4.77148">
        <ele>190</ele>
        <time>2021-04-19T12:52:03Z</time>
      </trkpt>
      <trkpt lat="49.88206" lon="4.77139">
        <ele>187.4</ele>
        <time>2021-04-19T12:52:08Z</time>
      </trkpt>
      <trkpt lat="49.88205" lon="4.77131">
        <ele>183.7</ele>
        <time>2021-04-19T12:52:13Z</time>
      </trkpt>
      <trkpt lat="49.88203" lon="4.77123">
        <ele>180.5</ele>
        <time>2021-04-19T12:52:18Z</time>
      </trkpt>
      <trkpt lat="49.88203" lon="4.77114">
        <ele>176.6</ele>
        <time>2021-04-19T12:52:24Z</time>
      </trkpt>
      <trkpt lat="49.88202" lon="4.77106">
        <ele>170.1</ele>
        <time>2021-04-19T12:52:33Z</time>
      </trkpt>
      <trkpt lat="49.882" lon="4.77099">
        <ele>171.4</ele>
        <time>2021-04-19T12:52:37Z</time>
      </trkpt>
      <trkpt lat="49.88198" lon="4.77092">
        <ele>176.9</ele>
        <time>2021-04-19T12:52:40Z</time>
      </trkpt>
      <trkpt lat="49.88196" lon="4.77084">
        <ele>178.5</ele>
        <time>2021-04-19T12:52:44Z</time>
      </trkpt>
      <trkpt lat="49.88195" lon="4.77077">
        <ele>176.5</ele>
        <time>2021-04-19T12:52:48Z</time>
      </trkpt>
      <trkpt lat="49.88195" lon="4.77069">
        <ele>175.1</ele>
        <time>2021-04-19T12:52:51Z</time>
      </trkpt>
      <trkpt lat="49.88196" lon="4.77059">
        <ele>181.8</ele>
        <time>2021-04-19T12:52:55Z</time>
      </trkpt>
      <trkpt lat="49.88196" lon="4.7705">
        <ele>183.4</ele>
        <time>2021-04-19T12:52:58Z</time>
      </trkpt>
      <trkpt lat="49.88194" lon="4.77042">
        <ele>174.7</ele>
        <time>2021-04-19T12:53:03Z</time>
      </trkpt>
      <trkpt lat="49.88192" lon="4.77035">
        <ele>178.5</ele>
        <time>2021-04-19T12:53:07Z</time>
      </trkpt>
      <trkpt lat="49.8819" lon="4.77027">
        <ele>172.7</ele>
        <time>2021-04-19T12:53:12Z</time>
      </trkpt>
      <trkpt lat="49.8819" lon="4.7702">
        <ele>183</ele>
        <time>2021-04-19T12:53:17Z</time>
      </trkpt>
      <trkpt lat="49.88191" lon="4.77012">
        <ele>181.6</ele>
        <time>2021-04-19T12:53:23Z</time>
      </trkpt>
      <trkpt lat="49.88191" lon="4.77003">
        <ele>182.7</ele>
        <time>2021-04-19T12:53:28Z</time>
      </trkpt>
      <trkpt lat="49.88192" lon="4.76995">
        <ele>182.7</ele>
        <time>2021-04-19T12:53:32Z</time>
      </trkpt>
      <trkpt lat="49.88194" lon="4.76986">
        <ele>178.9</ele>
        <time>2021-04-19T12:53:37Z</time>
      </trkpt>
      <trkpt lat="49.88195" lon="4.76979">
        <ele>182.5</ele>
        <time>2021-04-19T12:53:41Z</time>
      </trkpt>
      <trkpt lat="49.88196" lon="4.76971">
        <ele>182.2</ele>
        <time>2021-04-19T12:53:45Z</time>
      </trkpt>
      <trkpt lat="49.88197" lon="4.76964">
        <ele>180</ele>
        <time>2021-04-19T12:53:51Z</time>
      </trkpt>
      <trkpt lat="49.88197" lon="4.76956">
        <ele>177.2</ele>
        <time>2021-04-19T12:53:55Z</time>
      </trkpt>
      <trkpt lat="49.88197" lon="4.76949">
        <ele>189.4</ele>
        <time>2021-04-19T12:53:59Z</time>
      </trkpt>
      <trkpt lat="49.88197" lon="4.76941">
        <ele>188.9</ele>
        <time>2021-04-19T12:54:06Z</time>
      </trkpt>
      <trkpt lat="49.88196" lon="4.76934">
        <ele>185.4</ele>
        <time>2021-04-19T12:54:12Z</time>
      </trkpt>
      <trkpt lat="49.88194" lon="4.76926">
        <ele>190</ele>
        <time>2021-04-19T12:54:17Z</time>
      </trkpt>
      <trkpt lat="49.88196" lon="4.76917">
        <ele>187.2</ele>
        <time>2021-04-19T12:54:22Z</time>
      </trkpt>
      <trkpt lat="49.88196" lon="4.7691">
        <ele>181</ele>
        <time>2021-04-19T12:54:26Z</time>
      </trkpt>
      <trkpt lat="49.88196" lon="4.76903">
        <ele>182.3</ele>
        <time>2021-04-19T12:54:31Z</time>
      </trkpt>
      <trkpt lat="49.88195" lon="4.76895">
        <ele>184.6</ele>
        <time>2021-04-19T12:54:35Z</time>
      </trkpt>
      <trkpt lat="49.88195" lon="4.76886">
        <ele>185.2</ele>
        <time>2021-04-19T12:54:40Z</time>
      </trkpt>
      <trkpt lat="49.88197" lon="4.76875">
        <ele>177</ele>
        <time>2021-04-19T12:54:48Z</time>
      </trkpt>
      <trkpt lat="49.88196" lon="4.76868">
        <ele>169.6</ele>
        <time>2021-04-19T12:54:54Z</time>
      </trkpt>
      <trkpt lat="49.88196" lon="4.76858">
        <ele>169</ele>
        <time>2021-04-19T12:54:59Z</time>
      </trkpt>
      <trkpt lat="49.88194" lon="4.76851">
        <ele>171.8</ele>
        <time>2021-04-19T12:55:02Z</time>
      </trkpt>
      <trkpt lat="49.88192" lon="4.76842">
        <ele>169.5</ele>
        <time>2021-04-19T12:55:06Z</time>
      </trkpt>
      <trkpt lat="49.88191" lon="4.76833">
        <ele>174.7</ele>
        <time>2021-04-19T12:55:11Z</time>
      </trkpt>
      <trkpt lat="49.88191" lon="4.76824">
        <ele>168.6</ele>
        <time>2021-04-19T12:55:17Z</time>
      </trkpt>
      <trkpt lat="49.88191" lon="4.76816">
        <ele>179.4</ele>
        <time>2021-04-19T12:55:24Z</time>
      </trkpt>
      <trkpt lat="49.88193" lon="4.76802">
        <ele>183.9</ele>
        <time>2021-04-19T12:55:30Z</time>
      </trkpt>
      <trkpt lat="49.88193" lon="4.76794">
        <ele>176.6</ele>
        <time>2021-04-19T12:55:34Z</time>
      </trkpt>
      <trkpt lat="49.88192" lon="4.76784">
        <ele>172.9</ele>
        <time>2021-04-19T12:55:39Z</time>
      </trkpt>
      <trkpt lat="49.88191" lon="4.76775">
        <ele>172.2</ele>
        <time>2021-04-19T12:55:44Z</time>
      </trkpt>
      <trkpt lat="49.8819" lon="4.76766">
        <ele>177.3</ele>
        <time>2021-04-19T12:55:48Z</time>
      </trkpt>
      <trkpt lat="49.88189" lon="4.76759">
        <ele>180.1</ele>
        <time>2021-04-19T12:55:52Z</time>
      </trkpt>
      <trkpt lat="49.88188" lon="4.7675">
        <ele>167.1</ele>
        <time>2021-04-19T12:55:56Z</time>
      </trkpt>
      <trkpt lat="49.8819" lon="4.76742">
        <ele>172.1</ele>
        <time>2021-04-19T12:56:01Z</time>
      </trkpt>
      <trkpt lat="49.8819" lon="4.76734">
        <ele>135.9</ele>
        <time>2021-04-19T12:56:07Z</time>
      </trkpt>
      <trkpt lat="49.88189" lon="4.76726">
        <ele>137.8</ele>
        <time>2021-04-19T12:56:12Z</time>
      </trkpt>
      <trkpt lat="49.88189" lon="4.76718">
        <ele>137.4</ele>
        <time>2021-04-19T12:56:17Z</time>
      </trkpt>
      <trkpt lat="49.8819" lon="4.76711">
        <ele>137.3</ele>
        <time>2021-04-19T12:56:22Z</time>
      </trkpt>
      <trkpt lat="49.88191" lon="4.76703">
        <ele>135.7</ele>
        <time>2021-04-19T12:56:26Z</time>
      </trkpt>
      <trkpt lat="49.88192" lon="4.76695">
        <ele>135.7</ele>
        <time>2021-04-19T12:56:30Z</time>
      </trkpt>
      <trkpt lat="49.88193" lon="4.76688">
        <ele>137.1</ele>
        <time>2021-04-19T12:56:34Z</time>
      </trkpt>
      <trkpt lat="49.88194" lon="4.76681">
        <ele>136.9</ele>
        <time>2021-04-19T12:56:39Z</time>
      </trkpt>
      <trkpt lat="49.88192" lon="4.76673">
        <ele>137</ele>
        <time>2021-04-19T12:56:45Z</time>
      </trkpt>
      <trkpt lat="49.88192" lon="4.76664">
        <ele>138.3</ele>
        <time>2021-04-19T12:56:49Z</time>
      </trkpt>
      <trkpt lat="49.88194" lon="4.76655">
        <ele>136.6</ele>
        <time>2021-04-19T12:56:54Z</time>
      </trkpt>
      <trkpt lat="49.88196" lon="4.76647">
        <ele>135.7</ele>
        <time>2021-04-19T12:56:58Z</time>
      </trkpt>
      <trkpt lat="49.882" lon="4.7664">
        <ele>135.4</ele>
        <time>2021-04-19T12:57:02Z</time>
      </trkpt>
      <trkpt lat="49.88201" lon="4.76633">
        <ele>135.6</ele>
        <time>2021-04-19T12:57:06Z</time>
      </trkpt>
      <trkpt lat="49.88203" lon="4.76626">
        <ele>135.6</ele>
        <time>2021-04-19T12:57:10Z</time>
      </trkpt>
      <trkpt lat="49.88206" lon="4.76619">
        <ele>136.5</ele>
        <time>2021-04-19T12:57:14Z</time>
      </trkpt>
      <trkpt lat="49.88209" lon="4.76612">
        <ele>136.3</ele>
        <time>2021-04-19T12:57:18Z</time>
      </trkpt>
      <trkpt lat="49.8821" lon="4.76604">
        <ele>134.8</ele>
        <time>2021-04-19T12:57:23Z</time>
      </trkpt>
      <trkpt lat="49.88209" lon="4.76596">
        <ele>135.7</ele>
        <time>2021-04-19T12:57:27Z</time>
      </trkpt>
      <trkpt lat="49.88209" lon="4.76587">
        <ele>135.1</ele>
        <time>2021-04-19T12:57:32Z</time>
      </trkpt>
      <trkpt lat="49.8821" lon="4.76578">
        <ele>134.9</ele>
        <time>2021-04-19T12:57:37Z</time>
      </trkpt>
      <trkpt lat="49.88209" lon="4.7657">
        <ele>134.9</ele>
        <time>2021-04-19T12:57:42Z</time>
      </trkpt>
      <trkpt lat="49.88208" lon="4.76562">
        <ele>137.5</ele>
        <time>2021-04-19T12:57:48Z</time>
      </trkpt>
      <trkpt lat="49.88208" lon="4.76554">
        <ele>137.2</ele>
        <time>2021-04-19T12:57:52Z</time>
      </trkpt>
      <trkpt lat="49.88207" lon="4.76546">
        <ele>137.5</ele>
        <time>2021-04-19T12:57:56Z</time>
      </trkpt>
      <trkpt lat="49.88208" lon="4.76538">
        <ele>137.9</ele>
        <time>2021-04-19T12:58:01Z</time>
      </trkpt>
      <trkpt lat="49.88209" lon="4.7653">
        <ele>138.2</ele>
        <time>2021-04-19T12:58:05Z</time>
      </trkpt>
      <trkpt lat="49.88209" lon="4.76522">
        <ele>136.3</ele>
        <time>2021-04-19T12:58:10Z</time>
      </trkpt>
      <trkpt lat="49.88208" lon="4.76515">
        <ele>136.6</ele>
        <time>2021-04-19T12:58:14Z</time>
      </trkpt>
      <trkpt lat="49.88208" lon="4.76507">
        <ele>136.6</ele>
        <time>2021-04-19T12:58:21Z</time>
      </trkpt>
      <trkpt lat="49.88208" lon="4.76499">
        <ele>136.2</ele>
        <time>2021-04-19T12:58:25Z</time>
      </trkpt>
      <trkpt lat="49.88206" lon="4.76491">
        <ele>137.3</ele>
        <time>2021-04-19T12:58:30Z</time>
      </trkpt>
      <trkpt lat="49.88204" lon="4.76481">
        <ele>138.1</ele>
        <time>2021-04-19T12:58:35Z</time>
      </trkpt>
      <trkpt lat="49.88202" lon="4.76473">
        <ele>137.1</ele>
        <time>2021-04-19T12:58:39Z</time>
      </trkpt>
      <trkpt lat="49.88207" lon="4.76443">
        <ele>136</ele>
        <time>2021-04-19T12:58:52Z</time>
      </trkpt>
      <trkpt lat="49.88207" lon="4.76434">
        <ele>137.9</ele>
        <time>2021-04-19T12:58:56Z</time>
      </trkpt>
      <trkpt lat="49.88207" lon="4.76426">
        <ele>137.2</ele>
        <time>2021-04-19T12:59:00Z</time>
      </trkpt>
      <trkpt lat="49.88206" lon="4.76417">
        <ele>138</ele>
        <time>2021-04-19T12:59:05Z</time>
      </trkpt>
      <trkpt lat="49.88207" lon="4.76402">
        <ele>138.7</ele>
        <time>2021-04-19T12:59:12Z</time>
      </trkpt>
      <trkpt lat="49.88207" lon="4.76393">
        <ele>137.3</ele>
        <time>2021-04-19T12:59:16Z</time>
      </trkpt>
      <trkpt lat="49.88206" lon="4.76386">
        <ele>136.7</ele>
        <time>2021-04-19T12:59:20Z</time>
      </trkpt>
      <trkpt lat="49.88206" lon="4.76378">
        <ele>137.2</ele>
        <time>2021-04-19T12:59:24Z</time>
      </trkpt>
      <trkpt lat="49.88206" lon="4.76369">
        <ele>136.6</ele>
        <time>2021-04-19T12:59:29Z</time>
      </trkpt>
      <trkpt lat="49.88206" lon="4.76361">
        <ele>135</ele>
        <time>2021-04-19T12:59:34Z</time>
      </trkpt>
      <trkpt lat="49.88205" lon="4.76353">
        <ele>134.5</ele>
        <time>2021-04-19T12:59:40Z</time>
      </trkpt>
      <trkpt lat="49.88204" lon="4.76345">
        <ele>133.5</ele>
        <time>2021-04-19T12:59:46Z</time>
      </trkpt>
      <trkpt lat="49.88204" lon="4.76337">
        <ele>131.1</ele>
        <time>2021-04-19T12:59:49Z</time>
      </trkpt>
      <trkpt lat="49.88203" lon="4.7633">
        <ele>131.1</ele>
        <time>2021-04-19T12:59:53Z</time>
      </trkpt>
      <trkpt lat="49.88203" lon="4.7632">
        <ele>131.4</ele>
        <time>2021-04-19T12:59:58Z</time>
      </trkpt>
      <trkpt lat="49.88202" lon="4.76313">
        <ele>132.8</ele>
        <time>2021-04-19T13:00:01Z</time>
      </trkpt>
      <trkpt lat="49.88201" lon="4.76305">
        <ele>130.5</ele>
        <time>2021-04-19T13:00:05Z</time>
      </trkpt>
      <trkpt lat="49.88202" lon="4.76288">
        <ele>131.6</ele>
        <time>2021-04-19T13:00:13Z</time>
      </trkpt>
      <trkpt lat="49.88201" lon="4.76281">
        <ele>132.1</ele>
        <time>2021-04-19T13:00:16Z</time>
      </trkpt>
      <trkpt lat="49.882" lon="4.76273">
        <ele>132.2</ele>
        <time>2021-04-19T13:00:20Z</time>
      </trkpt>
      <trkpt lat="49.88201" lon="4.76246">
        <ele>132.6</ele>
        <time>2021-04-19T13:00:33Z</time>
      </trkpt>
      <trkpt lat="49.88202" lon="4.76239">
        <ele>135.4</ele>
        <time>2021-04-19T13:00:36Z</time>
      </trkpt>
      <trkpt lat="49.88201" lon="4.76231">
        <ele>134.8</ele>
        <time>2021-04-19T13:00:40Z</time>
      </trkpt>
      <trkpt lat="49.88201" lon="4.76222">
        <ele>134.2</ele>
        <time>2021-04-19T13:00:46Z</time>
      </trkpt>
      <trkpt lat="49.882" lon="4.76214">
        <ele>134.1</ele>
        <time>2021-04-19T13:00:51Z</time>
      </trkpt>
      <trkpt lat="49.88204" lon="4.76204">
        <ele>132.8</ele>
        <time>2021-04-19T13:00:57Z</time>
      </trkpt>
      <trkpt lat="49.88204" lon="4.7617">
        <ele>135.2</ele>
        <time>2021-04-19T13:01:11Z</time>
      </trkpt>
      <trkpt lat="49.88205" lon="4.76161">
        <ele>134.8</ele>
        <time>2021-04-19T13:01:15Z</time>
      </trkpt>
      <trkpt lat="49.88207" lon="4.76131">
        <ele>133.9</ele>
        <time>2021-04-19T13:01:28Z</time>
      </trkpt>
      <trkpt lat="49.88207" lon="4.76103">
        <ele>136.4</ele>
        <time>2021-04-19T13:01:41Z</time>
      </trkpt>
      <trkpt lat="49.88207" lon="4.76096">
        <ele>135.3</ele>
        <time>2021-04-19T13:01:45Z</time>
      </trkpt>
      <trkpt lat="49.88206" lon="4.76088">
        <ele>135.7</ele>
        <time>2021-04-19T13:01:49Z</time>
      </trkpt>
      <trkpt lat="49.88207" lon="4.7608">
        <ele>136.8</ele>
        <time>2021-04-19T13:01:53Z</time>
      </trkpt>
      <trkpt lat="49.88208" lon="4.76072">
        <ele>137.3</ele>
        <time>2021-04-19T13:01:57Z</time>
      </trkpt>
      <trkpt lat="49.88214" lon="4.76047">
        <ele>136.2</ele>
        <time>2021-04-19T13:02:10Z</time>
      </trkpt>
      <trkpt lat="49.88215" lon="4.7604">
        <ele>135.6</ele>
        <time>2021-04-19T13:02:13Z</time>
      </trkpt>
      <trkpt lat="49.88213" lon="4.76031">
        <ele>134.7</ele>
        <time>2021-04-19T13:02:18Z</time>
      </trkpt>
      <trkpt lat="49.88213" lon="4.76005">
        <ele>136.1</ele>
        <time>2021-04-19T13:02:29Z</time>
      </trkpt>
      <trkpt lat="49.88214" lon="4.75995">
        <ele>136.9</ele>
        <time>2021-04-19T13:02:33Z</time>
      </trkpt>
      <trkpt lat="49.88216" lon="4.75987">
        <ele>136.8</ele>
        <time>2021-04-19T13:02:37Z</time>
      </trkpt>
      <trkpt lat="49.88218" lon="4.75976">
        <ele>138.5</ele>
        <time>2021-04-19T13:02:42Z</time>
      </trkpt>
      <trkpt lat="49.88219" lon="4.75968">
        <ele>137.8</ele>
        <time>2021-04-19T13:02:46Z</time>
      </trkpt>
      <trkpt lat="49.88219" lon="4.75961">
        <ele>136.3</ele>
        <time>2021-04-19T13:02:50Z</time>
      </trkpt>
      <trkpt lat="49.88219" lon="4.75953">
        <ele>137</ele>
        <time>2021-04-19T13:02:54Z</time>
      </trkpt>
      <trkpt lat="49.88221" lon="4.75944">
        <ele>134.8</ele>
        <time>2021-04-19T13:02:59Z</time>
      </trkpt>
      <trkpt lat="49.88224" lon="4.75931">
        <ele>134.8</ele>
        <time>2021-04-19T13:03:05Z</time>
      </trkpt>
      <trkpt lat="49.88224" lon="4.75923">
        <ele>135.3</ele>
        <time>2021-04-19T13:03:08Z</time>
      </trkpt>
      <trkpt lat="49.88222" lon="4.75914">
        <ele>133.3</ele>
        <time>2021-04-19T13:03:13Z</time>
      </trkpt>
      <trkpt lat="49.88221" lon="4.75906">
        <ele>132.9</ele>
        <time>2021-04-19T13:03:17Z</time>
      </trkpt>
      <trkpt lat="49.88219" lon="4.75899">
        <ele>132.7</ele>
        <time>2021-04-19T13:03:21Z</time>
      </trkpt>
      <trkpt lat="49.88217" lon="4.75891">
        <ele>132.8</ele>
        <time>2021-04-19T13:03:25Z</time>
      </trkpt>
      <trkpt lat="49.88215" lon="4.75884">
        <ele>132.9</ele>
        <time>2021-04-19T13:03:29Z</time>
      </trkpt>
      <trkpt lat="49.88215" lon="4.75875">
        <ele>132.8</ele>
        <time>2021-04-19T13:03:34Z</time>
      </trkpt>
      <trkpt lat="49.88219" lon="4.75862">
        <ele>134.1</ele>
        <time>2021-04-19T13:03:42Z</time>
      </trkpt>
      <trkpt lat="49.8822" lon="4.75853">
        <ele>133.7</ele>
        <time>2021-04-19T13:03:46Z</time>
      </trkpt>
      <trkpt lat="49.8822" lon="4.75846">
        <ele>134.8</ele>
        <time>2021-04-19T13:03:51Z</time>
      </trkpt>
      <trkpt lat="49.88221" lon="4.75836">
        <ele>133.4</ele>
        <time>2021-04-19T13:03:57Z</time>
      </trkpt>
      <trkpt lat="49.88222" lon="4.75829">
        <ele>134.1</ele>
        <time>2021-04-19T13:04:01Z</time>
      </trkpt>
      <trkpt lat="49.88223" lon="4.75821">
        <ele>132.9</ele>
        <time>2021-04-19T13:04:07Z</time>
      </trkpt>
      <trkpt lat="49.88222" lon="4.75813">
        <ele>132.3</ele>
        <time>2021-04-19T13:04:11Z</time>
      </trkpt>
      <trkpt lat="49.8822" lon="4.75806">
        <ele>132.7</ele>
        <time>2021-04-19T13:04:15Z</time>
      </trkpt>
      <trkpt lat="49.8822" lon="4.75798">
        <ele>134.2</ele>
        <time>2021-04-19T13:04:19Z</time>
      </trkpt>
      <trkpt lat="49.88222" lon="4.7579">
        <ele>132.7</ele>
        <time>2021-04-19T13:04:23Z</time>
      </trkpt>
      <trkpt lat="49.88223" lon="4.75783">
        <ele>134.6</ele>
        <time>2021-04-19T13:04:27Z</time>
      </trkpt>
      <trkpt lat="49.88223" lon="4.75773">
        <ele>134.1</ele>
        <time>2021-04-19T13:04:32Z</time>
      </trkpt>
      <trkpt lat="49.88223" lon="4.75765">
        <ele>133.1</ele>
        <time>2021-04-19T13:04:37Z</time>
      </trkpt>
      <trkpt lat="49.88222" lon="4.75757">
        <ele>131</ele>
        <time>2021-04-19T13:04:41Z</time>
      </trkpt>
      <trkpt lat="49.88221" lon="4.75749">
        <ele>132.3</ele>
        <time>2021-04-19T13:04:46Z</time>
      </trkpt>
      <trkpt lat="49.88221" lon="4.75741">
        <ele>133.2</ele>
        <time>2021-04-19T13:04:49Z</time>
      </trkpt>
      <trkpt lat="49.88221" lon="4.75734">
        <ele>133.1</ele>
        <time>2021-04-19T13:04:53Z</time>
      </trkpt>
      <trkpt lat="49.8822" lon="4.75726">
        <ele>133.2</ele>
        <time>2021-04-19T13:04:57Z</time>
      </trkpt>
      <trkpt lat="49.88221" lon="4.75719">
        <ele>132.4</ele>
        <time>2021-04-19T13:05:02Z</time>
      </trkpt>
      <trkpt lat="49.88221" lon="4.7571">
        <ele>134.5</ele>
        <time>2021-04-19T13:05:06Z</time>
      </trkpt>
      <trkpt lat="49.88219" lon="4.75703">
        <ele>134.9</ele>
        <time>2021-04-19T13:05:09Z</time>
      </trkpt>
      <trkpt lat="49.88219" lon="4.75695">
        <ele>132.4</ele>
        <time>2021-04-19T13:05:13Z</time>
      </trkpt>
      <trkpt lat="49.88219" lon="4.75688">
        <ele>132.1</ele>
        <time>2021-04-19T13:05:17Z</time>
      </trkpt>
      <trkpt lat="49.88219" lon="4.7568">
        <ele>133.8</ele>
        <time>2021-04-19T13:05:21Z</time>
      </trkpt>
      <trkpt lat="49.8822" lon="4.75671">
        <ele>136</ele>
        <time>2021-04-19T13:05:25Z</time>
      </trkpt>
      <trkpt lat="49.88221" lon="4.75664">
        <ele>134.5</ele>
        <time>2021-04-19T13:05:29Z</time>
      </trkpt>
      <trkpt lat="49.88223" lon="4.75656">
        <ele>133.8</ele>
        <time>2021-04-19T13:05:33Z</time>
      </trkpt>
      <trkpt lat="49.88225" lon="4.75645">
        <ele>134.9</ele>
        <time>2021-04-19T13:05:38Z</time>
      </trkpt>
      <trkpt lat="49.88224" lon="4.75636">
        <ele>133.8</ele>
        <time>2021-04-19T13:05:42Z</time>
      </trkpt>
      <trkpt lat="49.88223" lon="4.75626">
        <ele>134.3</ele>
        <time>2021-04-19T13:05:46Z</time>
      </trkpt>
      <trkpt lat="49.88222" lon="4.75619">
        <ele>135</ele>
        <time>2021-04-19T13:05:49Z</time>
      </trkpt>
      <trkpt lat="49.88218" lon="4.75611">
        <ele>134.1</ele>
        <time>2021-04-19T13:05:54Z</time>
      </trkpt>
      <trkpt lat="49.88218" lon="4.75603">
        <ele>130.9</ele>
        <time>2021-04-19T13:06:00Z</time>
      </trkpt>
      <trkpt lat="49.88219" lon="4.75595">
        <ele>132.2</ele>
        <time>2021-04-19T13:06:04Z</time>
      </trkpt>
      <trkpt lat="49.8822" lon="4.75586">
        <ele>133.3</ele>
        <time>2021-04-19T13:06:08Z</time>
      </trkpt>
      <trkpt lat="49.8822" lon="4.75579">
        <ele>130.5</ele>
        <time>2021-04-19T13:06:12Z</time>
      </trkpt>
      <trkpt lat="49.88218" lon="4.75573">
        <ele>130.9</ele>
        <time>2021-04-19T13:06:16Z</time>
      </trkpt>
      <trkpt lat="49.88216" lon="4.75565">
        <ele>135.8</ele>
        <time>2021-04-19T13:06:22Z</time>
      </trkpt>
      <trkpt lat="49.88217" lon="4.75558">
        <ele>132.5</ele>
        <time>2021-04-19T13:06:28Z</time>
      </trkpt>
      <trkpt lat="49.88217" lon="4.75551">
        <ele>132.9</ele>
        <time>2021-04-19T13:06:32Z</time>
      </trkpt>
      <trkpt lat="49.88216" lon="4.75542">
        <ele>133.6</ele>
        <time>2021-04-19T13:06:36Z</time>
      </trkpt>
      <trkpt lat="49.88215" lon="4.75534">
        <ele>133.1</ele>
        <time>2021-04-19T13:06:41Z</time>
      </trkpt>
      <trkpt lat="49.88214" lon="4.75526">
        <ele>131.9</ele>
        <time>2021-04-19T13:06:45Z</time>
      </trkpt>
      <trkpt lat="49.88215" lon="4.75519">
        <ele>131.3</ele>
        <time>2021-04-19T13:06:50Z</time>
      </trkpt>
      <trkpt lat="49.88217" lon="4.75511">
        <ele>133.2</ele>
        <time>2021-04-19T13:06:57Z</time>
      </trkpt>
      <trkpt lat="49.88215" lon="4.75504">
        <ele>132.5</ele>
        <time>2021-04-19T13:07:00Z</time>
      </trkpt>
      <trkpt lat="49.88215" lon="4.75493">
        <ele>129</ele>
        <time>2021-04-19T13:07:04Z</time>
      </trkpt>
      <trkpt lat="49.88215" lon="4.75486">
        <ele>131.7</ele>
        <time>2021-04-19T13:07:07Z</time>
      </trkpt>
      <trkpt lat="49.88218" lon="4.75479">
        <ele>132.2</ele>
        <time>2021-04-19T13:07:10Z</time>
      </trkpt>
      <trkpt lat="49.8822" lon="4.75471">
        <ele>132.9</ele>
        <time>2021-04-19T13:07:13Z</time>
      </trkpt>
      <trkpt lat="49.88219" lon="4.75463">
        <ele>133.2</ele>
        <time>2021-04-19T13:07:19Z</time>
      </trkpt>
      <trkpt lat="49.88221" lon="4.75455">
        <ele>133.9</ele>
        <time>2021-04-19T13:07:24Z</time>
      </trkpt>
      <trkpt lat="49.88223" lon="4.75448">
        <ele>133.3</ele>
        <time>2021-04-19T13:07:27Z</time>
      </trkpt>
      <trkpt lat="49.88222" lon="4.75437">
        <ele>133.3</ele>
        <time>2021-04-19T13:07:31Z</time>
      </trkpt>
      <trkpt lat="49.88222" lon="4.75429">
        <ele>132</ele>
        <time>2021-04-19T13:07:33Z</time>
      </trkpt>
      <trkpt lat="49.88222" lon="4.75421">
        <ele>133.9</ele>
        <time>2021-04-19T13:07:37Z</time>
      </trkpt>
      <trkpt lat="49.88223" lon="4.75411">
        <ele>132.6</ele>
        <time>2021-04-19T13:07:41Z</time>
      </trkpt>
      <trkpt lat="49.88226" lon="4.75404">
        <ele>134.3</ele>
        <time>2021-04-19T13:07:44Z</time>
      </trkpt>
      <trkpt lat="49.8823" lon="4.75397">
        <ele>136.8</ele>
        <time>2021-04-19T13:07:48Z</time>
      </trkpt>
      <trkpt lat="49.88231" lon="4.7539">
        <ele>136.8</ele>
        <time>2021-04-19T13:07:52Z</time>
      </trkpt>
      <trkpt lat="49.88233" lon="4.75382">
        <ele>138</ele>
        <time>2021-04-19T13:07:56Z</time>
      </trkpt>
      <trkpt lat="49.88234" lon="4.75375">
        <ele>138.3</ele>
        <time>2021-04-19T13:07:59Z</time>
      </trkpt>
      <trkpt lat="49.88236" lon="4.75368">
        <ele>140.6</ele>
        <time>2021-04-19T13:08:03Z</time>
      </trkpt>
      <trkpt lat="49.88238" lon="4.75361">
        <ele>141.8</ele>
        <time>2021-04-19T13:08:07Z</time>
      </trkpt>
      <trkpt lat="49.88238" lon="4.75354">
        <ele>139.4</ele>
        <time>2021-04-19T13:08:11Z</time>
      </trkpt>
      <trkpt lat="49.88237" lon="4.75347">
        <ele>139.4</ele>
        <time>2021-04-19T13:08:14Z</time>
      </trkpt>
      <trkpt lat="49.88236" lon="4.75339">
        <ele>138.7</ele>
        <time>2021-04-19T13:08:18Z</time>
      </trkpt>
      <trkpt lat="49.88236" lon="4.75332">
        <ele>137.4</ele>
        <time>2021-04-19T13:08:22Z</time>
      </trkpt>
      <trkpt lat="49.88236" lon="4.75324">
        <ele>135.8</ele>
        <time>2021-04-19T13:08:26Z</time>
      </trkpt>
      <trkpt lat="49.88236" lon="4.75316">
        <ele>134.4</ele>
        <time>2021-04-19T13:08:30Z</time>
      </trkpt>
      <trkpt lat="49.88235" lon="4.75309">
        <ele>133.2</ele>
        <time>2021-04-19T13:08:34Z</time>
      </trkpt>
      <trkpt lat="49.88236" lon="4.75301">
        <ele>134.5</ele>
        <time>2021-04-19T13:08:39Z</time>
      </trkpt>
      <trkpt lat="49.88237" lon="4.75293">
        <ele>135.4</ele>
        <time>2021-04-19T13:08:43Z</time>
      </trkpt>
      <trkpt lat="49.88239" lon="4.75285">
        <ele>134.4</ele>
        <time>2021-04-19T13:08:47Z</time>
      </trkpt>
      <trkpt lat="49.88243" lon="4.75277">
        <ele>136.2</ele>
        <time>2021-04-19T13:08:52Z</time>
      </trkpt>
      <trkpt lat="49.88244" lon="4.75269">
        <ele>133.4</ele>
        <time>2021-04-19T13:08:57Z</time>
      </trkpt>
      <trkpt lat="49.88245" lon="4.75261">
        <ele>131.9</ele>
        <time>2021-04-19T13:09:01Z</time>
      </trkpt>
      <trkpt lat="49.88245" lon="4.75252">
        <ele>131.3</ele>
        <time>2021-04-19T13:09:06Z</time>
      </trkpt>
      <trkpt lat="49.88246" lon="4.75244">
        <ele>131</ele>
        <time>2021-04-19T13:09:10Z</time>
      </trkpt>
      <trkpt lat="49.88245" lon="4.75236">
        <ele>130.5</ele>
        <time>2021-04-19T13:09:14Z</time>
      </trkpt>
      <trkpt lat="49.88244" lon="4.75227">
        <ele>131.2</ele>
        <time>2021-04-19T13:09:20Z</time>
      </trkpt>
      <trkpt lat="49.88244" lon="4.75219">
        <ele>131.6</ele>
        <time>2021-04-19T13:09:25Z</time>
      </trkpt>
      <trkpt lat="49.88245" lon="4.75212">
        <ele>131.6</ele>
        <time>2021-04-19T13:09:30Z</time>
      </trkpt>
      <trkpt lat="49.88247" lon="4.75205">
        <ele>132.7</ele>
        <time>2021-04-19T13:09:34Z</time>
      </trkpt>
      <trkpt lat="49.88249" lon="4.75198">
        <ele>133.2</ele>
        <time>2021-04-19T13:09:39Z</time>
      </trkpt>
      <trkpt lat="49.88249" lon="4.7519">
        <ele>131</ele>
        <time>2021-04-19T13:09:43Z</time>
      </trkpt>
      <trkpt lat="49.88249" lon="4.75182">
        <ele>128.5</ele>
        <time>2021-04-19T13:09:49Z</time>
      </trkpt>
      <trkpt lat="49.8825" lon="4.75173">
        <ele>129.8</ele>
        <time>2021-04-19T13:09:54Z</time>
      </trkpt>
      <trkpt lat="49.88252" lon="4.75164">
        <ele>130.5</ele>
        <time>2021-04-19T13:10:00Z</time>
      </trkpt>
      <trkpt lat="49.88254" lon="4.75158">
        <ele>132.4</ele>
        <time>2021-04-19T13:10:04Z</time>
      </trkpt>
      <trkpt lat="49.88256" lon="4.75151">
        <ele>132</ele>
        <time>2021-04-19T13:10:08Z</time>
      </trkpt>
      <trkpt lat="49.88258" lon="4.75145">
        <ele>132.6</ele>
        <time>2021-04-19T13:10:13Z</time>
      </trkpt>
      <trkpt lat="49.8826" lon="4.75138">
        <ele>135</ele>
        <time>2021-04-19T13:10:17Z</time>
      </trkpt>
      <trkpt lat="49.88261" lon="4.7513">
        <ele>133.8</ele>
        <time>2021-04-19T13:10:23Z</time>
      </trkpt>
      <trkpt lat="49.88263" lon="4.75121">
        <ele>134</ele>
        <time>2021-04-19T13:10:28Z</time>
      </trkpt>
      <trkpt lat="49.88265" lon="4.75114">
        <ele>132.7</ele>
        <time>2021-04-19T13:10:33Z</time>
      </trkpt>
      <trkpt lat="49.88268" lon="4.75108">
        <ele>130.9</ele>
        <time>2021-04-19T13:10:38Z</time>
      </trkpt>
      <trkpt lat="49.88269" lon="4.75101">
        <ele>130.4</ele>
        <time>2021-04-19T13:10:42Z</time>
      </trkpt>
      <trkpt lat="49.8827" lon="4.75093">
        <ele>128.9</ele>
        <time>2021-04-19T13:10:46Z</time>
      </trkpt>
      <trkpt lat="49.8827" lon="4.75085">
        <ele>129.6</ele>
        <time>2021-04-19T13:10:51Z</time>
      </trkpt>
      <trkpt lat="49.88269" lon="4.75076">
        <ele>128.6</ele>
        <time>2021-04-19T13:10:56Z</time>
      </trkpt>
      <trkpt lat="49.88269" lon="4.75069">
        <ele>128.5</ele>
        <time>2021-04-19T13:11:00Z</time>
      </trkpt>
      <trkpt lat="49.8827" lon="4.75062">
        <ele>128.4</ele>
        <time>2021-04-19T13:11:05Z</time>
      </trkpt>
      <trkpt lat="49.88271" lon="4.75053">
        <ele>128.8</ele>
        <time>2021-04-19T13:11:10Z</time>
      </trkpt>
      <trkpt lat="49.8827" lon="4.75046">
        <ele>128.7</ele>
        <time>2021-04-19T13:11:15Z</time>
      </trkpt>
      <trkpt lat="49.88269" lon="4.75038">
        <ele>129.1</ele>
        <time>2021-04-19T13:11:20Z</time>
      </trkpt>
      <trkpt lat="49.88268" lon="4.7503">
        <ele>131</ele>
        <time>2021-04-19T13:11:26Z</time>
      </trkpt>
      <trkpt lat="49.88266" lon="4.75025">
        <ele>129.3</ele>
        <time>2021-04-19T13:11:31Z</time>
      </trkpt>
      <trkpt lat="49.88266" lon="4.75017">
        <ele>129.4</ele>
        <time>2021-04-19T13:11:34Z</time>
      </trkpt>
      <trkpt lat="49.88268" lon="4.75008">
        <ele>128.5</ele>
        <time>2021-04-19T13:11:38Z</time>
      </trkpt>
      <trkpt lat="49.88268" lon="4.75">
        <ele>128.1</ele>
        <time>2021-04-19T13:11:42Z</time>
      </trkpt>
      <trkpt lat="49.88269" lon="4.74992">
        <ele>127.8</ele>
        <time>2021-04-19T13:11:46Z</time>
      </trkpt>
      <trkpt lat="49.88269" lon="4.74985">
        <ele>128.8</ele>
        <time>2021-04-19T13:11:50Z</time>
      </trkpt>
      <trkpt lat="49.88269" lon="4.74976">
        <ele>127.8</ele>
        <time>2021-04-19T13:11:54Z</time>
      </trkpt>
      <trkpt lat="49.88271" lon="4.74969">
        <ele>128.9</ele>
        <time>2021-04-19T13:11:58Z</time>
      </trkpt>
      <trkpt lat="49.88273" lon="4.7496">
        <ele>128.4</ele>
        <time>2021-04-19T13:12:02Z</time>
      </trkpt>
      <trkpt lat="49.88273" lon="4.74952">
        <ele>162.7</ele>
        <time>2021-04-19T13:12:05Z</time>
      </trkpt>
      <trkpt lat="49.88274" lon="4.74945">
        <ele>160.1</ele>
        <time>2021-04-19T13:12:09Z</time>
      </trkpt>
      <trkpt lat="49.88276" lon="4.74937">
        <ele>157.4</ele>
        <time>2021-04-19T13:12:13Z</time>
      </trkpt>
      <trkpt lat="49.88277" lon="4.7493">
        <ele>159.3</ele>
        <time>2021-04-19T13:12:17Z</time>
      </trkpt>
      <trkpt lat="49.88276" lon="4.74922">
        <ele>158.8</ele>
        <time>2021-04-19T13:12:22Z</time>
      </trkpt>
      <trkpt lat="49.88274" lon="4.74914">
        <ele>147.5</ele>
        <time>2021-04-19T13:12:26Z</time>
      </trkpt>
      <trkpt lat="49.88273" lon="4.74907">
        <ele>149.4</ele>
        <time>2021-04-19T13:12:30Z</time>
      </trkpt>
      <trkpt lat="49.88271" lon="4.74898">
        <ele>149.8</ele>
        <time>2021-04-19T13:12:34Z</time>
      </trkpt>
      <trkpt lat="49.88271" lon="4.74886">
        <ele>152</ele>
        <time>2021-04-19T13:12:41Z</time>
      </trkpt>
      <trkpt lat="49.8827" lon="4.74877">
        <ele>148.1</ele>
        <time>2021-04-19T13:12:46Z</time>
      </trkpt>
      <trkpt lat="49.88268" lon="4.74869">
        <ele>146.2</ele>
        <time>2021-04-19T13:12:50Z</time>
      </trkpt>
      <trkpt lat="49.88265" lon="4.74862">
        <ele>151</ele>
        <time>2021-04-19T13:12:54Z</time>
      </trkpt>
      <trkpt lat="49.88264" lon="4.74855">
        <ele>151.8</ele>
        <time>2021-04-19T13:12:59Z</time>
      </trkpt>
      <trkpt lat="49.88262" lon="4.74849">
        <ele>157.3</ele>
        <time>2021-04-19T13:13:03Z</time>
      </trkpt>
      <trkpt lat="49.88258" lon="4.74842">
        <ele>167.9</ele>
        <time>2021-04-19T13:13:08Z</time>
      </trkpt>
      <trkpt lat="49.88256" lon="4.74834">
        <ele>188.4</ele>
        <time>2021-04-19T13:13:13Z</time>
      </trkpt>
      <trkpt lat="49.88253" lon="4.74828">
        <ele>191.6</ele>
        <time>2021-04-19T13:13:17Z</time>
      </trkpt>
      <trkpt lat="49.8825" lon="4.74822">
        <ele>182.2</ele>
        <time>2021-04-19T13:13:21Z</time>
      </trkpt>
      <trkpt lat="49.88246" lon="4.74817">
        <ele>173.3</ele>
        <time>2021-04-19T13:13:27Z</time>
      </trkpt>
      <trkpt lat="49.88243" lon="4.74811">
        <ele>169.2</ele>
        <time>2021-04-19T13:13:31Z</time>
      </trkpt>
      <trkpt lat="49.88241" lon="4.74804">
        <ele>174.1</ele>
        <time>2021-04-19T13:13:34Z</time>
      </trkpt>
      <trkpt lat="49.8824" lon="4.74797">
        <ele>171.4</ele>
        <time>2021-04-19T13:13:39Z</time>
      </trkpt>
      <trkpt lat="49.88236" lon="4.7479">
        <ele>166.1</ele>
        <time>2021-04-19T13:13:44Z</time>
      </trkpt>
      <trkpt lat="49.88233" lon="4.74783">
        <ele>162.9</ele>
        <time>2021-04-19T13:13:48Z</time>
      </trkpt>
      <trkpt lat="49.8823" lon="4.74777">
        <ele>159.4</ele>
        <time>2021-04-19T13:13:52Z</time>
      </trkpt>
      <trkpt lat="49.88228" lon="4.74768">
        <ele>178.6</ele>
        <time>2021-04-19T13:13:57Z</time>
      </trkpt>
      <trkpt lat="49.88224" lon="4.74763">
        <ele>161.3</ele>
        <time>2021-04-19T13:14:02Z</time>
      </trkpt>
      <trkpt lat="49.8822" lon="4.74758">
        <ele>157.1</ele>
        <time>2021-04-19T13:14:07Z</time>
      </trkpt>
      <trkpt lat="49.88217" lon="4.74751">
        <ele>158.4</ele>
        <time>2021-04-19T13:14:13Z</time>
      </trkpt>
      <trkpt lat="49.88215" lon="4.74742">
        <ele>159</ele>
        <time>2021-04-19T13:14:18Z</time>
      </trkpt>
      <trkpt lat="49.88214" lon="4.74731">
        <ele>157.6</ele>
        <time>2021-04-19T13:14:23Z</time>
      </trkpt>
      <trkpt lat="49.88224" lon="4.74718">
        <ele>157.5</ele>
        <time>2021-04-19T13:14:31Z</time>
      </trkpt>
      <trkpt lat="49.8823" lon="4.74715">
        <ele>155.8</ele>
        <time>2021-04-19T13:14:36Z</time>
      </trkpt>
      <trkpt lat="49.88237" lon="4.74709">
        <ele>165.6</ele>
        <time>2021-04-19T13:14:42Z</time>
      </trkpt>
      <trkpt lat="49.88241" lon="4.74704">
        <ele>160.9</ele>
        <time>2021-04-19T13:14:46Z</time>
      </trkpt>
      <trkpt lat="49.88249" lon="4.74697">
        <ele>156.5</ele>
        <time>2021-04-19T13:14:54Z</time>
      </trkpt>
      <trkpt lat="49.88249" lon="4.74689">
        <ele>160.2</ele>
        <time>2021-04-19T13:14:58Z</time>
      </trkpt>
      <trkpt lat="49.88246" lon="4.74684">
        <ele>161.5</ele>
        <time>2021-04-19T13:15:02Z</time>
      </trkpt>
      <trkpt lat="49.88242" lon="4.7468">
        <ele>154.1</ele>
        <time>2021-04-19T13:15:08Z</time>
      </trkpt>
      <trkpt lat="49.88238" lon="4.74675">
        <ele>164.3</ele>
        <time>2021-04-19T13:15:14Z</time>
      </trkpt>
      <trkpt lat="49.88234" lon="4.74669">
        <ele>167.1</ele>
        <time>2021-04-19T13:15:18Z</time>
      </trkpt>
      <trkpt lat="49.88231" lon="4.74662">
        <ele>170.2</ele>
        <time>2021-04-19T13:15:22Z</time>
      </trkpt>
      <trkpt lat="49.88227" lon="4.74634">
        <ele>181</ele>
        <time>2021-04-19T13:15:31Z</time>
      </trkpt>
      <trkpt lat="49.88224" lon="4.74626">
        <ele>182.8</ele>
        <time>2021-04-19T13:15:35Z</time>
      </trkpt>
      <trkpt lat="49.88219" lon="4.7462">
        <ele>189.1</ele>
        <time>2021-04-19T13:15:39Z</time>
      </trkpt>
      <trkpt lat="49.88216" lon="4.74615">
        <ele>185.3</ele>
        <time>2021-04-19T13:15:43Z</time>
      </trkpt>
      <trkpt lat="49.88212" lon="4.74611">
        <ele>185.5</ele>
        <time>2021-04-19T13:15:47Z</time>
      </trkpt>
      <trkpt lat="49.88208" lon="4.74607">
        <ele>185.2</ele>
        <time>2021-04-19T13:16:11Z</time>
      </trkpt>
      <trkpt lat="49.88203" lon="4.74603">
        <ele>173.9</ele>
        <time>2021-04-19T13:16:49Z</time>
      </trkpt>
      <trkpt lat="49.882" lon="4.74597">
        <ele>172.9</ele>
        <time>2021-04-19T13:16:55Z</time>
      </trkpt>
      <trkpt lat="49.88198" lon="4.74591">
        <ele>169.5</ele>
        <time>2021-04-19T13:16:59Z</time>
      </trkpt>
      <trkpt lat="49.88198" lon="4.74583">
        <ele>171.6</ele>
        <time>2021-04-19T13:17:03Z</time>
      </trkpt>
      <trkpt lat="49.88201" lon="4.74577">
        <ele>169</ele>
        <time>2021-04-19T13:17:09Z</time>
      </trkpt>
      <trkpt lat="49.88207" lon="4.74571">
        <ele>153.6</ele>
        <time>2021-04-19T13:17:17Z</time>
      </trkpt>
      <trkpt lat="49.88211" lon="4.74575">
        <ele>192.4</ele>
        <time>2021-04-19T13:17:45Z</time>
      </trkpt>
      <trkpt lat="49.8821" lon="4.74582">
        <ele>131.2</ele>
        <time>2021-04-19T13:19:44Z</time>
      </trkpt>
      <trkpt lat="49.88206" lon="4.74578">
        <ele>173.8</ele>
        <time>2021-04-19T13:25:27Z</time>
      </trkpt>
      <trkpt lat="49.88209" lon="4.74572">
        <ele>186.4</ele>
        <time>2021-04-19T13:49:10Z</time>
      </trkpt>
      <trkpt lat="49.88205" lon="4.74575">
        <ele>128.5</ele>
        <time>2021-04-19T13:55:57Z</time>
      </trkpt>
      <trkpt lat="49.88209" lon="4.74573">
        <ele>184.6</ele>
        <time>2021-04-19T13:59:40Z</time>
      </trkpt>
      <trkpt lat="49.88213" lon="4.74575">
        <ele>128.5</ele>
        <time>2021-04-19T14:07:08Z</time>
      </trkpt>
      <trkpt lat="49.88211" lon="4.74582">
        <ele>128.5</ele>
        <time>2021-04-19T14:10:13Z</time>
      </trkpt>
      <trkpt lat="49.88206" lon="4.74584">
        <ele>131.1</ele>
        <time>2021-04-19T14:10:18Z</time>
      </trkpt>
      <trkpt lat="49.88209" lon="4.74578">
        <ele>125.9</ele>
        <time>2021-04-19T14:10:51Z</time>
      </trkpt>
      <trkpt lat="49.88214" lon="4.74576">
        <ele>130.2</ele>
        <time>2021-04-19T14:14:26Z</time>
      </trkpt>
      <trkpt lat="49.88217" lon="4.74581">
        <ele>133</ele>
        <time>2021-04-19T14:15:00Z</time>
      </trkpt>
      <trkpt lat="49.88214" lon="4.74588">
        <ele>123.7</ele>
        <time>2021-04-19T14:15:22Z</time>
      </trkpt>
      <trkpt lat="49.88211" lon="4.74582">
        <ele>128</ele>
        <time>2021-04-19T14:15:36Z</time>
      </trkpt>
      <trkpt lat="49.8821" lon="4.74576">
        <ele>183.4</ele>
        <time>2021-04-19T14:18:24Z</time>
      </trkpt>
      <trkpt lat="49.88213" lon="4.74581">
        <ele>127.2</ele>
        <time>2021-04-19T14:21:54Z</time>
      </trkpt>
      <trkpt lat="49.88209" lon="4.74579">
        <ele>133.3</ele>
        <time>2021-04-19T14:28:19Z</time>
      </trkpt>
      <trkpt lat="49.88206" lon="4.74584">
        <ele>135.1</ele>
        <time>2021-04-19T14:45:50Z</time>
      </trkpt>
      <trkpt lat="49.88209" lon="4.74579">
        <ele>136.9</ele>
        <time>2021-04-19T14:46:37Z</time>
      </trkpt>
      <trkpt lat="49.88215" lon="4.74578">
        <ele>137</ele>
        <time>2021-04-19T14:48:33Z</time>
      </trkpt>
      <trkpt lat="49.88215" lon="4.74569">
        <ele>133</ele>
        <time>2021-04-19T14:49:44Z</time>
      </trkpt>
      <trkpt lat="49.88214" lon="4.74561">
        <ele>132.1</ele>
        <time>2021-04-19T14:49:51Z</time>
      </trkpt>
      <trkpt lat="49.88216" lon="4.74554">
        <ele>136.7</ele>
        <time>2021-04-19T14:50:15Z</time>
      </trkpt>
      <trkpt lat="49.8821" lon="4.74557">
        <ele>132.3</ele>
        <time>2021-04-19T14:50:33Z</time>
      </trkpt>
      <trkpt lat="49.88206" lon="4.74557">
        <ele>132.8</ele>
        <time>2021-04-19T14:50:42Z</time>
      </trkpt>
      <trkpt lat="49.88204" lon="4.74564">
        <ele>132.2</ele>
        <time>2021-04-19T14:50:55Z</time>
      </trkpt>
      <trkpt lat="49.88205" lon="4.74571">
        <ele>131.4</ele>
        <time>2021-04-19T14:51:02Z</time>
      </trkpt>
      <trkpt lat="49.88206" lon="4.74578">
        <ele>127.6</ele>
        <time>2021-04-19T14:51:20Z</time>
      </trkpt>
      <trkpt lat="49.88211" lon="4.74573">
        <ele>135.8</ele>
        <time>2021-04-19T14:52:34Z</time>
      </trkpt>
      <trkpt lat="49.88215" lon="4.74568">
        <ele>134.8</ele>
        <time>2021-04-19T14:52:57Z</time>
      </trkpt>
      <trkpt lat="49.8821" lon="4.7457">
        <ele>132.5</ele>
        <time>2021-04-19T14:53:27Z</time>
      </trkpt>
      <trkpt lat="49.88207" lon="4.74565">
        <ele>130.1</ele>
        <time>2021-04-19T14:54:00Z</time>
      </trkpt>
      <trkpt lat="49.88211" lon="4.7457">
        <ele>131.6</ele>
        <time>2021-04-19T14:54:36Z</time>
      </trkpt>
      <trkpt lat="49.88211" lon="4.74579">
        <ele>130.5</ele>
        <time>2021-04-19T14:54:39Z</time>
      </trkpt>
      <trkpt lat="49.88206" lon="4.7458">
        <ele>131.8</ele>
        <time>2021-04-19T14:57:58Z</time>
      </trkpt>
      <trkpt lat="49.88211" lon="4.74578">
        <ele>131.7</ele>
        <time>2021-04-19T14:58:36Z</time>
      </trkpt>
      <trkpt lat="49.88215" lon="4.74574">
        <ele>136.4</ele>
        <time>2021-04-19T15:02:55Z</time>
      </trkpt>
      <trkpt lat="49.88212" lon="4.74568">
        <ele>134.7</ele>
        <time>2021-04-19T15:04:22Z</time>
      </trkpt>
      <trkpt lat="49.88209" lon="4.74573">
        <ele>139.5</ele>
        <time>2021-04-19T15:05:31Z</time>
      </trkpt>
      <trkpt lat="49.88205" lon="4.74578">
        <ele>136.9</ele>
        <time>2021-04-19T15:06:30Z</time>
      </trkpt>
      <trkpt lat="49.88201" lon="4.74576">
        <ele>136.7</ele>
        <time>2021-04-19T15:06:33Z</time>
      </trkpt>
      <trkpt lat="49.88194" lon="4.74574">
        <ele>136.4</ele>
        <time>2021-04-19T15:06:37Z</time>
      </trkpt>
      <trkpt lat="49.8819" lon="4.74571">
        <ele>136</ele>
        <time>2021-04-19T15:06:42Z</time>
      </trkpt>
      <trkpt lat="49.88186" lon="4.74564">
        <ele>136.4</ele>
        <time>2021-04-19T15:06:47Z</time>
      </trkpt>
      <trkpt lat="49.88182" lon="4.74557">
        <ele>135.9</ele>
        <time>2021-04-19T15:06:52Z</time>
      </trkpt>
      <trkpt lat="49.88179" lon="4.74552">
        <ele>135.7</ele>
        <time>2021-04-19T15:06:56Z</time>
      </trkpt>
      <trkpt lat="49.88175" lon="4.74547">
        <ele>135.7</ele>
        <time>2021-04-19T15:07:00Z</time>
      </trkpt>
      <trkpt lat="49.88171" lon="4.74542">
        <ele>135.1</ele>
        <time>2021-04-19T15:07:03Z</time>
      </trkpt>
      <trkpt lat="49.88168" lon="4.74536">
        <ele>136.3</ele>
        <time>2021-04-19T15:07:08Z</time>
      </trkpt>
      <trkpt lat="49.88163" lon="4.7453">
        <ele>136.1</ele>
        <time>2021-04-19T15:07:12Z</time>
      </trkpt>
      <trkpt lat="49.88159" lon="4.74526">
        <ele>135.2</ele>
        <time>2021-04-19T15:07:16Z</time>
      </trkpt>
      <trkpt lat="49.88155" lon="4.74522">
        <ele>135.9</ele>
        <time>2021-04-19T15:07:21Z</time>
      </trkpt>
      <trkpt lat="49.88151" lon="4.74518">
        <ele>136</ele>
        <time>2021-04-19T15:07:25Z</time>
      </trkpt>
      <trkpt lat="49.88147" lon="4.74515">
        <ele>135.2</ele>
        <time>2021-04-19T15:07:29Z</time>
      </trkpt>
      <trkpt lat="49.88142" lon="4.74509">
        <ele>134.5</ele>
        <time>2021-04-19T15:07:34Z</time>
      </trkpt>
      <trkpt lat="49.88138" lon="4.74504">
        <ele>135.1</ele>
        <time>2021-04-19T15:07:39Z</time>
      </trkpt>
      <trkpt lat="49.88134" lon="4.745">
        <ele>133.9</ele>
        <time>2021-04-19T15:07:43Z</time>
      </trkpt>
      <trkpt lat="49.88129" lon="4.74494">
        <ele>133.9</ele>
        <time>2021-04-19T15:07:48Z</time>
      </trkpt>
      <trkpt lat="49.88125" lon="4.74489">
        <ele>135.6</ele>
        <time>2021-04-19T15:07:51Z</time>
      </trkpt>
      <trkpt lat="49.8812" lon="4.74483">
        <ele>134.7</ele>
        <time>2021-04-19T15:07:57Z</time>
      </trkpt>
      <trkpt lat="49.88116" lon="4.74477">
        <ele>135.1</ele>
        <time>2021-04-19T15:08:01Z</time>
      </trkpt>
      <trkpt lat="49.88112" lon="4.74471">
        <ele>135.3</ele>
        <time>2021-04-19T15:08:05Z</time>
      </trkpt>
      <trkpt lat="49.88109" lon="4.74466">
        <ele>134.8</ele>
        <time>2021-04-19T15:08:08Z</time>
      </trkpt>
      <trkpt lat="49.88105" lon="4.74459">
        <ele>135.5</ele>
        <time>2021-04-19T15:08:12Z</time>
      </trkpt>
      <trkpt lat="49.88102" lon="4.74453">
        <ele>136.6</ele>
        <time>2021-04-19T15:08:17Z</time>
      </trkpt>
      <trkpt lat="49.88099" lon="4.74447">
        <ele>136.1</ele>
        <time>2021-04-19T15:08:21Z</time>
      </trkpt>
      <trkpt lat="49.88094" lon="4.7443">
        <ele>134.5</ele>
        <time>2021-04-19T15:08:30Z</time>
      </trkpt>
      <trkpt lat="49.8809" lon="4.74423">
        <ele>133</ele>
        <time>2021-04-19T15:08:34Z</time>
      </trkpt>
      <trkpt lat="49.88086" lon="4.74413">
        <ele>133.4</ele>
        <time>2021-04-19T15:08:39Z</time>
      </trkpt>
      <trkpt lat="49.88066" lon="4.74364">
        <ele>137.6</ele>
        <time>2021-04-19T15:09:08Z</time>
      </trkpt>
      <trkpt lat="49.88063" lon="4.74358">
        <ele>136.8</ele>
        <time>2021-04-19T15:09:12Z</time>
      </trkpt>
      <trkpt lat="49.88059" lon="4.74352">
        <ele>136.7</ele>
        <time>2021-04-19T15:09:16Z</time>
      </trkpt>
      <trkpt lat="49.88056" lon="4.74346">
        <ele>136.7</ele>
        <time>2021-04-19T15:09:21Z</time>
      </trkpt>
      <trkpt lat="49.88053" lon="4.7434">
        <ele>138.5</ele>
        <time>2021-04-19T15:09:25Z</time>
      </trkpt>
      <trkpt lat="49.88052" lon="4.74332">
        <ele>137.7</ele>
        <time>2021-04-19T15:09:29Z</time>
      </trkpt>
      <trkpt lat="49.88052" lon="4.74323">
        <ele>136.4</ele>
        <time>2021-04-19T15:09:33Z</time>
      </trkpt>
      <trkpt lat="49.88054" lon="4.74316">
        <ele>137</ele>
        <time>2021-04-19T15:09:37Z</time>
      </trkpt>
      <trkpt lat="49.88055" lon="4.74307">
        <ele>137.7</ele>
        <time>2021-04-19T15:09:43Z</time>
      </trkpt>
      <trkpt lat="49.88055" lon="4.74299">
        <ele>136.1</ele>
        <time>2021-04-19T15:09:48Z</time>
      </trkpt>
      <trkpt lat="49.88056" lon="4.74291">
        <ele>133</ele>
        <time>2021-04-19T15:09:57Z</time>
      </trkpt>
      <trkpt lat="49.88053" lon="4.74283">
        <ele>133.3</ele>
        <time>2021-04-19T15:10:02Z</time>
      </trkpt>
      <trkpt lat="49.8805" lon="4.74274">
        <ele>134.8</ele>
        <time>2021-04-19T15:10:07Z</time>
      </trkpt>
      <trkpt lat="49.88048" lon="4.74267">
        <ele>134.4</ele>
        <time>2021-04-19T15:10:11Z</time>
      </trkpt>
      <trkpt lat="49.88045" lon="4.7426">
        <ele>134.5</ele>
        <time>2021-04-19T15:10:16Z</time>
      </trkpt>
      <trkpt lat="49.88043" lon="4.74253">
        <ele>134.9</ele>
        <time>2021-04-19T15:10:20Z</time>
      </trkpt>
      <trkpt lat="49.88041" lon="4.74245">
        <ele>134.7</ele>
        <time>2021-04-19T15:10:25Z</time>
      </trkpt>
      <trkpt lat="49.8804" lon="4.74237">
        <ele>134.9</ele>
        <time>2021-04-19T15:10:29Z</time>
      </trkpt>
      <trkpt lat="49.8804" lon="4.74227">
        <ele>136.9</ele>
        <time>2021-04-19T15:10:34Z</time>
      </trkpt>
      <trkpt lat="49.88039" lon="4.74217">
        <ele>135.3</ele>
        <time>2021-04-19T15:10:38Z</time>
      </trkpt>
      <trkpt lat="49.88038" lon="4.74208">
        <ele>134.6</ele>
        <time>2021-04-19T15:10:42Z</time>
      </trkpt>
      <trkpt lat="49.88037" lon="4.742">
        <ele>135.1</ele>
        <time>2021-04-19T15:10:46Z</time>
      </trkpt>
      <trkpt lat="49.88035" lon="4.74193">
        <ele>134.5</ele>
        <time>2021-04-19T15:10:50Z</time>
      </trkpt>
      <trkpt lat="49.88033" lon="4.74187">
        <ele>135</ele>
        <time>2021-04-19T15:10:54Z</time>
      </trkpt>
      <trkpt lat="49.88031" lon="4.74178">
        <ele>135.9</ele>
        <time>2021-04-19T15:10:59Z</time>
      </trkpt>
      <trkpt lat="49.88021" lon="4.74164">
        <ele>136.7</ele>
        <time>2021-04-19T15:11:09Z</time>
      </trkpt>
      <trkpt lat="49.88017" lon="4.7416">
        <ele>138</ele>
        <time>2021-04-19T15:11:13Z</time>
      </trkpt>
      <trkpt lat="49.8802" lon="4.7415">
        <ele>139.4</ele>
        <time>2021-04-19T15:11:20Z</time>
      </trkpt>
      <trkpt lat="49.88025" lon="4.74147">
        <ele>139.5</ele>
        <time>2021-04-19T15:11:24Z</time>
      </trkpt>
      <trkpt lat="49.88031" lon="4.74145">
        <ele>139.9</ele>
        <time>2021-04-19T15:11:28Z</time>
      </trkpt>
      <trkpt lat="49.88039" lon="4.74147">
        <ele>140.7</ele>
        <time>2021-04-19T15:11:33Z</time>
      </trkpt>
      <trkpt lat="49.88044" lon="4.74146">
        <ele>140.4</ele>
        <time>2021-04-19T15:11:37Z</time>
      </trkpt>
      <trkpt lat="49.88057" lon="4.74146">
        <ele>140.7</ele>
        <time>2021-04-19T15:11:46Z</time>
      </trkpt>
      <trkpt lat="49.88061" lon="4.74143">
        <ele>140.7</ele>
        <time>2021-04-19T15:11:50Z</time>
      </trkpt>
      <trkpt lat="49.88067" lon="4.74141">
        <ele>139.3</ele>
        <time>2021-04-19T15:11:54Z</time>
      </trkpt>
      <trkpt lat="49.88072" lon="4.74138">
        <ele>139.2</ele>
        <time>2021-04-19T15:11:58Z</time>
      </trkpt>
      <trkpt lat="49.88077" lon="4.74135">
        <ele>139.7</ele>
        <time>2021-04-19T15:12:02Z</time>
      </trkpt>
      <trkpt lat="49.88114" lon="4.7413">
        <ele>140.1</ele>
        <time>2021-04-19T15:12:27Z</time>
      </trkpt>
      <trkpt lat="49.88126" lon="4.74128">
        <ele>138.6</ele>
        <time>2021-04-19T15:12:36Z</time>
      </trkpt>
      <trkpt lat="49.88131" lon="4.74127">
        <ele>138.3</ele>
        <time>2021-04-19T15:12:40Z</time>
      </trkpt>
      <trkpt lat="49.88137" lon="4.74125">
        <ele>138.7</ele>
        <time>2021-04-19T15:12:44Z</time>
      </trkpt>
      <trkpt lat="49.88142" lon="4.74122">
        <ele>137.9</ele>
        <time>2021-04-19T15:12:48Z</time>
      </trkpt>
      <trkpt lat="49.88148" lon="4.74117">
        <ele>140.1</ele>
        <time>2021-04-19T15:12:56Z</time>
      </trkpt>
      <trkpt lat="49.88154" lon="4.74115">
        <ele>139.4</ele>
        <time>2021-04-19T15:13:00Z</time>
      </trkpt>
      <trkpt lat="49.8816" lon="4.74113">
        <ele>138.9</ele>
        <time>2021-04-19T15:13:05Z</time>
      </trkpt>
      <trkpt lat="49.88165" lon="4.74112">
        <ele>138.4</ele>
        <time>2021-04-19T15:13:09Z</time>
      </trkpt>
      <trkpt lat="49.88179" lon="4.74111">
        <ele>136</ele>
        <time>2021-04-19T15:13:20Z</time>
      </trkpt>
      <trkpt lat="49.88184" lon="4.7411">
        <ele>138.2</ele>
        <time>2021-04-19T15:13:24Z</time>
      </trkpt>
      <trkpt lat="49.88202" lon="4.7411">
        <ele>139.7</ele>
        <time>2021-04-19T15:13:38Z</time>
      </trkpt>
      <trkpt lat="49.88206" lon="4.7411">
        <ele>140.5</ele>
        <time>2021-04-19T15:13:42Z</time>
      </trkpt>
      <trkpt lat="49.88212" lon="4.74111">
        <ele>139.1</ele>
        <time>2021-04-19T15:13:45Z</time>
      </trkpt>
      <trkpt lat="49.88216" lon="4.74113">
        <ele>140.1</ele>
        <time>2021-04-19T15:13:49Z</time>
      </trkpt>
      <trkpt lat="49.88221" lon="4.74116">
        <ele>139.8</ele>
        <time>2021-04-19T15:13:52Z</time>
      </trkpt>
      <trkpt lat="49.88225" lon="4.74117">
        <ele>138.9</ele>
        <time>2021-04-19T15:13:56Z</time>
      </trkpt>
      <trkpt lat="49.8823" lon="4.74118">
        <ele>140</ele>
        <time>2021-04-19T15:14:05Z</time>
      </trkpt>
      <trkpt lat="49.88234" lon="4.74124">
        <ele>139.4</ele>
        <time>2021-04-19T15:14:09Z</time>
      </trkpt>
      <trkpt lat="49.88236" lon="4.74131">
        <ele>139.2</ele>
        <time>2021-04-19T15:14:12Z</time>
      </trkpt>
      <trkpt lat="49.88237" lon="4.74139">
        <ele>139.9</ele>
        <time>2021-04-19T15:14:16Z</time>
      </trkpt>
      <trkpt lat="49.88235" lon="4.74145">
        <ele>139.4</ele>
        <time>2021-04-19T15:14:19Z</time>
      </trkpt>
      <trkpt lat="49.88234" lon="4.74152">
        <ele>139.9</ele>
        <time>2021-04-19T15:14:24Z</time>
      </trkpt>
      <trkpt lat="49.88232" lon="4.74162">
        <ele>141.5</ele>
        <time>2021-04-19T15:14:28Z</time>
      </trkpt>
      <trkpt lat="49.88232" lon="4.7417">
        <ele>141.7</ele>
        <time>2021-04-19T15:14:33Z</time>
      </trkpt>
      <trkpt lat="49.88232" lon="4.74179">
        <ele>142.1</ele>
        <time>2021-04-19T15:14:37Z</time>
      </trkpt>
      <trkpt lat="49.88232" lon="4.74187">
        <ele>142.3</ele>
        <time>2021-04-19T15:14:41Z</time>
      </trkpt>
      <trkpt lat="49.88231" lon="4.74194">
        <ele>143.1</ele>
        <time>2021-04-19T15:14:44Z</time>
      </trkpt>
      <trkpt lat="49.88228" lon="4.74201">
        <ele>142.9</ele>
        <time>2021-04-19T15:14:47Z</time>
      </trkpt>
      <trkpt lat="49.88226" lon="4.74209">
        <ele>142.4</ele>
        <time>2021-04-19T15:14:51Z</time>
      </trkpt>
      <trkpt lat="49.88226" lon="4.74219">
        <ele>142.1</ele>
        <time>2021-04-19T15:14:56Z</time>
      </trkpt>
      <trkpt lat="49.88225" lon="4.74227">
        <ele>140.2</ele>
        <time>2021-04-19T15:15:00Z</time>
      </trkpt>
      <trkpt lat="49.88222" lon="4.74235">
        <ele>140.5</ele>
        <time>2021-04-19T15:15:06Z</time>
      </trkpt>
      <trkpt lat="49.88221" lon="4.74242">
        <ele>140.1</ele>
        <time>2021-04-19T15:15:10Z</time>
      </trkpt>
      <trkpt lat="49.88221" lon="4.7425">
        <ele>139.5</ele>
        <time>2021-04-19T15:15:15Z</time>
      </trkpt>
      <trkpt lat="49.8822" lon="4.74258">
        <ele>139.7</ele>
        <time>2021-04-19T15:15:20Z</time>
      </trkpt>
      <trkpt lat="49.88221" lon="4.74267">
        <ele>139.7</ele>
        <time>2021-04-19T15:15:24Z</time>
      </trkpt>
      <trkpt lat="49.88224" lon="4.74273">
        <ele>139.3</ele>
        <time>2021-04-19T15:15:28Z</time>
      </trkpt>
      <trkpt lat="49.88226" lon="4.74279">
        <ele>139.2</ele>
        <time>2021-04-19T15:15:31Z</time>
      </trkpt>
      <trkpt lat="49.88226" lon="4.74288">
        <ele>138.7</ele>
        <time>2021-04-19T15:15:35Z</time>
      </trkpt>
      <trkpt lat="49.88226" lon="4.74296">
        <ele>138.7</ele>
        <time>2021-04-19T15:15:39Z</time>
      </trkpt>
      <trkpt lat="49.88227" lon="4.74305">
        <ele>139.1</ele>
        <time>2021-04-19T15:15:44Z</time>
      </trkpt>
      <trkpt lat="49.88226" lon="4.74312">
        <ele>139.3</ele>
        <time>2021-04-19T15:15:48Z</time>
      </trkpt>
      <trkpt lat="49.88226" lon="4.74319">
        <ele>138.8</ele>
        <time>2021-04-19T15:15:51Z</time>
      </trkpt>
      <trkpt lat="49.88224" lon="4.74328">
        <ele>138.2</ele>
        <time>2021-04-19T15:15:56Z</time>
      </trkpt>
      <trkpt lat="49.88224" lon="4.74336">
        <ele>136.3</ele>
        <time>2021-04-19T15:16:00Z</time>
      </trkpt>
      <trkpt lat="49.88223" lon="4.74346">
        <ele>137.3</ele>
        <time>2021-04-19T15:16:05Z</time>
      </trkpt>
      <trkpt lat="49.88222" lon="4.74354">
        <ele>137.9</ele>
        <time>2021-04-19T15:16:10Z</time>
      </trkpt>
      <trkpt lat="49.8822" lon="4.7436">
        <ele>138.6</ele>
        <time>2021-04-19T15:16:26Z</time>
      </trkpt>
      <trkpt lat="49.88219" lon="4.74369">
        <ele>137.9</ele>
        <time>2021-04-19T15:16:38Z</time>
      </trkpt>
      <trkpt lat="49.8822" lon="4.74377">
        <ele>137.5</ele>
        <time>2021-04-19T15:16:42Z</time>
      </trkpt>
      <trkpt lat="49.88221" lon="4.74384">
        <ele>137.8</ele>
        <time>2021-04-19T15:16:45Z</time>
      </trkpt>
      <trkpt lat="49.88222" lon="4.74392">
        <ele>137.9</ele>
        <time>2021-04-19T15:16:49Z</time>
      </trkpt>
      <trkpt lat="49.88221" lon="4.74402">
        <ele>138.2</ele>
        <time>2021-04-19T15:16:53Z</time>
      </trkpt>
      <trkpt lat="49.88221" lon="4.74409">
        <ele>138.5</ele>
        <time>2021-04-19T15:16:56Z</time>
      </trkpt>
      <trkpt lat="49.88217" lon="4.74435">
        <ele>140.3</ele>
        <time>2021-04-19T15:17:05Z</time>
      </trkpt>
      <trkpt lat="49.88215" lon="4.74443">
        <ele>140</ele>
        <time>2021-04-19T15:17:09Z</time>
      </trkpt>
      <trkpt lat="49.88215" lon="4.74451">
        <ele>138.6</ele>
        <time>2021-04-19T15:17:14Z</time>
      </trkpt>
      <trkpt lat="49.88217" lon="4.7446">
        <ele>138.7</ele>
        <time>2021-04-19T15:17:20Z</time>
      </trkpt>
      <trkpt lat="49.88218" lon="4.74467">
        <ele>139.2</ele>
        <time>2021-04-19T15:17:24Z</time>
      </trkpt>
      <trkpt lat="49.8822" lon="4.74476">
        <ele>139.3</ele>
        <time>2021-04-19T15:17:29Z</time>
      </trkpt>
      <trkpt lat="49.88222" lon="4.74484">
        <ele>140</ele>
        <time>2021-04-19T15:17:33Z</time>
      </trkpt>
      <trkpt lat="49.88225" lon="4.74491">
        <ele>139.9</ele>
        <time>2021-04-19T15:17:37Z</time>
      </trkpt>
      <trkpt lat="49.88227" lon="4.74499">
        <ele>138.4</ele>
        <time>2021-04-19T15:17:43Z</time>
      </trkpt>
      <trkpt lat="49.88228" lon="4.74506">
        <ele>139.3</ele>
        <time>2021-04-19T15:17:47Z</time>
      </trkpt>
      <trkpt lat="49.88234" lon="4.74519">
        <ele>137.1</ele>
        <time>2021-04-19T15:17:55Z</time>
      </trkpt>
      <trkpt lat="49.88237" lon="4.74525">
        <ele>137.9</ele>
        <time>2021-04-19T15:17:58Z</time>
      </trkpt>
      <trkpt lat="49.8824" lon="4.74532">
        <ele>136.2</ele>
        <time>2021-04-19T15:18:03Z</time>
      </trkpt>
      <trkpt lat="49.88243" lon="4.74539">
        <ele>138.4</ele>
        <time>2021-04-19T15:18:07Z</time>
      </trkpt>
      <trkpt lat="49.88246" lon="4.74545">
        <ele>139.2</ele>
        <time>2021-04-19T15:18:11Z</time>
      </trkpt>
      <trkpt lat="49.88249" lon="4.7455">
        <ele>139</ele>
        <time>2021-04-19T15:18:14Z</time>
      </trkpt>
      <trkpt lat="49.88257" lon="4.74556">
        <ele>138.5</ele>
        <time>2021-04-19T15:18:21Z</time>
      </trkpt>
      <trkpt lat="49.88262" lon="4.7456">
        <ele>138.7</ele>
        <time>2021-04-19T15:18:24Z</time>
      </trkpt>
      <trkpt lat="49.88266" lon="4.74566">
        <ele>137.4</ele>
        <time>2021-04-19T15:18:29Z</time>
      </trkpt>
      <trkpt lat="49.88269" lon="4.74573">
        <ele>137.9</ele>
        <time>2021-04-19T15:18:33Z</time>
      </trkpt>
      <trkpt lat="49.8827" lon="4.74581">
        <ele>137.5</ele>
        <time>2021-04-19T15:18:37Z</time>
      </trkpt>
      <trkpt lat="49.88272" lon="4.74588">
        <ele>139.1</ele>
        <time>2021-04-19T15:18:41Z</time>
      </trkpt>
      <trkpt lat="49.88274" lon="4.74598">
        <ele>138.1</ele>
        <time>2021-04-19T15:18:46Z</time>
      </trkpt>
      <trkpt lat="49.88276" lon="4.74605">
        <ele>136.2</ele>
        <time>2021-04-19T15:18:50Z</time>
      </trkpt>
      <trkpt lat="49.88279" lon="4.74613">
        <ele>137.4</ele>
        <time>2021-04-19T15:18:54Z</time>
      </trkpt>
      <trkpt lat="49.88282" lon="4.7462">
        <ele>139.2</ele>
        <time>2021-04-19T15:18:58Z</time>
      </trkpt>
      <trkpt lat="49.88285" lon="4.74626">
        <ele>139.8</ele>
        <time>2021-04-19T15:19:01Z</time>
      </trkpt>
      <trkpt lat="49.88289" lon="4.74633">
        <ele>140.2</ele>
        <time>2021-04-19T15:19:06Z</time>
      </trkpt>
      <trkpt lat="49.88291" lon="4.7464">
        <ele>140.8</ele>
        <time>2021-04-19T15:19:10Z</time>
      </trkpt>
      <trkpt lat="49.88295" lon="4.74647">
        <ele>140.1</ele>
        <time>2021-04-19T15:19:15Z</time>
      </trkpt>
      <trkpt lat="49.88298" lon="4.74654">
        <ele>138.2</ele>
        <time>2021-04-19T15:19:19Z</time>
      </trkpt>
      <trkpt lat="49.883" lon="4.7466">
        <ele>138.5</ele>
        <time>2021-04-19T15:19:23Z</time>
      </trkpt>
      <trkpt lat="49.88302" lon="4.74669">
        <ele>136.9</ele>
        <time>2021-04-19T15:19:27Z</time>
      </trkpt>
      <trkpt lat="49.88304" lon="4.74676">
        <ele>138.2</ele>
        <time>2021-04-19T15:19:31Z</time>
      </trkpt>
      <trkpt lat="49.88306" lon="4.74683">
        <ele>137.3</ele>
        <time>2021-04-19T15:19:35Z</time>
      </trkpt>
      <trkpt lat="49.88308" lon="4.7469">
        <ele>136.3</ele>
        <time>2021-04-19T15:19:40Z</time>
      </trkpt>
      <trkpt lat="49.88309" lon="4.74699">
        <ele>136.2</ele>
        <time>2021-04-19T15:19:44Z</time>
      </trkpt>
      <trkpt lat="49.88311" lon="4.74706">
        <ele>137.5</ele>
        <time>2021-04-19T15:19:48Z</time>
      </trkpt>
      <trkpt lat="49.88312" lon="4.74713">
        <ele>137.7</ele>
        <time>2021-04-19T15:19:52Z</time>
      </trkpt>
      <trkpt lat="49.88315" lon="4.74719">
        <ele>138.7</ele>
        <time>2021-04-19T15:19:55Z</time>
      </trkpt>
      <trkpt lat="49.88317" lon="4.74727">
        <ele>139.9</ele>
        <time>2021-04-19T15:19:59Z</time>
      </trkpt>
      <trkpt lat="49.88319" lon="4.74734">
        <ele>164.7</ele>
        <time>2021-04-19T15:20:03Z</time>
      </trkpt>
      <trkpt lat="49.88322" lon="4.74741">
        <ele>164.1</ele>
        <time>2021-04-19T15:20:07Z</time>
      </trkpt>
      <trkpt lat="49.88324" lon="4.74747">
        <ele>164.3</ele>
        <time>2021-04-19T15:20:11Z</time>
      </trkpt>
      <trkpt lat="49.88327" lon="4.74753">
        <ele>162.5</ele>
        <time>2021-04-19T15:20:15Z</time>
      </trkpt>
      <trkpt lat="49.8833" lon="4.7476">
        <ele>163.3</ele>
        <time>2021-04-19T15:20:19Z</time>
      </trkpt>
      <trkpt lat="49.88334" lon="4.74771">
        <ele>164.8</ele>
        <time>2021-04-19T15:20:26Z</time>
      </trkpt>
      <trkpt lat="49.88338" lon="4.74776">
        <ele>163</ele>
        <time>2021-04-19T15:20:32Z</time>
      </trkpt>
      <trkpt lat="49.88339" lon="4.74784">
        <ele>161.2</ele>
        <time>2021-04-19T15:20:48Z</time>
      </trkpt>
      <trkpt lat="49.88341" lon="4.74793">
        <ele>175.5</ele>
        <time>2021-04-19T15:20:52Z</time>
      </trkpt>
      <trkpt lat="49.88342" lon="4.74802">
        <ele>184.3</ele>
        <time>2021-04-19T15:20:56Z</time>
      </trkpt>
      <trkpt lat="49.88343" lon="4.74811">
        <ele>191.1</ele>
        <time>2021-04-19T15:21:00Z</time>
      </trkpt>
      <trkpt lat="49.88345" lon="4.74825">
        <ele>164.4</ele>
        <time>2021-04-19T15:21:07Z</time>
      </trkpt>
      <trkpt lat="49.88345" lon="4.74833">
        <ele>164.8</ele>
        <time>2021-04-19T15:21:11Z</time>
      </trkpt>
      <trkpt lat="49.88344" lon="4.7484">
        <ele>166.5</ele>
        <time>2021-04-19T15:21:17Z</time>
      </trkpt>
      <trkpt lat="49.88344" lon="4.74849">
        <ele>165.4</ele>
        <time>2021-04-19T15:21:22Z</time>
      </trkpt>
      <trkpt lat="49.88347" lon="4.74868">
        <ele>170.2</ele>
        <time>2021-04-19T15:21:30Z</time>
      </trkpt>
      <trkpt lat="49.88348" lon="4.74877">
        <ele>187</ele>
        <time>2021-04-19T15:21:34Z</time>
      </trkpt>
      <trkpt lat="49.8835" lon="4.74887">
        <ele>181.3</ele>
        <time>2021-04-19T15:21:40Z</time>
      </trkpt>
      <trkpt lat="49.8835" lon="4.74909">
        <ele>182.5</ele>
        <time>2021-04-19T15:21:50Z</time>
      </trkpt>
      <trkpt lat="49.88351" lon="4.74919">
        <ele>184.8</ele>
        <time>2021-04-19T15:21:54Z</time>
      </trkpt>
      <trkpt lat="49.88351" lon="4.74927">
        <ele>182.4</ele>
        <time>2021-04-19T15:21:58Z</time>
      </trkpt>
      <trkpt lat="49.88353" lon="4.7494">
        <ele>178.2</ele>
        <time>2021-04-19T15:22:06Z</time>
      </trkpt>
      <trkpt lat="49.88355" lon="4.74948">
        <ele>175.9</ele>
        <time>2021-04-19T15:22:11Z</time>
      </trkpt>
      <trkpt lat="49.88354" lon="4.74955">
        <ele>162.2</ele>
        <time>2021-04-19T15:22:15Z</time>
      </trkpt>
      <trkpt lat="49.88353" lon="4.74964">
        <ele>158.5</ele>
        <time>2021-04-19T15:22:19Z</time>
      </trkpt>
      <trkpt lat="49.88353" lon="4.74974">
        <ele>175</ele>
        <time>2021-04-19T15:22:24Z</time>
      </trkpt>
      <trkpt lat="49.88354" lon="4.74983">
        <ele>170.9</ele>
        <time>2021-04-19T15:22:29Z</time>
      </trkpt>
      <trkpt lat="49.88355" lon="4.7499">
        <ele>155.8</ele>
        <time>2021-04-19T15:22:32Z</time>
      </trkpt>
      <trkpt lat="49.88354" lon="4.74998">
        <ele>154.8</ele>
        <time>2021-04-19T15:22:37Z</time>
      </trkpt>
      <trkpt lat="49.88353" lon="4.75005">
        <ele>149.1</ele>
        <time>2021-04-19T15:22:42Z</time>
      </trkpt>
      <trkpt lat="49.88359" lon="4.75032">
        <ele>161</ele>
        <time>2021-04-19T15:22:59Z</time>
      </trkpt>
      <trkpt lat="49.88365" lon="4.75033">
        <ele>160.7</ele>
        <time>2021-04-19T15:23:02Z</time>
      </trkpt>
      <trkpt lat="49.88389" lon="4.75025">
        <ele>179.3</ele>
        <time>2021-04-19T15:23:19Z</time>
      </trkpt>
      <trkpt lat="49.88394" lon="4.75025">
        <ele>180.7</ele>
        <time>2021-04-19T15:23:23Z</time>
      </trkpt>
      <trkpt lat="49.884" lon="4.75024">
        <ele>182.9</ele>
        <time>2021-04-19T15:23:28Z</time>
      </trkpt>
      <trkpt lat="49.88405" lon="4.75021">
        <ele>175.3</ele>
        <time>2021-04-19T15:23:35Z</time>
      </trkpt>
      <trkpt lat="49.8841" lon="4.75023">
        <ele>137.9</ele>
        <time>2021-04-19T15:23:39Z</time>
      </trkpt>
      <trkpt lat="49.88414" lon="4.75026">
        <ele>138.7</ele>
        <time>2021-04-19T15:23:43Z</time>
      </trkpt>
      <trkpt lat="49.88414" lon="4.75034">
        <ele>138</ele>
        <time>2021-04-19T15:23:50Z</time>
      </trkpt>
      <trkpt lat="49.88419" lon="4.75039">
        <ele>137.6</ele>
        <time>2021-04-19T15:23:58Z</time>
      </trkpt>
      <trkpt lat="49.88426" lon="4.75037">
        <ele>137.2</ele>
        <time>2021-04-19T15:24:01Z</time>
      </trkpt>
      <trkpt lat="49.88431" lon="4.75034">
        <ele>136.9</ele>
        <time>2021-04-19T15:24:03Z</time>
      </trkpt>
      <trkpt lat="49.88436" lon="4.7503">
        <ele>136.7</ele>
        <time>2021-04-19T15:24:08Z</time>
      </trkpt>
      <trkpt lat="49.88441" lon="4.75023">
        <ele>138.3</ele>
        <time>2021-04-19T15:24:14Z</time>
      </trkpt>
      <trkpt lat="49.88444" lon="4.75017">
        <ele>138.2</ele>
        <time>2021-04-19T15:24:18Z</time>
      </trkpt>
      <trkpt lat="49.88445" lon="4.75009">
        <ele>139.3</ele>
        <time>2021-04-19T15:24:21Z</time>
      </trkpt>
      <trkpt lat="49.88443" lon="4.75001">
        <ele>138.9</ele>
        <time>2021-04-19T15:24:23Z</time>
      </trkpt>
      <trkpt lat="49.88444" lon="4.74993">
        <ele>140.5</ele>
        <time>2021-04-19T15:24:27Z</time>
      </trkpt>
      <trkpt lat="49.88445" lon="4.74983">
        <ele>138.5</ele>
        <time>2021-04-19T15:24:31Z</time>
      </trkpt>
      <trkpt lat="49.88444" lon="4.74974">
        <ele>138.7</ele>
        <time>2021-04-19T15:24:36Z</time>
      </trkpt>
      <trkpt lat="49.88445" lon="4.74966">
        <ele>138.1</ele>
        <time>2021-04-19T15:24:41Z</time>
      </trkpt>
      <trkpt lat="49.88446" lon="4.74956">
        <ele>138</ele>
        <time>2021-04-19T15:24:46Z</time>
      </trkpt>
      <trkpt lat="49.88449" lon="4.74947">
        <ele>139.1</ele>
        <time>2021-04-19T15:24:51Z</time>
      </trkpt>
      <trkpt lat="49.88452" lon="4.7494">
        <ele>138.5</ele>
        <time>2021-04-19T15:24:55Z</time>
      </trkpt>
      <trkpt lat="49.88453" lon="4.74922">
        <ele>139.1</ele>
        <time>2021-04-19T15:25:03Z</time>
      </trkpt>
      <trkpt lat="49.88451" lon="4.74913">
        <ele>138.2</ele>
        <time>2021-04-19T15:25:07Z</time>
      </trkpt>
      <trkpt lat="49.88451" lon="4.74905">
        <ele>146.6</ele>
        <time>2021-04-19T15:25:11Z</time>
      </trkpt>
      <trkpt lat="49.88453" lon="4.74898">
        <ele>138.1</ele>
        <time>2021-04-19T15:25:14Z</time>
      </trkpt>
      <trkpt lat="49.88457" lon="4.74893">
        <ele>137.8</ele>
        <time>2021-04-19T15:25:18Z</time>
      </trkpt>
      <trkpt lat="49.88462" lon="4.74892">
        <ele>137.3</ele>
        <time>2021-04-19T15:25:22Z</time>
      </trkpt>
      <trkpt lat="49.88469" lon="4.74892">
        <ele>137.5</ele>
        <time>2021-04-19T15:25:26Z</time>
      </trkpt>
      <trkpt lat="49.88475" lon="4.74893">
        <ele>137.4</ele>
        <time>2021-04-19T15:25:30Z</time>
      </trkpt>
      <trkpt lat="49.88481" lon="4.74897">
        <ele>148</ele>
        <time>2021-04-19T15:25:34Z</time>
      </trkpt>
      <trkpt lat="49.88494" lon="4.74896">
        <ele>139.8</ele>
        <time>2021-04-19T15:25:44Z</time>
      </trkpt>
      <trkpt lat="49.88499" lon="4.74897">
        <ele>141.1</ele>
        <time>2021-04-19T15:25:48Z</time>
      </trkpt>
      <trkpt lat="49.88505" lon="4.74898">
        <ele>151.6</ele>
        <time>2021-04-19T15:25:53Z</time>
      </trkpt>
      <trkpt lat="49.8851" lon="4.74894">
        <ele>151.6</ele>
        <time>2021-04-19T15:26:01Z</time>
      </trkpt>
      <trkpt lat="49.88504" lon="4.74895">
        <ele>152.2</ele>
        <time>2021-04-19T15:26:53Z</time>
      </trkpt>
      <trkpt lat="49.88493" lon="4.74889">
        <ele>152.3</ele>
        <time>2021-04-19T15:27:02Z</time>
      </trkpt>
      <trkpt lat="49.88488" lon="4.74887">
        <ele>151.7</ele>
        <time>2021-04-19T15:27:05Z</time>
      </trkpt>
      <trkpt lat="49.8848" lon="4.74893">
        <ele>150.1</ele>
        <time>2021-04-19T15:27:14Z</time>
      </trkpt>
      <trkpt lat="49.88474" lon="4.74891">
        <ele>150.2</ele>
        <time>2021-04-19T15:27:20Z</time>
      </trkpt>
      <trkpt lat="49.88455" lon="4.74889">
        <ele>150.2</ele>
        <time>2021-04-19T15:27:32Z</time>
      </trkpt>
      <trkpt lat="49.88452" lon="4.74894">
        <ele>150.2</ele>
        <time>2021-04-19T15:27:37Z</time>
      </trkpt>
      <trkpt lat="49.88449" lon="4.749">
        <ele>148.1</ele>
        <time>2021-04-19T15:27:42Z</time>
      </trkpt>
      <trkpt lat="49.88444" lon="4.74904">
        <ele>147.2</ele>
        <time>2021-04-19T15:27:47Z</time>
      </trkpt>
      <trkpt lat="49.88438" lon="4.74902">
        <ele>146.9</ele>
        <time>2021-04-19T15:27:51Z</time>
      </trkpt>
      <trkpt lat="49.88433" lon="4.74895">
        <ele>146.9</ele>
        <time>2021-04-19T15:27:53Z</time>
      </trkpt>
      <trkpt lat="49.88429" lon="4.74887">
        <ele>146.6</ele>
        <time>2021-04-19T15:27:56Z</time>
      </trkpt>
      <trkpt lat="49.88425" lon="4.7488">
        <ele>146.6</ele>
        <time>2021-04-19T15:28:00Z</time>
      </trkpt>
      <trkpt lat="49.88422" lon="4.74872">
        <ele>146.5</ele>
        <time>2021-04-19T15:28:05Z</time>
      </trkpt>
      <trkpt lat="49.88419" lon="4.74866">
        <ele>146.5</ele>
        <time>2021-04-19T15:28:08Z</time>
      </trkpt>
      <trkpt lat="49.88415" lon="4.7486">
        <ele>146.5</ele>
        <time>2021-04-19T15:28:13Z</time>
      </trkpt>
      <trkpt lat="49.88411" lon="4.74855">
        <ele>146.5</ele>
        <time>2021-04-19T15:28:17Z</time>
      </trkpt>
      <trkpt lat="49.88408" lon="4.74851">
        <ele>146.5</ele>
        <time>2021-04-19T15:28:21Z</time>
      </trkpt>
      <trkpt lat="49.88404" lon="4.74844">
        <ele>143.2</ele>
        <time>2021-04-19T15:28:27Z</time>
      </trkpt>
      <trkpt lat="49.884" lon="4.74841">
        <ele>143.3</ele>
        <time>2021-04-19T15:28:31Z</time>
      </trkpt>
      <trkpt lat="49.88398" lon="4.74834">
        <ele>145.5</ele>
        <time>2021-04-19T15:28:36Z</time>
      </trkpt>
      <trkpt lat="49.88399" lon="4.74827">
        <ele>146.2</ele>
        <time>2021-04-19T15:28:40Z</time>
      </trkpt>
      <trkpt lat="49.88397" lon="4.7482">
        <ele>146.2</ele>
        <time>2021-04-19T15:28:44Z</time>
      </trkpt>
      <trkpt lat="49.88394" lon="4.74812">
        <ele>146.4</ele>
        <time>2021-04-19T15:28:49Z</time>
      </trkpt>
      <trkpt lat="49.88392" lon="4.74804">
        <ele>146.3</ele>
        <time>2021-04-19T15:28:55Z</time>
      </trkpt>
      <trkpt lat="49.8839" lon="4.74796">
        <ele>146.3</ele>
        <time>2021-04-19T15:29:00Z</time>
      </trkpt>
      <trkpt lat="49.88388" lon="4.74789">
        <ele>146.3</ele>
        <time>2021-04-19T15:29:05Z</time>
      </trkpt>
      <trkpt lat="49.88386" lon="4.74782">
        <ele>146.2</ele>
        <time>2021-04-19T15:29:10Z</time>
      </trkpt>
      <trkpt lat="49.88385" lon="4.74774">
        <ele>146.2</ele>
        <time>2021-04-19T15:29:13Z</time>
      </trkpt>
      <trkpt lat="49.88383" lon="4.74767">
        <ele>146.2</ele>
        <time>2021-04-19T15:29:17Z</time>
      </trkpt>
      <trkpt lat="49.88381" lon="4.7476">
        <ele>146.2</ele>
        <time>2021-04-19T15:29:22Z</time>
      </trkpt>
      <trkpt lat="49.88379" lon="4.74751">
        <ele>146.1</ele>
        <time>2021-04-19T15:29:27Z</time>
      </trkpt>
      <trkpt lat="49.88378" lon="4.74743">
        <ele>146.1</ele>
        <time>2021-04-19T15:29:31Z</time>
      </trkpt>
      <trkpt lat="49.88379" lon="4.74736">
        <ele>146.1</ele>
        <time>2021-04-19T15:29:35Z</time>
      </trkpt>
      <trkpt lat="49.8838" lon="4.74728">
        <ele>146</ele>
        <time>2021-04-19T15:29:39Z</time>
      </trkpt>
      <trkpt lat="49.88379" lon="4.7472">
        <ele>145.9</ele>
        <time>2021-04-19T15:29:43Z</time>
      </trkpt>
      <trkpt lat="49.88379" lon="4.74713">
        <ele>146</ele>
        <time>2021-04-19T15:29:47Z</time>
      </trkpt>
      <trkpt lat="49.88379" lon="4.74706">
        <ele>145.9</ele>
        <time>2021-04-19T15:29:51Z</time>
      </trkpt>
      <trkpt lat="49.88378" lon="4.74698">
        <ele>146</ele>
        <time>2021-04-19T15:29:55Z</time>
      </trkpt>
      <trkpt lat="49.88378" lon="4.7469">
        <ele>146</ele>
        <time>2021-04-19T15:29:59Z</time>
      </trkpt>
      <trkpt lat="49.88378" lon="4.7468">
        <ele>146.1</ele>
        <time>2021-04-19T15:30:05Z</time>
      </trkpt>
      <trkpt lat="49.88379" lon="4.74673">
        <ele>146.1</ele>
        <time>2021-04-19T15:30:09Z</time>
      </trkpt>
      <trkpt lat="49.88386" lon="4.7466">
        <ele>153</ele>
        <time>2021-04-19T15:30:17Z</time>
      </trkpt>
      <trkpt lat="49.88387" lon="4.74653">
        <ele>153</ele>
        <time>2021-04-19T15:30:21Z</time>
      </trkpt>
      <trkpt lat="49.88387" lon="4.74645">
        <ele>153</ele>
        <time>2021-04-19T15:30:25Z</time>
      </trkpt>
      <trkpt lat="49.88387" lon="4.74635">
        <ele>155.9</ele>
        <time>2021-04-19T15:30:31Z</time>
      </trkpt>
      <trkpt lat="49.88389" lon="4.74628">
        <ele>155.8</ele>
        <time>2021-04-19T15:30:34Z</time>
      </trkpt>
      <trkpt lat="49.88389" lon="4.74619">
        <ele>155.8</ele>
        <time>2021-04-19T15:30:39Z</time>
      </trkpt>
      <trkpt lat="49.8839" lon="4.74612">
        <ele>155.8</ele>
        <time>2021-04-19T15:30:43Z</time>
      </trkpt>
      <trkpt lat="49.88393" lon="4.74604">
        <ele>155.8</ele>
        <time>2021-04-19T15:30:47Z</time>
      </trkpt>
      <trkpt lat="49.88394" lon="4.74596">
        <ele>155.7</ele>
        <time>2021-04-19T15:30:52Z</time>
      </trkpt>
      <trkpt lat="49.88394" lon="4.74588">
        <ele>155.7</ele>
        <time>2021-04-19T15:30:58Z</time>
      </trkpt>
      <trkpt lat="49.88391" lon="4.74582">
        <ele>155.8</ele>
        <time>2021-04-19T15:31:05Z</time>
      </trkpt>
      <trkpt lat="49.8839" lon="4.74574">
        <ele>155.8</ele>
        <time>2021-04-19T15:31:11Z</time>
      </trkpt>
      <trkpt lat="49.88389" lon="4.74566">
        <ele>156.3</ele>
        <time>2021-04-19T15:31:16Z</time>
      </trkpt>
      <trkpt lat="49.88387" lon="4.74559">
        <ele>156.2</ele>
        <time>2021-04-19T15:31:21Z</time>
      </trkpt>
      <trkpt lat="49.88385" lon="4.74551">
        <ele>156.3</ele>
        <time>2021-04-19T15:31:27Z</time>
      </trkpt>
      <trkpt lat="49.88384" lon="4.74542">
        <ele>156.3</ele>
        <time>2021-04-19T15:31:32Z</time>
      </trkpt>
      <trkpt lat="49.88384" lon="4.74533">
        <ele>156.4</ele>
        <time>2021-04-19T15:31:36Z</time>
      </trkpt>
      <trkpt lat="49.88384" lon="4.74525">
        <ele>156.3</ele>
        <time>2021-04-19T15:31:41Z</time>
      </trkpt>
      <trkpt lat="49.88384" lon="4.74516">
        <ele>156.3</ele>
        <time>2021-04-19T15:31:46Z</time>
      </trkpt>
      <trkpt lat="49.88383" lon="4.74509">
        <ele>156.3</ele>
        <time>2021-04-19T15:31:50Z</time>
      </trkpt>
      <trkpt lat="49.88383" lon="4.745">
        <ele>156.2</ele>
        <time>2021-04-19T15:31:55Z</time>
      </trkpt>
      <trkpt lat="49.88382" lon="4.74493">
        <ele>156.3</ele>
        <time>2021-04-19T15:31:59Z</time>
      </trkpt>
      <trkpt lat="49.8838" lon="4.74485">
        <ele>156.3</ele>
        <time>2021-04-19T15:32:04Z</time>
      </trkpt>
      <trkpt lat="49.88381" lon="4.74478">
        <ele>156.2</ele>
        <time>2021-04-19T15:32:12Z</time>
      </trkpt>
      <trkpt lat="49.88382" lon="4.74471">
        <ele>154.7</ele>
        <time>2021-04-19T15:32:19Z</time>
      </trkpt>
      <trkpt lat="49.88382" lon="4.74463">
        <ele>154.6</ele>
        <time>2021-04-19T15:32:24Z</time>
      </trkpt>
      <trkpt lat="49.88381" lon="4.74455">
        <ele>154.3</ele>
        <time>2021-04-19T15:32:29Z</time>
      </trkpt>
      <trkpt lat="49.88379" lon="4.74446">
        <ele>154.3</ele>
        <time>2021-04-19T15:32:34Z</time>
      </trkpt>
      <trkpt lat="49.88377" lon="4.74439">
        <ele>154.2</ele>
        <time>2021-04-19T15:32:38Z</time>
      </trkpt>
      <trkpt lat="49.88373" lon="4.74421">
        <ele>154.1</ele>
        <time>2021-04-19T15:32:47Z</time>
      </trkpt>
      <trkpt lat="49.88371" lon="4.74415">
        <ele>154.1</ele>
        <time>2021-04-19T15:32:51Z</time>
      </trkpt>
      <trkpt lat="49.88369" lon="4.74406">
        <ele>154.1</ele>
        <time>2021-04-19T15:32:55Z</time>
      </trkpt>
      <trkpt lat="49.88367" lon="4.74397">
        <ele>154</ele>
        <time>2021-04-19T15:33:00Z</time>
      </trkpt>
      <trkpt lat="49.88364" lon="4.74392">
        <ele>154</ele>
        <time>2021-04-19T15:33:04Z</time>
      </trkpt>
      <trkpt lat="49.8836" lon="4.74386">
        <ele>154</ele>
        <time>2021-04-19T15:33:08Z</time>
      </trkpt>
      <trkpt lat="49.88356" lon="4.74382">
        <ele>154.1</ele>
        <time>2021-04-19T15:33:12Z</time>
      </trkpt>
      <trkpt lat="49.88354" lon="4.74376">
        <ele>154.1</ele>
        <time>2021-04-19T15:33:16Z</time>
      </trkpt>
      <trkpt lat="49.8835" lon="4.74369">
        <ele>154.1</ele>
        <time>2021-04-19T15:33:20Z</time>
      </trkpt>
      <trkpt lat="49.88347" lon="4.74364">
        <ele>154.1</ele>
        <time>2021-04-19T15:33:24Z</time>
      </trkpt>
      <trkpt lat="49.88343" lon="4.74359">
        <ele>154.1</ele>
        <time>2021-04-19T15:33:29Z</time>
      </trkpt>
      <trkpt lat="49.8834" lon="4.74352">
        <ele>154.1</ele>
        <time>2021-04-19T15:33:34Z</time>
      </trkpt>
      <trkpt lat="49.88339" lon="4.74344">
        <ele>190.3</ele>
        <time>2021-04-19T15:33:39Z</time>
      </trkpt>
      <trkpt lat="49.88339" lon="4.74336">
        <ele>179.1</ele>
        <time>2021-04-19T15:33:45Z</time>
      </trkpt>
      <trkpt lat="49.88338" lon="4.74327">
        <ele>172.7</ele>
        <time>2021-04-19T15:33:49Z</time>
      </trkpt>
      <trkpt lat="49.88341" lon="4.74315">
        <ele>187.6</ele>
        <time>2021-04-19T15:33:53Z</time>
      </trkpt>
      <trkpt lat="49.88341" lon="4.74307">
        <ele>188.9</ele>
        <time>2021-04-19T15:33:56Z</time>
      </trkpt>
      <trkpt lat="49.8834" lon="4.74298">
        <ele>185.3</ele>
        <time>2021-04-19T15:34:00Z</time>
      </trkpt>
      <trkpt lat="49.88338" lon="4.7429">
        <ele>184.1</ele>
        <time>2021-04-19T15:34:04Z</time>
      </trkpt>
      <trkpt lat="49.88336" lon="4.74283">
        <ele>184.5</ele>
        <time>2021-04-19T15:34:08Z</time>
      </trkpt>
      <trkpt lat="49.88334" lon="4.74275">
        <ele>180.2</ele>
        <time>2021-04-19T15:34:12Z</time>
      </trkpt>
      <trkpt lat="49.88334" lon="4.74266">
        <ele>180.2</ele>
        <time>2021-04-19T15:34:16Z</time>
      </trkpt>
      <trkpt lat="49.88333" lon="4.74258">
        <ele>180.3</ele>
        <time>2021-04-19T15:34:21Z</time>
      </trkpt>
      <trkpt lat="49.88333" lon="4.7425">
        <ele>180.2</ele>
        <time>2021-04-19T15:34:40Z</time>
      </trkpt>
      <trkpt lat="49.88333" lon="4.74242">
        <ele>180.2</ele>
        <time>2021-04-19T15:34:44Z</time>
      </trkpt>
      <trkpt lat="49.88331" lon="4.74217">
        <ele>180.2</ele>
        <time>2021-04-19T15:34:53Z</time>
      </trkpt>
      <trkpt lat="49.88336" lon="4.74199">
        <ele>180.2</ele>
        <time>2021-04-19T15:35:00Z</time>
      </trkpt>
      <trkpt lat="49.88347" lon="4.74188">
        <ele>180.1</ele>
        <time>2021-04-19T15:35:08Z</time>
      </trkpt>
      <trkpt lat="49.88351" lon="4.74183">
        <ele>180.2</ele>
        <time>2021-04-19T15:35:11Z</time>
      </trkpt>
      <trkpt lat="49.88354" lon="4.74176">
        <ele>180.2</ele>
        <time>2021-04-19T15:35:16Z</time>
      </trkpt>
      <trkpt lat="49.88354" lon="4.74168">
        <ele>180.1</ele>
        <time>2021-04-19T15:35:19Z</time>
      </trkpt>
      <trkpt lat="49.88354" lon="4.7416">
        <ele>180.2</ele>
        <time>2021-04-19T15:35:23Z</time>
      </trkpt>
      <trkpt lat="49.88356" lon="4.74153">
        <ele>180.2</ele>
        <time>2021-04-19T15:35:28Z</time>
      </trkpt>
      <trkpt lat="49.88359" lon="4.74147">
        <ele>180</ele>
        <time>2021-04-19T15:35:33Z</time>
      </trkpt>
      <trkpt lat="49.88363" lon="4.7414">
        <ele>179.9</ele>
        <time>2021-04-19T15:35:40Z</time>
      </trkpt>
      <trkpt lat="49.88366" lon="4.74134">
        <ele>179.9</ele>
        <time>2021-04-19T15:35:44Z</time>
      </trkpt>
      <trkpt lat="49.88369" lon="4.74129">
        <ele>179.9</ele>
        <time>2021-04-19T15:35:47Z</time>
      </trkpt>
      <trkpt lat="49.88374" lon="4.74123">
        <ele>180</ele>
        <time>2021-04-19T15:35:52Z</time>
      </trkpt>
      <trkpt lat="49.88375" lon="4.74114">
        <ele>180</ele>
        <time>2021-04-19T15:35:56Z</time>
      </trkpt>
      <trkpt lat="49.88375" lon="4.74107">
        <ele>180</ele>
        <time>2021-04-19T15:36:00Z</time>
      </trkpt>
      <trkpt lat="49.88378" lon="4.74099">
        <ele>180</ele>
        <time>2021-04-19T15:36:05Z</time>
      </trkpt>
      <trkpt lat="49.88383" lon="4.74096">
        <ele>180</ele>
        <time>2021-04-19T15:36:09Z</time>
      </trkpt>
      <trkpt lat="49.88388" lon="4.74094">
        <ele>180</ele>
        <time>2021-04-19T15:36:12Z</time>
      </trkpt>
      <trkpt lat="49.88393" lon="4.74094">
        <ele>180</ele>
        <time>2021-04-19T15:36:15Z</time>
      </trkpt>
      <trkpt lat="49.88399" lon="4.74094">
        <ele>180</ele>
        <time>2021-04-19T15:36:20Z</time>
      </trkpt>
      <trkpt lat="49.88411" lon="4.74081">
        <ele>179.9</ele>
        <time>2021-04-19T15:36:32Z</time>
      </trkpt>
      <trkpt lat="49.88414" lon="4.74073">
        <ele>180</ele>
        <time>2021-04-19T15:36:37Z</time>
      </trkpt>
      <trkpt lat="49.88419" lon="4.74067">
        <ele>180</ele>
        <time>2021-04-19T15:36:42Z</time>
      </trkpt>
      <trkpt lat="49.88423" lon="4.74058">
        <ele>180.1</ele>
        <time>2021-04-19T15:36:47Z</time>
      </trkpt>
      <trkpt lat="49.88425" lon="4.7405">
        <ele>180</ele>
        <time>2021-04-19T15:36:52Z</time>
      </trkpt>
      <trkpt lat="49.88428" lon="4.74044">
        <ele>180.2</ele>
        <time>2021-04-19T15:36:56Z</time>
      </trkpt>
      <trkpt lat="49.8843" lon="4.74037">
        <ele>180.1</ele>
        <time>2021-04-19T15:37:01Z</time>
      </trkpt>
      <trkpt lat="49.88434" lon="4.74031">
        <ele>180.1</ele>
        <time>2021-04-19T15:37:06Z</time>
      </trkpt>
      <trkpt lat="49.88444" lon="4.74007">
        <ele>180.1</ele>
        <time>2021-04-19T15:37:22Z</time>
      </trkpt>
      <trkpt lat="49.88446" lon="4.74">
        <ele>180.1</ele>
        <time>2021-04-19T15:37:26Z</time>
      </trkpt>
      <trkpt lat="49.8845" lon="4.73995">
        <ele>180.2</ele>
        <time>2021-04-19T15:37:30Z</time>
      </trkpt>
      <trkpt lat="49.88451" lon="4.73988">
        <ele>180.3</ele>
        <time>2021-04-19T15:37:34Z</time>
      </trkpt>
      <trkpt lat="49.88456" lon="4.73978">
        <ele>180.2</ele>
        <time>2021-04-19T15:37:42Z</time>
      </trkpt>
      <trkpt lat="49.88458" lon="4.73972">
        <ele>180.2</ele>
        <time>2021-04-19T15:37:46Z</time>
      </trkpt>
      <trkpt lat="49.88461" lon="4.73966">
        <ele>180.2</ele>
        <time>2021-04-19T15:37:50Z</time>
      </trkpt>
      <trkpt lat="49.88464" lon="4.73959">
        <ele>180.2</ele>
        <time>2021-04-19T15:37:54Z</time>
      </trkpt>
      <trkpt lat="49.88467" lon="4.73953">
        <ele>180.2</ele>
        <time>2021-04-19T15:37:58Z</time>
      </trkpt>
      <trkpt lat="49.88471" lon="4.73949">
        <ele>180.1</ele>
        <time>2021-04-19T15:38:02Z</time>
      </trkpt>
      <trkpt lat="49.88475" lon="4.73944">
        <ele>180</ele>
        <time>2021-04-19T15:38:06Z</time>
      </trkpt>
      <trkpt lat="49.88478" lon="4.73939">
        <ele>180</ele>
        <time>2021-04-19T15:38:10Z</time>
      </trkpt>
      <trkpt lat="49.88484" lon="4.73942">
        <ele>180.1</ele>
        <time>2021-04-19T15:38:13Z</time>
      </trkpt>
      <trkpt lat="49.88493" lon="4.73937">
        <ele>180.1</ele>
        <time>2021-04-19T15:38:20Z</time>
      </trkpt>
      <trkpt lat="49.88496" lon="4.7393">
        <ele>180.1</ele>
        <time>2021-04-19T15:38:25Z</time>
      </trkpt>
      <trkpt lat="49.88502" lon="4.73924">
        <ele>180.1</ele>
        <time>2021-04-19T15:38:30Z</time>
      </trkpt>
      <trkpt lat="49.88506" lon="4.73924">
        <ele>140.8</ele>
        <time>2021-04-19T15:38:33Z</time>
      </trkpt>
      <trkpt lat="49.8851" lon="4.73918">
        <ele>143.2</ele>
        <time>2021-04-19T15:38:40Z</time>
      </trkpt>
      <trkpt lat="49.88513" lon="4.73913">
        <ele>143.7</ele>
        <time>2021-04-19T15:38:43Z</time>
      </trkpt>
      <trkpt lat="49.88516" lon="4.73908">
        <ele>142.1</ele>
        <time>2021-04-19T15:38:47Z</time>
      </trkpt>
      <trkpt lat="49.8852" lon="4.739">
        <ele>142.4</ele>
        <time>2021-04-19T15:38:51Z</time>
      </trkpt>
      <trkpt lat="49.8852" lon="4.73892">
        <ele>141.7</ele>
        <time>2021-04-19T15:38:55Z</time>
      </trkpt>
      <trkpt lat="49.88522" lon="4.73884">
        <ele>141.9</ele>
        <time>2021-04-19T15:38:59Z</time>
      </trkpt>
      <trkpt lat="49.88524" lon="4.73876">
        <ele>139.9</ele>
        <time>2021-04-19T15:39:03Z</time>
      </trkpt>
      <trkpt lat="49.88526" lon="4.7387">
        <ele>139.7</ele>
        <time>2021-04-19T15:39:08Z</time>
      </trkpt>
      <trkpt lat="49.88531" lon="4.73867">
        <ele>139.5</ele>
        <time>2021-04-19T15:39:14Z</time>
      </trkpt>
      <trkpt lat="49.88536" lon="4.73865">
        <ele>139.7</ele>
        <time>2021-04-19T15:39:19Z</time>
      </trkpt>
      <trkpt lat="49.8854" lon="4.73859">
        <ele>141.2</ele>
        <time>2021-04-19T15:39:24Z</time>
      </trkpt>
      <trkpt lat="49.88542" lon="4.73851">
        <ele>141</ele>
        <time>2021-04-19T15:39:29Z</time>
      </trkpt>
      <trkpt lat="49.8854" lon="4.73844">
        <ele>142.6</ele>
        <time>2021-04-19T15:39:39Z</time>
      </trkpt>
      <trkpt lat="49.88537" lon="4.73836">
        <ele>140.8</ele>
        <time>2021-04-19T15:39:43Z</time>
      </trkpt>
      <trkpt lat="49.88537" lon="4.73829">
        <ele>138.7</ele>
        <time>2021-04-19T15:39:46Z</time>
      </trkpt>
      <trkpt lat="49.88534" lon="4.73811">
        <ele>138.2</ele>
        <time>2021-04-19T15:39:58Z</time>
      </trkpt>
      <trkpt lat="49.88538" lon="4.73818">
        <ele>137.6</ele>
        <time>2021-04-19T15:40:15Z</time>
      </trkpt>
      <trkpt lat="49.8854" lon="4.73826">
        <ele>137.2</ele>
        <time>2021-04-19T15:40:19Z</time>
      </trkpt>
      <trkpt lat="49.88543" lon="4.73833">
        <ele>139.7</ele>
        <time>2021-04-19T15:40:24Z</time>
      </trkpt>
      <trkpt lat="49.88546" lon="4.7384">
        <ele>140.8</ele>
        <time>2021-04-19T15:40:28Z</time>
      </trkpt>
      <trkpt lat="49.88556" lon="4.73845">
        <ele>140.5</ele>
        <time>2021-04-19T15:40:36Z</time>
      </trkpt>
      <trkpt lat="49.88561" lon="4.73838">
        <ele>140.4</ele>
        <time>2021-04-19T15:40:40Z</time>
      </trkpt>
      <trkpt lat="49.88562" lon="4.73827">
        <ele>139.9</ele>
        <time>2021-04-19T15:40:43Z</time>
      </trkpt>
      <trkpt lat="49.88563" lon="4.73819">
        <ele>141.1</ele>
        <time>2021-04-19T15:40:47Z</time>
      </trkpt>
      <trkpt lat="49.88565" lon="4.73812">
        <ele>139.8</ele>
        <time>2021-04-19T15:40:51Z</time>
      </trkpt>
      <trkpt lat="49.8857" lon="4.73811">
        <ele>140.7</ele>
        <time>2021-04-19T15:40:54Z</time>
      </trkpt>
      <trkpt lat="49.88576" lon="4.7381">
        <ele>140.6</ele>
        <time>2021-04-19T15:40:58Z</time>
      </trkpt>
      <trkpt lat="49.88581" lon="4.73808">
        <ele>139.9</ele>
        <time>2021-04-19T15:41:03Z</time>
      </trkpt>
      <trkpt lat="49.88586" lon="4.73806">
        <ele>142.2</ele>
        <time>2021-04-19T15:41:14Z</time>
      </trkpt>
      <trkpt lat="49.88591" lon="4.73809">
        <ele>142</ele>
        <time>2021-04-19T15:41:32Z</time>
      </trkpt>
      <trkpt lat="49.88596" lon="4.73809">
        <ele>141.4</ele>
        <time>2021-04-19T15:42:24Z</time>
      </trkpt>
      <trkpt lat="49.88599" lon="4.73803">
        <ele>141.8</ele>
        <time>2021-04-19T15:42:28Z</time>
      </trkpt>
      <trkpt lat="49.88603" lon="4.73798">
        <ele>140.1</ele>
        <time>2021-04-19T15:42:31Z</time>
      </trkpt>
      <trkpt lat="49.88606" lon="4.73792">
        <ele>139.3</ele>
        <time>2021-04-19T15:42:34Z</time>
      </trkpt>
      <trkpt lat="49.8861" lon="4.73786">
        <ele>140.7</ele>
        <time>2021-04-19T15:42:38Z</time>
      </trkpt>
      <trkpt lat="49.88614" lon="4.73783">
        <ele>141.1</ele>
        <time>2021-04-19T15:42:41Z</time>
      </trkpt>
      <trkpt lat="49.88619" lon="4.7378">
        <ele>141</ele>
        <time>2021-04-19T15:42:44Z</time>
      </trkpt>
      <trkpt lat="49.88624" lon="4.73778">
        <ele>141.2</ele>
        <time>2021-04-19T15:42:48Z</time>
      </trkpt>
      <trkpt lat="49.88628" lon="4.73775">
        <ele>143.3</ele>
        <time>2021-04-19T15:42:51Z</time>
      </trkpt>
      <trkpt lat="49.88633" lon="4.73773">
        <ele>139.5</ele>
        <time>2021-04-19T15:42:55Z</time>
      </trkpt>
      <trkpt lat="49.88637" lon="4.73769">
        <ele>140.8</ele>
        <time>2021-04-19T15:42:59Z</time>
      </trkpt>
      <trkpt lat="49.88642" lon="4.73764">
        <ele>140.9</ele>
        <time>2021-04-19T15:43:03Z</time>
      </trkpt>
      <trkpt lat="49.88647" lon="4.7376">
        <ele>140.2</ele>
        <time>2021-04-19T15:43:07Z</time>
      </trkpt>
      <trkpt lat="49.88652" lon="4.73755">
        <ele>140.9</ele>
        <time>2021-04-19T15:43:11Z</time>
      </trkpt>
      <trkpt lat="49.88658" lon="4.73754">
        <ele>141.3</ele>
        <time>2021-04-19T15:43:17Z</time>
      </trkpt>
      <trkpt lat="49.88663" lon="4.73751">
        <ele>142.8</ele>
        <time>2021-04-19T15:43:21Z</time>
      </trkpt>
      <trkpt lat="49.88667" lon="4.73747">
        <ele>144.7</ele>
        <time>2021-04-19T15:43:25Z</time>
      </trkpt>
      <trkpt lat="49.88672" lon="4.73742">
        <ele>141.7</ele>
        <time>2021-04-19T15:43:29Z</time>
      </trkpt>
      <trkpt lat="49.88676" lon="4.73738">
        <ele>142.9</ele>
        <time>2021-04-19T15:43:33Z</time>
      </trkpt>
      <trkpt lat="49.8868" lon="4.73734">
        <ele>143.5</ele>
        <time>2021-04-19T15:43:37Z</time>
      </trkpt>
      <trkpt lat="49.88687" lon="4.73729">
        <ele>142.4</ele>
        <time>2021-04-19T15:43:47Z</time>
      </trkpt>
      <trkpt lat="49.8869" lon="4.73724">
        <ele>145.7</ele>
        <time>2021-04-19T15:43:54Z</time>
      </trkpt>
      <trkpt lat="49.88694" lon="4.73719">
        <ele>145.4</ele>
        <time>2021-04-19T15:43:58Z</time>
      </trkpt>
      <trkpt lat="49.88697" lon="4.73714">
        <ele>145.7</ele>
        <time>2021-04-19T15:44:01Z</time>
      </trkpt>
      <trkpt lat="49.88704" lon="4.73702">
        <ele>143.9</ele>
        <time>2021-04-19T15:44:08Z</time>
      </trkpt>
      <trkpt lat="49.88708" lon="4.73696">
        <ele>142.4</ele>
        <time>2021-04-19T15:44:12Z</time>
      </trkpt>
      <trkpt lat="49.88711" lon="4.7369">
        <ele>140.9</ele>
        <time>2021-04-19T15:44:16Z</time>
      </trkpt>
      <trkpt lat="49.88724" lon="4.73679">
        <ele>183.7</ele>
        <time>2021-04-19T15:44:23Z</time>
      </trkpt>
      <trkpt lat="49.88728" lon="4.73673">
        <ele>140.2</ele>
        <time>2021-04-19T15:44:27Z</time>
      </trkpt>
      <trkpt lat="49.88733" lon="4.73665">
        <ele>140.8</ele>
        <time>2021-04-19T15:44:32Z</time>
      </trkpt>
      <trkpt lat="49.88736" lon="4.73657">
        <ele>190.1</ele>
        <time>2021-04-19T15:44:36Z</time>
      </trkpt>
      <trkpt lat="49.88744" lon="4.73646">
        <ele>182.6</ele>
        <time>2021-04-19T15:44:45Z</time>
      </trkpt>
      <trkpt lat="49.88748" lon="4.7364">
        <ele>184.9</ele>
        <time>2021-04-19T15:44:49Z</time>
      </trkpt>
      <trkpt lat="49.88767" lon="4.73606">
        <ele>198.3</ele>
        <time>2021-04-19T15:45:10Z</time>
      </trkpt>
      <trkpt lat="49.8877" lon="4.73598">
        <ele>188.2</ele>
        <time>2021-04-19T15:45:14Z</time>
      </trkpt>
      <trkpt lat="49.88773" lon="4.73592">
        <ele>184.5</ele>
        <time>2021-04-19T15:45:17Z</time>
      </trkpt>
      <trkpt lat="49.88775" lon="4.73585">
        <ele>181.8</ele>
        <time>2021-04-19T15:45:21Z</time>
      </trkpt>
      <trkpt lat="49.88776" lon="4.73578">
        <ele>163.6</ele>
        <time>2021-04-19T15:45:24Z</time>
      </trkpt>
      <trkpt lat="49.88777" lon="4.73571">
        <ele>158.3</ele>
        <time>2021-04-19T15:45:27Z</time>
      </trkpt>
      <trkpt lat="49.88786" lon="4.73558">
        <ele>155.9</ele>
        <time>2021-04-19T15:45:36Z</time>
      </trkpt>
      <trkpt lat="49.88786" lon="4.73551">
        <ele>135.8</ele>
        <time>2021-04-19T15:45:39Z</time>
      </trkpt>
      <trkpt lat="49.88787" lon="4.73541">
        <ele>159.6</ele>
        <time>2021-04-19T15:45:43Z</time>
      </trkpt>
      <trkpt lat="49.8879" lon="4.73535">
        <ele>164.8</ele>
        <time>2021-04-19T15:45:46Z</time>
      </trkpt>
      <trkpt lat="49.88792" lon="4.73528">
        <ele>137.5</ele>
        <time>2021-04-19T15:45:50Z</time>
      </trkpt>
      <trkpt lat="49.88779" lon="4.73501">
        <ele>175.2</ele>
        <time>2021-04-19T15:46:05Z</time>
      </trkpt>
      <trkpt lat="49.88773" lon="4.73498">
        <ele>177.8</ele>
        <time>2021-04-19T15:46:09Z</time>
      </trkpt>
      <trkpt lat="49.88768" lon="4.73497">
        <ele>137.1</ele>
        <time>2021-04-19T15:46:13Z</time>
      </trkpt>
      <trkpt lat="49.88763" lon="4.73495">
        <ele>182.6</ele>
        <time>2021-04-19T15:46:16Z</time>
      </trkpt>
      <trkpt lat="49.88755" lon="4.73488">
        <ele>187</ele>
        <time>2021-04-19T15:46:23Z</time>
      </trkpt>
      <trkpt lat="49.88749" lon="4.73485">
        <ele>182.4</ele>
        <time>2021-04-19T15:46:27Z</time>
      </trkpt>
      <trkpt lat="49.88745" lon="4.73482">
        <ele>135.3</ele>
        <time>2021-04-19T15:46:31Z</time>
      </trkpt>
      <trkpt lat="49.8874" lon="4.73477">
        <ele>194.6</ele>
        <time>2021-04-19T15:46:35Z</time>
      </trkpt>
      <trkpt lat="49.88736" lon="4.73471">
        <ele>180.2</ele>
        <time>2021-04-19T15:46:40Z</time>
      </trkpt>
      <trkpt lat="49.88732" lon="4.73468">
        <ele>155.7</ele>
        <time>2021-04-19T15:46:44Z</time>
      </trkpt>
      <trkpt lat="49.88727" lon="4.73464">
        <ele>132</ele>
        <time>2021-04-19T15:46:49Z</time>
      </trkpt>
      <trkpt lat="49.88723" lon="4.7346">
        <ele>149</ele>
        <time>2021-04-19T15:46:53Z</time>
      </trkpt>
      <trkpt lat="49.88721" lon="4.73451">
        <ele>149.7</ele>
        <time>2021-04-19T15:46:57Z</time>
      </trkpt>
      <trkpt lat="49.8872" lon="4.73444">
        <ele>155.1</ele>
        <time>2021-04-19T15:47:02Z</time>
      </trkpt>
      <trkpt lat="49.88715" lon="4.73442">
        <ele>154.7</ele>
        <time>2021-04-19T15:47:06Z</time>
      </trkpt>
      <trkpt lat="49.88711" lon="4.73438">
        <ele>131.5</ele>
        <time>2021-04-19T15:47:10Z</time>
      </trkpt>
      <trkpt lat="49.88705" lon="4.73431">
        <ele>146.8</ele>
        <time>2021-04-19T15:47:14Z</time>
      </trkpt>
      <trkpt lat="49.88699" lon="4.73425">
        <ele>147.3</ele>
        <time>2021-04-19T15:47:19Z</time>
      </trkpt>
      <trkpt lat="49.887" lon="4.73414">
        <ele>156.1</ele>
        <time>2021-04-19T15:47:25Z</time>
      </trkpt>
      <trkpt lat="49.88701" lon="4.73407">
        <ele>166.5</ele>
        <time>2021-04-19T15:47:29Z</time>
      </trkpt>
      <trkpt lat="49.887" lon="4.734">
        <ele>166.2</ele>
        <time>2021-04-19T15:47:32Z</time>
      </trkpt>
      <trkpt lat="49.88699" lon="4.73385">
        <ele>177.4</ele>
        <time>2021-04-19T15:47:41Z</time>
      </trkpt>
      <trkpt lat="49.88699" lon="4.73376">
        <ele>178.7</ele>
        <time>2021-04-19T15:47:46Z</time>
      </trkpt>
      <trkpt lat="49.88697" lon="4.73367">
        <ele>190.4</ele>
        <time>2021-04-19T15:47:51Z</time>
      </trkpt>
      <trkpt lat="49.88696" lon="4.73358">
        <ele>193.5</ele>
        <time>2021-04-19T15:47:54Z</time>
      </trkpt>
      <trkpt lat="49.88697" lon="4.7335">
        <ele>195.2</ele>
        <time>2021-04-19T15:47:59Z</time>
      </trkpt>
      <trkpt lat="49.88699" lon="4.7334">
        <ele>183.4</ele>
        <time>2021-04-19T15:48:06Z</time>
      </trkpt>
      <trkpt lat="49.887" lon="4.73332">
        <ele>178.5</ele>
        <time>2021-04-19T15:48:09Z</time>
      </trkpt>
      <trkpt lat="49.88701" lon="4.73323">
        <ele>184.7</ele>
        <time>2021-04-19T15:48:13Z</time>
      </trkpt>
      <trkpt lat="49.88701" lon="4.73297">
        <ele>181.1</ele>
        <time>2021-04-19T15:48:23Z</time>
      </trkpt>
      <trkpt lat="49.88701" lon="4.73289">
        <ele>176.4</ele>
        <time>2021-04-19T15:48:27Z</time>
      </trkpt>
      <trkpt lat="49.88703" lon="4.73281">
        <ele>167.9</ele>
        <time>2021-04-19T15:48:32Z</time>
      </trkpt>
      <trkpt lat="49.88704" lon="4.73273">
        <ele>168.1</ele>
        <time>2021-04-19T15:48:36Z</time>
      </trkpt>
      <trkpt lat="49.88704" lon="4.73264">
        <ele>155.5</ele>
        <time>2021-04-19T15:48:40Z</time>
      </trkpt>
      <trkpt lat="49.88704" lon="4.73257">
        <ele>161</ele>
        <time>2021-04-19T15:48:44Z</time>
      </trkpt>
      <trkpt lat="49.88704" lon="4.7325">
        <ele>181.7</ele>
        <time>2021-04-19T15:48:49Z</time>
      </trkpt>
      <trkpt lat="49.88705" lon="4.73243">
        <ele>182.4</ele>
        <time>2021-04-19T15:48:54Z</time>
      </trkpt>
      <trkpt lat="49.88706" lon="4.73235">
        <ele>185.5</ele>
        <time>2021-04-19T15:48:57Z</time>
      </trkpt>
      <trkpt lat="49.88706" lon="4.73228">
        <ele>171.2</ele>
        <time>2021-04-19T15:49:01Z</time>
      </trkpt>
      <trkpt lat="49.88705" lon="4.73221">
        <ele>163.2</ele>
        <time>2021-04-19T15:49:05Z</time>
      </trkpt>
      <trkpt lat="49.88702" lon="4.73206">
        <ele>167.8</ele>
        <time>2021-04-19T15:49:13Z</time>
      </trkpt>
      <trkpt lat="49.88699" lon="4.732">
        <ele>169.8</ele>
        <time>2021-04-19T15:49:18Z</time>
      </trkpt>
      <trkpt lat="49.88697" lon="4.73193">
        <ele>172.7</ele>
        <time>2021-04-19T15:49:23Z</time>
      </trkpt>
      <trkpt lat="49.88696" lon="4.73185">
        <ele>173.1</ele>
        <time>2021-04-19T15:49:26Z</time>
      </trkpt>
      <trkpt lat="49.88695" lon="4.73177">
        <ele>169.1</ele>
        <time>2021-04-19T15:49:31Z</time>
      </trkpt>
      <trkpt lat="49.88693" lon="4.73171">
        <ele>168.9</ele>
        <time>2021-04-19T15:49:34Z</time>
      </trkpt>
      <trkpt lat="49.88683" lon="4.73147">
        <ele>137</ele>
        <time>2021-04-19T15:49:51Z</time>
      </trkpt>
      <trkpt lat="49.88679" lon="4.73142">
        <ele>137.3</ele>
        <time>2021-04-19T15:49:55Z</time>
      </trkpt>
      <trkpt lat="49.88676" lon="4.73126">
        <ele>137.5</ele>
        <time>2021-04-19T15:50:03Z</time>
      </trkpt>
      <trkpt lat="49.88672" lon="4.7312">
        <ele>136.6</ele>
        <time>2021-04-19T15:50:07Z</time>
      </trkpt>
      <trkpt lat="49.88673" lon="4.73094">
        <ele>136.1</ele>
        <time>2021-04-19T15:50:20Z</time>
      </trkpt>
      <trkpt lat="49.88656" lon="4.73054">
        <ele>163.9</ele>
        <time>2021-04-19T15:50:41Z</time>
      </trkpt>
      <trkpt lat="49.88652" lon="4.73049">
        <ele>169.2</ele>
        <time>2021-04-19T15:50:49Z</time>
      </trkpt>
      <trkpt lat="49.88645" lon="4.73034">
        <ele>171.4</ele>
        <time>2021-04-19T15:50:59Z</time>
      </trkpt>
      <trkpt lat="49.8864" lon="4.73028">
        <ele>171.2</ele>
        <time>2021-04-19T15:51:04Z</time>
      </trkpt>
      <trkpt lat="49.88635" lon="4.73023">
        <ele>172.9</ele>
        <time>2021-04-19T15:51:08Z</time>
      </trkpt>
      <trkpt lat="49.8863" lon="4.7302">
        <ele>173.4</ele>
        <time>2021-04-19T15:51:12Z</time>
      </trkpt>
      <trkpt lat="49.88626" lon="4.73018">
        <ele>171.5</ele>
        <time>2021-04-19T15:51:15Z</time>
      </trkpt>
      <trkpt lat="49.88622" lon="4.73015">
        <ele>171.4</ele>
        <time>2021-04-19T15:51:18Z</time>
      </trkpt>
      <trkpt lat="49.88618" lon="4.73011">
        <ele>170.4</ele>
        <time>2021-04-19T15:51:22Z</time>
      </trkpt>
      <trkpt lat="49.88613" lon="4.73007">
        <ele>169.4</ele>
        <time>2021-04-19T15:51:26Z</time>
      </trkpt>
      <trkpt lat="49.88611" lon="4.73">
        <ele>164.8</ele>
        <time>2021-04-19T15:51:30Z</time>
      </trkpt>
      <trkpt lat="49.88608" lon="4.72994">
        <ele>166.4</ele>
        <time>2021-04-19T15:51:36Z</time>
      </trkpt>
      <trkpt lat="49.88595" lon="4.7298">
        <ele>176.6</ele>
        <time>2021-04-19T15:51:49Z</time>
      </trkpt>
      <trkpt lat="49.8859" lon="4.72976">
        <ele>174.9</ele>
        <time>2021-04-19T15:51:53Z</time>
      </trkpt>
      <trkpt lat="49.88585" lon="4.72972">
        <ele>177.9</ele>
        <time>2021-04-19T15:51:57Z</time>
      </trkpt>
      <trkpt lat="49.88581" lon="4.72969">
        <ele>178.7</ele>
        <time>2021-04-19T15:52:00Z</time>
      </trkpt>
      <trkpt lat="49.88576" lon="4.72967">
        <ele>182</ele>
        <time>2021-04-19T15:52:04Z</time>
      </trkpt>
      <trkpt lat="49.88571" lon="4.72965">
        <ele>177.4</ele>
        <time>2021-04-19T15:52:09Z</time>
      </trkpt>
      <trkpt lat="49.88565" lon="4.72962">
        <ele>166.9</ele>
        <time>2021-04-19T15:52:14Z</time>
      </trkpt>
      <trkpt lat="49.88566" lon="4.72955">
        <ele>136.8</ele>
        <time>2021-04-19T15:52:41Z</time>
      </trkpt>
      <trkpt lat="49.8857" lon="4.72951">
        <ele>136.7</ele>
        <time>2021-04-19T15:52:58Z</time>
      </trkpt>
      <trkpt lat="49.88572" lon="4.72945">
        <ele>136</ele>
        <time>2021-04-19T15:53:22Z</time>
      </trkpt>
      <trkpt lat="49.88576" lon="4.72938">
        <ele>136</ele>
        <time>2021-04-19T15:53:26Z</time>
      </trkpt>
      <trkpt lat="49.8858" lon="4.72933">
        <ele>136</ele>
        <time>2021-04-19T15:53:31Z</time>
      </trkpt>
    </trkseg>
  </trk>
</gpx>